[[{"header":{"parameterUnit":"m.s-1","parameterCategory":1,"la1":30.6,"la2":29.2853,"lo1":-89.7004,"lo2":-87.6739,"dy":0.0162,"dx":0.0183,"nx":112,"ny":82,"refTime":"2023-05-19T12:00:00:Z","depth":0,"parameterNumber":2,"parameterNumberName":"U-component_of_WINDS"},"data":[0.0,0.0,0.0,0.0,0.0,0.0,0.0,0.0,0.0,0.0,0.0,0.0,0.0,0.0,0.0,0.0,0.0,0.0,0.0,0.0,0.0,0.0,0.0,0.0,0.0,0.0,0.0,0.0,0.0,0.0,0.0,0.0,0.0,0.0,0.0,0.0,0.0,0.0,0.0,0.0,0.0,0.0,0.0,0.0,0.0,0.0,0.0,0.0,0.0,0.0,0.0,0.0,0.0,0.0,0.0,0.0,0.0,0.0,0.0,0.0,0.0,0.0,0.0,0.0,0.0,0.0,0.0,0.0,0.0,0.0,0.0,0.0,0.0,0.0,0.0,0.0,0.0,0.0,0.0,0.0,0.0,0.0,0.0,0.0,0.0,0.0,0.0,0.0,0.0,0.0,2.53,2.6553,2.6727,2.6779,2.6674,2.6674,2.6165,2.4964,0.0,0.0,0.0,0.0,0.0,0.0,0.0,0.0,0.0,0.0,0.0,0.0,0.0,0.0,0.0,0.0,0.0,0.0,0.0,0.0,0.0,0.0,0.0,0.0,0.0,0.0,0.0,0.0,0.0,0.0,0.0,0.0,0.0,0.0,0.0,0.0,0.0,0.0,0.0,0.0,0.0,0.0,0.0,0.0,0.0,0.0,0.0,0.0,0.0,0.0,0.0,0.0,0.0,0.0,0.0,0.0,0.0,0.0,0.0,0.0,0.0,0.0,0.0,0.0,0.0,0.0,0.0,0.0,0.0,0.0,0.0,0.0,0.0,0.0,0.0,0.0,0.0,0.0,0.0,0.0,0.0,0.0,0.0,0.0,0.0,0.0,0.0,0.0,0.0,0.0,0.0,0.0,0.0,0.0,0.0,0.0,0.0,0.0,0.0,0.0,0.0,0.0,0.0,0.0,2.4496,2.5893,2.65,2.6621,2.6056,2.6056,2.555,2.4292,0.0,0.0,0.0,0.0,0.0,0.0,0.0,0.0,0.0,0.0,0.0,0.0,0.0,0.0,0.0,0.0,0.0,0.0,0.0,0.0,0.0,0.0,0.0,0.0,0.0,0.0,0.0,0.0,0.0,0.0,0.0,0.0,0.0,0.0,0.0,0.0,0.0,0.0,0.0,0.0,0.0,0.0,0.0,0.0,0.0,0.0,0.0,0.0,0.0,0.0,0.0,0.0,0.0,0.0,0.0,0.0,0.0,0.0,0.0,0.0,0.0,0.0,0.0,0.0,0.0,0.0,0.0,0.0,0.0,0.0,0.0,0.0,0.0,0.0,0.0,0.0,0.0,0.0,0.0,0.0,0.0,0.0,0.0,0.0,0.0,0.0,0.0,0.0,0.0,0.0,0.0,0.0,0.0,0.0,0.0,0.0,0.0,0.0,0.0,0.0,0.0,0.0,0.0,2.4654,2.5384,2.6028,2.6553,2.6674,2.6394,2.6111,2.555,2.4624,2.4738,0.0,0.0,0.0,0.0,0.0,0.0,0.0,0.0,0.0,0.0,0.0,0.0,0.0,0.0,0.0,0.0,0.0,0.0,0.0,0.0,0.0,0.0,0.0,0.0,0.0,0.0,0.0,0.0,0.0,0.0,0.0,0.0,0.0,0.0,0.0,0.0,0.0,0.0,0.0,0.0,0.0,0.0,0.0,0.0,0.0,0.0,0.0,0.0,0.0,0.0,0.0,0.0,0.0,0.0,0.0,0.0,0.0,0.0,0.0,0.0,0.0,0.0,0.0,0.0,0.0,0.0,0.0,0.0,0.0,0.0,0.0,0.0,0.0,0.0,0.0,0.0,0.0,0.0,0.0,0.0,0.0,0.0,0.0,0.0,0.0,0.0,0.0,0.0,0.0,0.0,0.0,0.0,0.0,0.0,0.0,0.0,0.0,0.0,0.0,0.0,0.0,0.0,2.4881,2.5605,2.5673,2.6014,2.6204,2.6096,2.5811,2.537,2.4851,2.4452,0.0,0.0,0.0,0.0,0.0,0.0,0.0,0.0,0.0,0.0,0.0,0.0,0.0,0.0,0.0,0.0,0.0,0.0,0.0,0.0,0.0,0.0,0.0,0.0,0.0,0.0,0.0,0.0,0.0,0.0,0.0,0.0,0.0,0.0,0.0,0.0,0.0,0.0,0.0,0.0,0.0,0.0,0.0,0.0,0.0,0.0,0.0,0.0,0.0,0.0,0.0,0.0,0.0,0.0,0.0,0.0,0.0,0.0,0.0,0.0,0.0,0.0,0.0,0.0,0.0,0.0,0.0,0.0,0.0,0.0,0.0,0.0,0.0,0.0,0.0,0.0,0.0,0.0,0.0,0.0,0.0,0.0,0.0,0.0,0.0,0.0,0.0,0.0,0.0,0.0,0.0,0.0,0.0,0.0,0.0,0.0,0.0,0.0,0.0,0.0,0.0,0.0,2.31,2.361,2.3741,2.4297,2.4469,2.4034,2.4469,2.4597,2.4176,2.4234,0.0,0.0,0.0,0.0,0.0,0.0,0.0,0.0,0.0,0.0,0.0,0.0,0.0,0.0,0.0,0.0,0.0,0.0,0.0,0.0,0.0,0.0,0.0,0.0,0.0,0.0,0.0,0.0,0.0,0.0,0.0,0.0,0.0,0.0,0.0,0.0,0.0,0.0,0.0,0.0,0.0,0.0,0.0,0.0,0.0,0.0,0.0,0.0,0.0,0.0,0.0,0.0,0.0,0.0,0.0,0.0,0.0,0.0,0.0,0.0,0.0,0.0,0.0,0.0,0.0,0.0,0.0,0.0,0.0,0.0,0.0,0.0,0.0,0.0,0.0,0.0,0.0,0.0,0.0,0.0,0.0,0.0,0.0,0.0,0.0,0.0,0.0,0.0,0.0,0.0,0.0,0.0,0.0,0.0,0.0,0.0,0.0,0.0,0.0,0.0,0.0,0.0,2.3577,2.4208,2.4266,2.4951,2.5356,2.5384,2.4881,2.461,2.4681,0.0,0.0,0.0,0.0,0.0,0.0,0.0,0.0,0.0,0.0,0.0,0.0,0.0,0.0,0.0,0.0,0.0,0.0,0.0,0.0,0.0,0.0,0.0,0.0,0.0,0.0,0.0,0.0,0.0,0.0,0.0,0.0,0.0,0.0,0.0,0.0,0.0,0.0,0.0,0.0,0.0,0.0,0.0,0.0,0.0,0.0,0.0,0.0,0.0,0.0,0.0,0.0,0.0,0.0,0.0,0.0,0.0,0.0,0.0,0.0,0.0,0.0,0.0,0.0,0.0,0.0,0.0,0.0,0.0,0.0,0.0,0.0,0.0,0.0,0.0,0.0,0.0,0.0,0.0,0.0,0.0,0.0,0.0,0.0,0.0,0.0,0.0,0.0,0.0,0.0,0.0,0.0,0.0,0.0,0.0,0.0,0.0,0.0,0.0,0.0,0.0,0.0,2.2531,2.3352,2.393,2.393,2.4394,2.4838,2.5036,2.4711,2.4553,2.461,0.0,0.0,0.0,0.0,0.0,0.0,0.0,0.0,0.0,0.0,0.0,0.0,0.0,0.0,0.0,0.0,0.0,0.0,0.0,0.0,0.0,0.0,0.0,0.0,0.0,0.0,0.0,0.0,0.0,0.0,0.0,0.0,0.0,0.0,0.0,0.0,0.0,0.0,0.0,0.0,0.0,0.0,0.0,0.0,0.0,0.0,0.0,0.0,0.0,0.0,0.0,0.0,0.0,0.0,0.0,0.0,0.0,0.0,0.0,0.0,0.0,0.0,0.0,0.0,0.0,0.0,0.0,0.0,0.0,0.0,0.0,0.0,0.0,0.0,0.0,0.0,0.0,0.0,0.0,0.0,0.0,0.0,0.0,0.0,0.0,0.0,0.0,0.0,0.0,0.0,0.0,0.0,0.0,0.0,0.0,0.0,0.0,0.0,0.0,0.0,0.0,0.0,2.1726,2.1999,2.2197,2.2197,2.2197,2.2247,2.242,2.3669,2.4297,0.0,0.0,0.0,0.0,0.0,0.0,0.0,0.0,0.0,0.0,0.0,0.0,0.0,0.0,0.0,0.0,0.0,0.0,0.0,0.0,0.0,0.0,0.0,0.0,0.0,0.0,0.0,0.0,0.0,0.0,0.0,0.0,0.0,0.0,0.0,0.0,0.0,0.0,0.0,0.0,0.0,0.0,0.0,0.0,0.0,0.0,0.0,0.0,0.0,0.0,0.0,0.0,0.0,0.0,0.0,0.0,0.0,0.0,0.0,0.0,0.0,0.0,0.0,0.0,0.0,0.0,0.0,0.0,0.0,0.0,0.0,0.0,0.0,0.0,0.0,0.0,0.0,0.0,0.0,0.0,0.0,0.0,0.0,0.0,0.0,0.0,0.0,0.0,0.0,0.0,0.0,0.0,0.0,0.0,0.0,0.0,0.0,0.0,0.0,0.0,0.0,0.0,0.0,2.2139,2.2253,2.2457,2.2665,2.3005,2.328,2.3505,2.3518,2.3577,2.3636,0.0,0.0,0.0,0.0,0.0,0.0,0.0,0.0,0.0,0.0,0.0,0.0,0.0,0.0,0.0,0.0,0.0,0.0,0.0,0.0,0.0,0.0,0.0,0.0,0.0,0.0,0.0,0.0,0.0,0.0,0.0,0.0,0.0,0.0,0.0,0.0,0.0,0.0,0.0,0.0,0.0,0.0,0.0,0.0,0.0,0.0,0.0,0.0,0.0,0.0,0.0,0.0,0.0,0.0,0.0,0.0,0.0,0.0,0.0,0.0,0.0,0.0,0.0,0.0,0.0,0.0,0.0,0.0,0.0,0.0,0.0,0.0,0.0,0.0,0.0,0.0,0.0,0.0,0.0,0.0,0.0,0.0,0.0,0.0,0.0,0.0,0.0,0.0,0.0,0.0,0.0,0.0,0.0,0.0,0.0,0.0,0.0,0.0,0.0,0.0,0.0,0.0,2.2281,2.2385,2.2635,2.2977,2.3268,2.348,2.3573,2.3561,2.3399,2.3125,0.0,0.0,0.0,0.0,0.0,0.0,0.0,0.0,0.0,0.0,0.0,0.0,0.0,0.0,0.0,0.0,0.0,0.0,0.0,0.0,0.0,0.0,0.0,0.0,0.0,0.0,0.0,0.0,0.0,0.0,0.0,0.0,0.0,0.0,0.0,0.0,0.0,0.0,0.0,0.0,0.0,0.0,0.0,0.0,0.0,0.0,0.0,0.0,0.0,0.0,0.0,0.0,0.0,0.0,0.0,0.0,0.0,0.0,0.0,0.0,0.0,0.0,0.0,0.0,0.0,0.0,0.0,0.0,0.0,0.0,0.0,0.0,0.0,0.0,0.0,0.0,0.0,0.0,0.0,0.0,0.0,0.0,0.0,0.0,0.0,0.0,0.0,0.0,0.0,0.0,0.0,0.0,0.0,0.0,0.0,0.0,0.0,0.0,0.0,0.0,0.0,0.0,2.2112,2.2411,2.2695,2.3077,2.3179,2.3136,2.2963,2.3666,2.3654,2.2603,0.0,0.0,0.0,0.0,0.0,0.0,0.0,0.0,0.0,0.0,0.0,0.0,0.0,0.0,0.0,0.0,0.0,0.0,0.0,0.0,0.0,0.0,0.0,0.0,0.0,0.0,0.0,0.0,0.0,0.0,0.0,0.0,0.0,0.0,0.0,0.0,0.0,0.0,0.0,0.0,0.0,0.0,0.0,0.0,0.0,0.0,0.0,0.0,0.0,0.0,0.0,0.0,0.0,0.0,0.0,0.0,0.0,0.0,0.0,0.0,1.7179,1.8007,0.0,0.0,0.0,0.0,0.0,0.0,0.0,0.0,0.0,0.0,0.0,0.0,0.0,0.0,0.0,0.0,0.0,0.0,0.0,0.0,0.0,0.0,0.0,0.0,0.0,0.0,0.0,0.0,0.0,0.0,0.0,0.0,0.0,0.0,0.0,0.0,0.0,0.0,0.0,0.0,2.2342,2.228,2.2173,2.2189,2.2768,2.3003,2.2639,2.3352,2.3729,2.3501,2.3737,0.0,0.0,0.0,0.0,0.0,0.0,0.0,0.0,0.0,0.0,0.0,0.0,0.0,0.0,0.0,0.0,0.0,0.0,0.0,0.0,0.0,0.0,0.0,0.0,0.0,0.0,0.0,0.0,0.0,0.0,0.0,0.0,0.0,0.0,0.0,0.0,0.0,0.0,0.0,0.0,0.0,0.0,0.0,0.0,0.0,0.0,0.0,0.0,0.0,0.0,0.0,0.0,0.0,0.0,0.0,0.0,0.0,0.0,0.0,1.6026,1.6724,0.0,0.0,0.0,0.0,0.0,0.0,0.0,0.0,0.0,0.0,0.0,0.0,0.0,0.0,0.0,0.0,0.0,0.0,0.0,0.0,0.0,0.0,0.0,0.0,0.0,0.0,0.0,0.0,0.0,0.0,0.0,0.0,0.0,0.0,0.0,0.0,0.0,0.0,0.0,0.0,2.2557,2.2358,2.2243,2.24,2.273,2.2907,2.285,2.3406,2.3773,2.3773,2.4079,0.0,0.0,0.0,0.0,0.0,0.0,0.0,0.0,0.0,0.0,0.0,0.0,0.0,0.0,0.0,0.0,0.0,0.0,0.0,0.0,0.0,0.0,0.0,0.0,0.0,0.0,0.0,0.0,0.0,0.0,0.0,0.0,0.0,0.0,0.0,0.0,0.0,0.0,0.0,0.0,0.0,0.0,0.0,0.0,0.0,0.0,0.0,0.0,0.0,0.0,0.0,0.0,0.0,1.6576,1.6175,1.5621,1.5621,1.5204,1.4641,1.5267,1.5745,1.5939,1.6009,0.0,0.0,0.0,0.0,0.0,0.0,0.0,0.0,0.0,0.0,0.0,0.0,0.0,0.0,0.0,0.0,0.0,0.0,0.0,0.0,0.0,0.0,1.7716,1.793,1.7998,1.8115,1.832,0.0,0.0,0.0,0.0,0.0,0.0,0.0,0.0,0.0,0.0,0.0,2.251,2.2396,2.2391,2.2548,2.2662,2.2809,2.3068,2.3633,2.3941,2.4037,2.4492,2.4509,0.0,0.0,0.0,0.0,0.0,0.0,0.0,0.0,0.0,0.0,0.0,0.0,0.0,0.0,0.0,0.0,0.0,0.0,0.0,0.0,0.0,0.0,0.0,0.0,0.0,0.0,0.0,0.0,0.0,0.0,0.0,0.0,2.0409,2.0182,0.0,0.0,0.0,0.0,0.0,0.0,0.0,0.0,0.0,0.0,0.0,0.0,0.0,1.7638,1.6515,1.6446,1.5886,1.4911,1.4911,1.4848,1.4776,1.4776,1.4713,1.4641,1.4705,0.0,1.5824,1.5948,0.0,0.0,0.0,0.0,0.0,0.0,0.0,0.0,0.0,0.0,0.0,0.0,0.0,0.0,0.0,0.0,0.0,0.0,0.0,0.0,0.0,0.0,1.7706,1.7706,1.8133,1.8555,1.8555,1.8896,1.9399,2.0044,2.0727,2.1211,0.0,0.0,0.0,0.0,0.0,0.0,2.1912,2.2118,2.1996,2.1281,2.2117,2.273,2.2775,2.3739,2.4614,2.5071,2.5177,2.496,2.4434,2.449,0.0,0.0,0.0,0.0,0.0,0.0,0.0,0.0,0.0,0.0,0.0,0.0,0.0,0.0,0.0,0.0,0.0,0.0,0.0,0.0,0.0,0.0,0.0,0.0,0.0,0.0,0.0,0.0,0.0,1.9617,1.942,1.9596,1.9475,1.9672,0.0,0.0,0.0,0.0,0.0,0.0,0.0,0.0,0.0,1.8317,1.7354,1.6594,1.6035,1.5824,1.5338,1.4569,1.4847,1.5089,1.5235,1.5208,1.5519,1.5963,1.5659,1.5773,1.6071,1.5493,1.5534,1.6018,0.0,0.0,0.0,0.0,1.6315,1.6446,1.6245,1.6254,1.6394,1.6542,0.0,0.0,0.0,0.0,0.0,0.0,0.0,1.7392,1.747,1.7451,1.7499,1.7963,1.8305,1.8647,1.9175,1.9502,1.9697,1.9948,2.0655,2.1205,2.1359,2.1578,0.0,0.0,0.0,2.2083,2.1754,2.1704,2.1496,2.0937,2.1263,2.1843,2.2649,2.3335,2.4229,2.5252,2.5594,2.5554,2.4975,2.531,2.5006,0.0,0.0,0.0,0.0,0.0,0.0,0.0,0.0,0.0,0.0,0.0,0.0,0.0,0.0,0.0,0.0,0.0,0.0,0.0,0.0,0.0,0.0,0.0,0.0,0.0,0.0,0.0,0.0,1.8824,1.8566,1.888,1.8566,1.87,0.0,0.0,0.0,0.0,0.0,0.0,1.8307,1.7628,1.7411,1.786,1.6818,1.6236,1.626,1.591,1.5621,1.5195,1.5552,1.5831,1.6137,1.6094,1.6362,1.6977,1.6666,1.6514,1.6465,1.5501,1.5144,1.5338,1.5338,1.548,1.5621,1.5621,1.5621,1.5621,1.5621,1.5692,1.5833,1.5903,1.6202,1.6482,1.6612,0.0,0.0,0.0,0.0,1.7325,1.7483,1.7479,1.7708,1.8323,1.8629,1.8952,1.971,2.0,2.0078,2.0078,2.0658,2.1205,2.1205,2.1502,0.0,2.1807,2.1855,2.1829,2.1583,2.1268,2.1004,2.0729,2.0675,2.1158,2.2547,2.2989,2.3786,2.524,2.5734,2.5734,2.5312,2.5676,2.5477,2.4646,0.0,0.0,0.0,0.0,0.0,0.0,0.0,0.0,0.0,0.0,0.0,0.0,0.0,0.0,0.0,0.0,0.0,0.0,0.0,0.0,0.0,0.0,0.0,0.0,0.0,0.0,0.0,0.0,0.0,1.7373,1.7725,0.0,0.0,0.0,0.0,1.7842,1.8124,1.8192,1.7774,1.7588,1.77,1.8283,1.7744,1.7424,1.7415,1.7424,1.7208,1.6917,1.6867,1.6951,1.6951,1.6968,1.6977,1.6977,1.6977,1.6968,1.6917,1.6473,1.6096,1.5762,1.5762,1.5551,1.5196,1.5196,1.5196,1.5196,1.5196,1.548,1.5833,1.6202,1.6551,1.6908,1.6908,1.6908,0.0,0.0,1.7174,1.7468,1.7468,1.7897,1.8424,1.8654,1.9115,1.9647,1.9827,2.0244,2.0527,2.0527,2.0867,2.1205,2.1205,0.0,2.1807,2.1807,2.1574,2.1355,2.1044,2.0786,2.0517,2.0172,2.041,2.1158,2.2547,2.2989,2.3786,2.524,2.5312,2.5312,2.5312,2.5052,2.4646,2.4273,2.3824,0.0,0.0,0.0,0.0,0.0,0.0,0.0,0.0,0.0,0.0,0.0,0.0,0.0,0.0,0.0,0.0,0.0,0.0,0.0,0.0,0.0,0.0,0.0,0.0,0.0,0.0,0.0,0.0,1.7038,1.7176,0.0,1.7638,1.7833,1.8018,1.8081,1.8249,1.8235,1.7959,1.7905,1.797,1.8182,1.7972,1.7732,1.7486,1.7486,1.7336,1.6977,1.7226,1.7501,1.7749,1.7683,1.7944,1.8482,1.8188,1.8124,1.8105,1.7961,1.7367,1.6564,1.6564,1.649,1.6351,1.6351,1.6351,1.6351,1.6351,1.6416,1.6638,1.6931,1.7151,1.7297,1.7615,1.7688,1.7688,1.7688,1.7789,1.7899,1.7899,1.8156,1.8545,1.8967,1.9373,1.9782,2.0273,2.0449,2.0644,2.0741,2.0974,2.1205,2.1205,2.1502,2.1807,2.1807,2.1489,2.1272,2.1405,2.1133,2.0801,2.0653,2.0731,2.1197,2.2275,2.2662,2.3501,2.4921,2.5182,2.5312,2.5312,2.4992,2.4646,2.42,2.3824,2.3372,0.0,0.0,0.0,0.0,0.0,0.0,0.0,0.0,0.0,0.0,0.0,0.0,0.0,0.0,0.0,0.0,0.0,0.0,0.0,0.0,0.0,0.0,0.0,0.0,0.0,1.7304,1.7166,1.7038,1.7088,1.7241,1.7581,1.7783,1.7981,1.8175,1.8266,1.818,1.8109,1.8128,1.8183,1.832,1.8449,1.8424,1.8321,1.8446,1.844,1.8293,1.855,1.8843,1.9179,1.9111,1.939,1.9947,1.9642,1.9577,1.9557,1.9557,1.9076,1.8386,1.7632,1.7278,1.7194,1.7194,1.7119,1.6977,1.6977,1.7052,1.7194,1.7411,1.7561,1.7728,1.8044,1.8128,1.8128,1.8128,1.8219,1.8386,1.8386,1.8638,1.9042,1.9554,1.9774,2.0005,2.0508,2.0644,2.0731,2.0906,2.1061,2.1205,2.1282,2.1578,2.1807,2.1807,2.1489,2.1335,2.169,2.1378,2.1113,2.1144,2.1248,2.172,2.2558,2.2754,2.3501,2.485,2.5015,2.5119,2.53,2.4838,2.449,2.42,2.3604,2.3075,2.2628,0.0,0.0,0.0,0.0,0.0,0.0,0.0,0.0,0.0,0.0,0.0,0.0,0.0,0.0,0.0,0.0,0.0,0.0,0.0,0.0,0.0,0.0,0.0,1.7706,1.7451,1.7254,1.7254,1.7407,1.7513,1.7513,1.788,1.8128,1.8137,1.8155,1.8164,1.8183,1.8192,1.8375,1.876,1.9146,1.9531,1.9943,2.0328,2.0689,2.0941,2.0941,2.1024,2.1182,2.1182,2.1182,2.1182,2.1182,2.1182,2.1182,2.1182,2.1182,2.1021,1.896,1.795,1.7614,1.7614,1.7389,1.7087,1.7087,1.7304,1.7587,1.7587,1.7839,1.8164,1.8164,1.8164,1.8164,1.8164,1.8581,1.9021,1.9021,1.9474,1.9942,2.0264,2.0264,2.0342,2.0566,2.0741,2.0906,2.0906,2.1061,2.1282,2.1512,2.1655,2.1807,2.1807,2.1563,0.0,2.1711,2.1471,2.1404,2.1614,2.1962,2.2569,2.3385,2.3315,2.3798,2.5181,2.4831,2.4771,2.5288,2.4611,2.42,2.4189,2.3224,2.2628,2.2402,0.0,0.0,0.0,0.0,0.0,0.0,0.0,0.0,0.0,0.0,0.0,0.0,0.0,0.0,0.0,0.0,0.0,0.0,0.0,0.0,0.0,1.7638,1.7638,1.7373,1.7637,1.7835,1.7835,1.8194,1.8366,1.8366,1.8479,1.8676,1.892,1.9296,1.9596,1.9888,2.0179,2.0395,2.0508,2.0611,2.0724,2.0846,2.0959,2.1015,2.1099,2.1099,2.1182,2.1182,2.1182,2.1182,2.1182,2.1182,2.1182,2.1182,2.1182,2.1182,2.1135,2.0599,2.008,1.9729,1.9729,1.9464,1.9127,1.9127,1.9127,1.9204,1.9204,1.9291,1.9378,1.9378,1.9378,1.9378,1.9378,1.9531,1.9615,1.9615,1.9934,2.0186,2.0264,2.042,2.0566,2.0741,2.0829,2.0984,2.1282,2.1359,2.1436,2.1512,2.1655,2.1883,2.2035,2.1638,2.1671,2.2306,2.2088,2.188,2.2116,2.2188,2.2517,2.2984,2.3293,2.3851,2.4874,2.5051,2.5155,2.53,2.4611,2.3897,2.3372,2.2927,2.2628,0.0,0.0,0.0,0.0,0.0,0.0,0.0,0.0,0.0,0.0,0.0,0.0,0.0,0.0,0.0,0.0,0.0,0.0,0.0,0.0,0.0,0.0,1.787,1.7985,1.7716,1.8005,1.8295,1.8466,1.8784,1.8957,1.8957,1.9269,1.9582,1.9837,2.0235,2.0576,2.0813,2.1049,2.1182,2.1182,2.1362,2.1447,2.1447,2.1627,2.1798,2.1883,2.1883,2.1883,2.1968,2.1968,2.1968,2.1968,2.1968,2.1968,2.1968,2.1968,2.1968,2.192,0.0,0.0,0.0,0.0,2.0301,1.9863,1.9863,1.9863,1.9863,1.9863,1.9863,1.9863,1.9863,1.9863,1.9863,1.9863,1.9942,2.0108,2.0108,2.0342,2.0586,2.0586,2.0731,2.0886,2.0974,2.1051,2.1205,2.1425,2.1578,0.0,2.1731,2.1883,2.1959,2.2101,2.2019,2.2168,2.266,2.2529,2.244,2.2597,2.29,2.3178,2.3383,2.3757,0.0,0.0,0.0,2.4943,2.4814,2.4406,0.0,0.0,0.0,2.2628,2.2402,2.2101,0.0,0.0,2.1205,2.1051,0.0,0.0,0.0,0.0,0.0,0.0,0.0,0.0,0.0,0.0,0.0,0.0,0.0,0.0,0.0,0.0,1.8228,1.866,1.8595,1.8605,1.8668,1.9033,1.9344,1.9478,1.9478,2.0267,2.0723,2.0723,2.1104,2.1341,2.1341,2.1379,0.0,0.0,0.0,2.2074,2.2074,2.2339,2.2706,2.2882,2.2882,2.2969,2.3135,2.3135,2.3135,2.3135,2.3135,2.3135,2.3135,2.3135,2.3135,2.3057,2.1815,2.1341,2.1284,2.0828,2.0419,2.0008,1.996,0.0,0.0,2.002,2.002,2.002,2.002,2.002,2.002,2.0029,2.0186,2.0342,2.042,2.0664,2.0906,2.0906,2.1061,2.1215,2.1205,2.1349,2.1512,2.1502,2.1731,2.1883,2.2101,2.2101,2.2101,2.2176,2.2478,2.2703,2.2703,2.2927,2.3001,2.3001,2.3666,0.0,2.42,2.4331,2.4668,2.5276,2.4809,2.4413,2.4177,2.4127,2.3751,2.3001,2.2852,2.2649,2.2477,2.2336,2.2053,2.1732,2.1409,2.1158,0.0,0.0,0.0,0.0,0.0,0.0,0.0,0.0,0.0,0.0,0.0,0.0,0.0,0.0,0.0,1.8264,1.8744,1.9277,1.9555,1.9594,1.9632,1.971,2.0343,2.0827,2.0827,2.1293,2.1675,2.1675,2.1981,2.2213,2.2213,2.2801,2.3073,2.3073,2.3325,2.3451,2.3451,2.3444,2.358,2.358,2.358,0.0,2.3667,2.3667,2.3667,2.3667,2.3667,2.3667,2.3667,2.3667,2.3667,2.3531,2.2578,2.2213,2.2116,2.1351,2.1021,2.0895,2.0615,2.0489,2.0489,2.0489,2.0489,2.0489,2.0489,2.0489,0.0,2.0664,2.0751,2.0819,2.0974,2.1051,2.1128,2.1128,2.1205,2.1205,2.1436,2.1512,2.1578,2.1731,2.1883,2.2025,2.2101,2.2101,2.2176,2.2553,2.2628,2.2777,2.2927,2.3001,2.3001,2.3001,2.315,2.3519,2.4116,2.4241,2.4577,2.5229,2.4957,2.4601,2.4189,2.3897,2.3519,2.3001,2.2927,2.3047,2.3208,2.2977,2.3023,2.3064,2.1927,2.1396,0.0,0.0,0.0,0.0,0.0,0.0,0.0,0.0,0.0,0.0,0.0,1.7998,1.8133,0.0,1.864,1.8802,1.9253,1.9678,1.9883,2.0293,2.0576,2.0576,2.0967,2.1318,2.1543,2.2036,2.2375,2.2375,2.2843,2.3176,2.3176,2.3471,2.3667,2.3667,2.3754,2.3841,2.3841,2.3841,2.3841,2.3841,2.3841,2.3841,2.3841,2.3841,2.3841,2.3841,2.3841,2.3841,2.3841,2.3841,2.3841,2.3734,2.3342,2.3037,2.28,2.2363,2.1927,2.1521,2.1293,2.1075,2.0886,2.0886,2.0886,2.0886,2.0886,2.0886,2.0886,2.1051,2.1061,2.1051,2.1205,2.1282,2.1359,2.1359,2.1436,2.1502,2.1655,2.1655,2.1655,2.1807,2.1949,2.2101,2.2252,2.2327,2.2478,2.2703,2.2777,2.2852,2.3001,2.3001,2.3001,2.3001,2.3372,2.3751,2.42,2.4539,2.4897,2.5312,2.5111,2.4766,2.4189,2.397,2.3604,2.3001,2.3241,2.333,2.327,2.3349,2.3435,2.3335,2.2628,2.2308,0.0,0.0,0.0,0.0,0.0,0.0,0.0,1.8076,1.8135,1.8135,1.8203,1.8359,1.8701,1.8828,1.9004,1.9355,1.9766,2.0154,2.0232,2.086,2.1379,2.1546,2.1565,2.1703,2.2138,2.273,2.3158,2.3307,2.3639,2.3831,2.4079,2.4079,2.409,2.3841,2.409,2.409,2.3927,2.3927,2.3927,2.3927,2.3927,2.3927,2.3927,2.3927,2.3927,2.3927,2.3927,2.3927,2.3927,2.3927,2.3927,2.3927,2.3927,2.3715,2.3392,2.3227,2.2694,2.199,2.1909,2.1587,2.1205,2.1205,2.1205,2.1205,2.1205,2.1205,2.1205,2.1282,2.1282,2.1282,2.1282,2.1436,2.1578,2.1578,2.1655,2.1807,2.1807,2.1807,2.1807,2.1883,2.2025,2.2252,2.2402,2.2628,2.2777,2.2777,2.2927,2.3001,2.3001,2.3001,2.3001,2.3001,2.3677,2.4127,2.4273,2.4897,2.5312,2.5312,2.517,2.4826,2.4189,2.4043,2.3677,2.3001,2.3482,2.3623,2.3332,2.3801,2.3837,2.3606,2.3524,2.332,1.9187,1.8741,1.8337,1.8269,1.8144,1.8008,0.0,1.8301,1.8494,1.8494,1.8877,1.916,1.9209,1.9521,1.9785,1.9834,2.0377,2.0956,2.1323,2.164,2.209,2.2872,2.2794,2.2824,2.3032,2.3433,2.3998,2.4809,2.4211,2.4166,2.4872,2.5147,2.4925,2.4196,2.5094,2.5168,2.4454,2.4454,2.4454,2.4454,2.4454,2.4454,2.4454,2.4454,2.4454,2.4454,2.4454,2.4454,2.4454,2.4454,2.4454,2.4454,2.4454,2.4423,2.4245,2.3507,2.2875,2.2392,2.201,2.1587,2.1205,2.1205,2.1205,2.1205,2.1205,2.1205,2.1205,2.1436,2.1512,2.1502,2.1655,2.1731,2.1807,2.1807,2.1807,2.1807,2.1807,2.1807,2.1873,2.2035,2.2252,2.2402,2.2628,2.2852,2.3001,2.3001,2.3001,2.3001,2.3001,2.3001,2.3001,2.3001,2.3372,2.397,2.4646,2.5111,2.5312,2.5312,2.4683,2.4261,2.42,2.3519,2.3075,2.3001,2.3482,2.3874,2.432,2.4605,2.4791,2.4956,2.4788,2.4241,1.9274,1.8942,1.8741,1.8472,1.8546,1.8666,1.8666,1.9063,1.9362,1.9362,1.9511,1.972,1.9999,2.0198,2.0397,2.0645,2.1151,2.1579,2.1759,2.2312,2.2867,2.3314,2.3503,2.3665,2.3569,2.3826,2.4186,2.4594,2.4829,2.5158,2.5473,2.5746,2.5768,2.5369,2.5432,2.5402,2.5356,2.4997,2.4997,2.527,2.5083,2.4871,2.4871,2.4871,2.4871,2.4871,2.4871,2.4871,2.4871,2.4871,2.4871,2.4871,2.4871,2.4871,2.485,2.4152,2.3719,2.3268,2.2818,2.2357,2.1937,2.1671,2.1578,2.1578,2.1578,2.1578,2.1589,2.1655,2.1655,2.1655,2.1807,2.1807,2.1807,2.1959,2.1949,2.2025,2.2101,2.2176,2.2176,2.2252,2.2402,2.2628,2.2703,2.2852,2.3001,2.3001,2.3001,2.3001,2.3001,2.3001,2.315,2.3677,2.3824,2.4261,2.5052,2.5241,2.5312,2.5312,2.5028,2.4683,2.42,2.3897,2.3446,2.3001,2.3777,2.4189,2.4238,2.4973,2.526,2.52,2.5115,2.4756,1.9473,1.9198,1.9039,1.8893,1.9041,1.9254,1.9364,1.9726,2.0121,2.0121,2.0212,2.033,2.0682,2.0843,2.1024,2.1346,2.1847,2.2181,2.2302,2.296,2.349,2.378,2.4088,2.4196,2.4013,2.4282,2.4615,2.5105,2.5432,2.583,2.6318,2.634,2.6268,2.6257,2.5983,2.5883,2.6239,2.5873,2.57,2.5902,2.5562,2.5328,2.52,2.52,2.52,2.52,2.52,2.52,2.52,2.52,2.52,2.52,2.52,2.52,2.52,2.4786,2.4419,2.3981,2.3576,2.3067,2.2517,2.2185,2.1987,2.1883,2.1959,2.1959,2.1883,2.1959,2.1959,2.1883,2.1959,2.1959,2.2035,2.2176,2.2176,2.2252,2.2402,2.2402,2.2402,2.2478,2.2628,2.2703,2.2777,2.2927,2.3001,2.3001,2.3001,2.3001,2.3001,2.3075,2.3446,2.4273,2.4345,2.4622,2.5241,2.5312,2.5312,2.5312,2.5099,2.4754,2.4189,2.397,2.366,2.3198,2.405,2.4462,2.4421,2.5243,2.5624,2.5488,2.5488,2.5466,1.9933,1.9473,1.9178,1.9634,1.9481,1.9324,1.9808,2.0272,2.0616,2.0616,2.0873,2.1175,2.1185,2.1547,2.1839,2.1859,2.2473,2.3002,2.3421,2.369,2.4043,2.4382,2.4444,2.4454,2.4454,2.47,2.56,2.7302,2.6008,2.5935,2.7637,2.6928,2.6517,2.6483,2.6954,2.7126,2.7138,2.679,2.637,2.5913,2.5892,2.5647,2.52,2.52,2.52,2.52,2.52,2.52,2.52,2.52,2.52,2.52,2.52,2.52,2.52,2.52,2.4902,2.4405,2.4013,2.3419,2.2804,2.2783,2.2478,2.2101,2.2327,2.2252,2.2101,2.2327,2.2252,2.2111,2.2327,2.2402,2.2402,2.2402,2.2402,2.2402,2.2402,2.2402,2.2478,2.2628,2.2703,2.2777,2.2927,2.3001,2.3001,2.3001,2.3001,2.3001,2.3001,2.3372,2.3897,2.4718,2.479,2.4921,2.5241,2.5312,2.5312,2.5312,2.4611,2.4189,2.42,2.3446,2.322,2.37,2.4224,2.4705,2.5153,2.5655,2.6062,2.626,2.626,2.6421,2.0666,2.0402,2.0115,2.0139,2.0495,2.0916,2.1052,2.146,2.1805,2.1805,2.178,2.1807,2.1807,2.2035,2.2265,2.2265,2.2991,2.3619,2.3763,2.4041,2.4364,2.4765,2.4786,2.502,2.5757,2.5757,2.5913,2.6565,2.6823,2.7395,2.8597,2.7971,2.772,2.8034,2.7828,2.7656,2.7711,2.7314,2.7136,2.7288,2.666,2.6271,2.6109,2.5784,2.5633,2.5633,2.5633,2.5633,2.5633,2.5633,2.5633,2.5633,2.5633,2.5633,2.5644,2.5549,2.5452,2.5352,2.4532,2.4132,2.3843,2.3239,2.2931,2.2741,2.2498,2.2327,2.2327,2.2402,2.2327,2.2327,2.2402,2.2402,2.2402,2.2553,2.2628,2.2628,2.2777,2.2777,2.2852,2.2852,2.2927,2.2927,2.3001,2.3274,2.3602,2.394,2.37,2.3558,2.386,2.4301,2.4884,2.5714,2.58,2.5938,2.6308,2.6382,2.6382,2.6382,2.6098,2.5875,2.5627,2.5344,2.5206,2.5127,2.5645,2.5983,2.6136,2.6616,2.6922,2.6998,2.6998,2.6909,2.1213,2.0985,2.079,2.0861,2.1325,2.1732,2.1903,2.2179,2.2402,2.2402,2.2327,2.2176,2.2176,2.2625,2.2977,2.2977,2.375,2.4357,2.4357,2.4608,2.4786,2.5031,2.5274,2.5589,2.5997,2.6483,2.6801,2.6801,2.6987,2.7649,2.8755,2.8378,2.8303,2.8892,2.8614,2.8445,2.8466,2.8422,2.8411,2.8567,2.7415,2.6791,2.6616,2.631,2.607,2.5895,2.5895,2.5895,2.5895,2.5895,2.5895,2.5895,2.5895,2.5895,2.5895,2.5728,2.5812,2.5768,2.5016,2.4719,2.4534,2.3694,2.3332,2.3097,2.2703,2.2553,2.2553,2.2628,2.2553,2.2553,2.2628,2.2628,2.2628,2.2777,2.2777,2.2852,2.3001,2.3001,2.3001,2.3001,2.3143,2.3263,2.3263,2.3744,2.447,2.5127,2.5071,2.4926,2.4876,2.5256,2.577,2.6458,2.6685,2.6836,2.6935,2.7073,2.7148,2.6935,2.6952,2.6895,2.6576,2.6665,2.6611,2.6304,2.6701,2.6865,2.6878,2.7173,2.7403,2.7566,2.7566,2.7575,2.1724,2.1408,2.1294,2.1958,2.1929,2.1923,2.2371,2.2478,2.2402,2.2402,2.2402,2.2402,2.2402,2.3179,2.3828,2.3828,2.4594,2.5274,2.52,2.5285,2.5285,2.5274,2.6008,2.6163,2.5443,2.6964,2.8016,2.8016,2.6764,2.6787,2.8462,2.8281,2.8503,2.934,2.946,2.9546,2.9381,3.0019,3.003,2.9569,2.8099,2.7206,2.679,2.6671,2.6398,2.6023,2.6023,2.5928,2.5895,2.599,2.5895,2.5895,2.5895,2.5895,2.5895,2.5895,2.5895,2.5812,2.5369,2.508,2.4886,2.433,2.3867,2.348,2.3123,2.2885,2.281,2.2938,2.2852,2.2777,2.2927,2.3001,2.3001,2.3001,2.3001,2.3001,2.3001,2.3023,2.3045,2.3045,2.346,2.382,2.3941,2.4648,2.5509,2.6564,2.7059,2.7013,2.5957,2.6217,2.6623,2.7016,2.7593,2.7742,2.7167,2.7668,2.7742,2.7167,2.724,2.7266,2.7266,2.7348,2.7435,2.7408,2.7442,2.7431,2.7392,2.7392,2.7632,2.808,2.808,2.832,2.3567,2.3066,2.2559,2.3502,2.3398,2.3143,2.3276,2.3075,2.2852,2.2852,2.2703,2.2628,2.2628,2.3257,2.3828,2.3828,2.5147,2.5913,2.5274,2.5757,2.6246,2.6412,2.603,2.6268,2.7464,2.6917,2.6764,2.7406,2.7637,2.8686,3.0789,3.0298,3.0343,3.1311,3.0748,3.0553,3.1032,3.1316,3.1151,3.0524,2.9975,2.9334,2.8718,2.8018,2.7656,2.7425,2.7099,2.673,2.6373,2.6693,2.6467,2.5895,2.6218,2.6135,2.5895,2.5895,2.5895,2.5895,2.5728,2.5652,2.555,2.5071,2.4821,2.4571,2.3798,2.3471,2.3395,2.3099,2.2927,2.2927,2.3001,2.3001,2.3001,2.3001,2.3001,2.3001,2.3001,2.3285,2.3547,2.3547,2.4537,2.5676,2.6826,2.6877,2.7042,2.8069,2.8326,2.826,2.7953,2.8363,2.8775,2.9198,2.9905,3.0214,3.0053,3.0214,3.0214,3.0053,2.9552,2.9319,2.9319,2.94,2.93,2.8893,2.8902,2.88,2.8386,2.8386,2.8451,2.8571,2.8571,2.8637,2.4242,2.4034,2.3854,2.4699,2.4567,2.4238,2.4238,2.4143,2.4059,2.3779,2.379,2.3717,2.3412,2.4007,2.4443,2.4147,2.5333,2.6102,2.5549,2.6268,2.667,2.6434,2.6682,2.6917,2.7244,2.7092,2.7347,2.8058,2.8221,2.8976,3.0612,3.1103,3.1562,3.2068,3.1455,3.1288,3.1577,3.1916,3.2003,3.1853,3.1438,3.0763,2.9799,2.9323,2.8746,2.8032,2.7786,2.7249,2.6623,2.7031,2.6824,2.6218,2.661,2.6704,2.6456,2.6456,2.6456,2.6456,2.6456,2.6456,2.6295,2.5491,2.5175,2.5033,2.429,2.4061,2.4006,2.3733,2.3656,2.3656,2.3656,2.3656,2.3656,2.3656,2.3798,2.3939,2.3939,2.4314,2.4714,2.5228,2.5915,2.6942,2.8452,2.8445,2.8533,2.9582,2.9972,3.0192,3.0411,3.0242,3.0384,3.0964,3.1524,3.1686,3.1116,3.1361,3.1279,3.0728,3.0543,3.0434,3.0434,3.0691,3.0614,3.0059,3.0067,2.9852,2.9393,2.9209,2.9117,2.9117,2.8943,2.8757,2.453,2.4686,2.516,2.5896,2.5627,2.5217,2.5217,2.5405,2.5392,2.4921,2.5075,2.5075,2.4264,2.4912,2.5326,2.4711,2.5344,2.6008,2.5983,2.6667,2.694,2.6146,2.7325,2.7718,2.6373,2.7626,2.8727,2.9289,2.8846,2.9012,2.9788,3.151,3.2394,3.2277,3.213,3.2016,3.184,3.2438,3.2882,3.3164,3.271,3.1871,3.0691,3.0569,2.9851,2.8555,2.8479,2.785,2.6973,2.7487,2.7257,2.67,2.7206,2.7324,2.7185,2.7185,2.7185,2.7185,2.7185,2.7185,2.7035,2.5884,2.5425,2.5256,2.4796,2.4664,2.4563,2.4577,2.4566,2.4555,2.4645,2.4645,2.4645,2.4645,2.4937,2.515,2.515,2.5595,2.6207,2.7371,2.7579,2.8068,2.9421,2.9683,2.9922,3.0817,3.1467,3.1969,3.2649,3.195,3.1656,3.2213,3.2802,3.2655,3.1505,3.182,3.1587,3.0543,3.0809,3.0975,3.0975,3.142,3.1484,3.0949,3.0859,3.0668,3.0216,2.976,2.9577,2.9577,2.9209,2.9035,2.6134,2.614,2.6189,2.722,2.6799,2.6171,2.6171,2.5951,2.5742,2.5615,2.5533,2.5252,2.448,2.4699,2.502,2.5084,2.58,2.6343,2.6472,2.6891,2.7185,2.7021,2.7255,2.7568,2.7959,2.8674,2.9286,2.9509,3.0939,3.2149,3.2856,3.3226,3.3263,3.3073,3.3972,3.4108,3.3322,3.4358,3.462,3.4134,3.37,3.331,3.3051,3.1492,3.0942,3.1198,3.0217,2.9502,2.8916,2.9437,2.8867,2.7805,2.8232,2.7882,2.7185,2.7185,2.7185,2.7185,2.7185,2.7185,2.7174,2.6919,2.6569,2.6233,2.573,2.5355,2.5048,2.5037,2.5004,2.5083,2.5472,2.5549,2.5549,2.5549,2.5627,2.5704,2.5704,2.6037,2.6909,2.8677,2.9042,2.9541,3.1029,3.0944,3.0879,3.1517,3.1252,3.1452,3.2525,3.3038,3.325,3.3418,3.3502,3.3502,3.325,3.284,3.2511,3.2253,3.1831,3.1529,3.1529,3.1613,3.1484,3.0949,3.0859,3.0668,3.0216,3.0125,3.0034,3.0034,3.0034,2.9943,2.6363,2.6694,2.7236,2.8051,2.7696,2.7149,2.7149,0.0,0.0,2.6744,2.6744,2.6595,2.5755,2.613,2.6419,2.5893,2.6393,2.6907,2.7262,2.7258,2.7185,2.7185,2.7568,2.7799,2.781,2.9253,3.0325,3.0748,3.2448,3.3372,3.3209,3.393,3.3944,3.298,3.4121,3.4037,3.2649,3.3869,3.4217,3.3628,3.3713,3.3641,3.3556,3.2673,3.2438,3.2434,3.1847,3.1026,3.0008,3.047,2.9904,2.8733,2.8893,2.8715,2.8292,2.7951,2.7846,2.7846,2.7846,2.7846,2.7846,2.7846,2.7429,2.6801,2.6563,2.6413,2.6217,2.6222,2.6234,2.6234,2.6473,2.6553,2.6553,2.6553,2.6723,2.6971,2.7195,2.7396,2.7867,2.913,2.9558,3.0071,3.112,3.1304,3.1395,3.1661,3.1749,3.2013,3.2624,3.33,3.3713,3.3713,3.405,3.3966,3.3215,3.3215,3.2957,3.2189,3.1837,3.1661,3.1661,3.1661,3.1572,3.1306,3.1306,3.1217,3.0937,3.0668,3.0578,3.0578,3.0306,3.0216,2.6451,2.7053,2.7944,2.8495,2.8249,2.7987,2.7987,2.8183,2.8235,2.7789,2.7934,2.7895,2.7169,2.7551,2.7828,0.0,2.7301,2.772,2.8252,2.7904,2.7627,2.751,2.8199,2.8505,2.7891,2.999,3.1613,3.2143,3.3647,3.4205,3.3433,3.4479,3.4551,3.3348,3.4217,3.3953,3.2476,3.3615,3.3882,3.3373,3.3628,3.3641,3.3484,3.3288,3.3104,3.292,3.292,3.2142,3.079,3.1345,3.0797,2.9697,2.963,2.9569,2.94,2.8871,2.8679,2.8655,2.8546,2.851,2.851,2.851,2.8018,2.736,2.736,2.7267,2.7185,2.7348,2.736,2.736,2.7441,2.751,2.751,2.751,2.7777,2.8122,2.8431,2.851,2.8667,2.9196,2.9725,3.0254,3.0783,3.1312,3.1661,3.1661,3.2276,3.2711,3.2711,3.33,3.3713,3.3713,3.405,3.3882,3.297,3.3129,3.2859,3.2013,3.1749,3.1661,3.1661,3.1661,3.1661,3.1661,3.1661,3.1661,3.1661,3.1306,3.1038,3.1038,3.0668,3.0487,2.7037,2.755,2.8195,2.8515,2.8587,2.8522,2.8522,0.0,2.8587,2.8522,2.8365,2.8186,2.804,2.7723,0.0,0.0,2.8807,2.8799,2.9714,2.9414,2.891,2.8327,2.9201,2.9833,2.9756,3.1759,3.3234,3.347,3.4753,3.54,3.491,3.5209,3.5304,3.5141,3.5467,3.5467,3.5291,3.5467,3.5209,3.4551,3.3966,3.3713,3.3628,3.2438,3.2176,3.2711,3.2711,3.2326,3.1677,3.2289,3.1884,3.0795,3.0747,3.0434,2.9953,2.9424,2.9232,2.916,2.8679,2.851,2.851,2.851,2.8191,2.78,2.78,2.7534,2.7267,2.7719,2.78,2.7881,2.8271,2.8339,2.8339,2.8339,2.8431,2.8431,2.851,2.851,2.8667,2.9196,2.9725,3.0254,3.0783,3.1312,3.1661,3.1661,3.2276,3.2711,3.2711,3.33,3.3713,3.3713,3.3215,3.3043,3.3556,3.2525,3.2101,3.2537,3.2013,3.1661,3.1661,3.1661,3.1661,3.1661,3.1661,3.1661,3.1661,3.1661,3.1661,3.1661,3.1572,3.1572,2.693,2.727,2.7699,2.8181,2.817,2.8153,2.8519,0.0,2.8587,2.8587,2.8522,2.8554,2.8744,2.8924,2.9366,3.0375,3.0331,3.0365,3.1035,3.0281,2.9579,2.9431,2.9756,2.9986,2.9986,3.1743,3.3242,3.4265,3.5169,3.5642,3.548,3.5562,3.5399,3.4977,3.5046,3.4881,3.4468,3.4468,3.4384,3.4134,3.3797,3.3713,3.3713,3.3116,3.3031,3.33,3.33,3.2957,3.2363,3.2624,3.2153,3.1312,3.0999,3.0747,3.0494,2.9965,2.9773,2.9701,2.9172,2.8979,2.8931,2.8607,2.8351,2.8283,2.8283,2.8099,2.8018,2.8191,2.8283,2.8283,2.8431,2.851,2.851,2.851,2.851,2.859,2.8961,2.904,2.918,2.977,3.0598,3.1354,3.1485,3.2272,3.2859,3.2859,3.3129,3.33,3.33,3.3543,3.3713,3.3713,3.3458,3.3215,3.3129,3.2624,3.2276,3.2101,3.1837,3.1661,3.1661,3.1661,3.1661,3.1661,3.1661,3.1661,3.1661,3.1661,3.1661,3.1661,3.1661,3.1661,2.6821,2.7097,2.7474,2.7899,2.7939,2.8085,2.8492,0.0,2.8587,2.8587,2.8736,2.9034,2.9443,2.9968,3.0655,3.1459,3.1695,3.1941,3.2238,3.1532,3.0849,3.0778,3.0648,3.0545,3.0545,3.1863,3.3261,3.4668,3.5221,3.5533,3.571,3.571,3.5467,3.5046,3.4964,3.4799,3.4301,3.4301,3.4217,3.3966,3.3966,3.3882,3.3713,3.3713,3.3713,3.3713,3.3882,3.3471,3.2723,3.2884,3.245,3.1625,3.1252,3.1108,3.1048,3.0506,3.0326,3.0242,2.9713,2.9436,2.9232,2.8871,2.8643,2.851,2.851,2.851,2.851,2.851,2.851,2.851,2.851,2.851,2.851,2.851,2.851,2.8657,2.9263,2.9543,2.9811,3.042,3.1483,3.2265,3.2265,3.3059,3.3713,3.3713,3.3882,3.3966,3.3966,3.4134,3.4301,3.4301,3.4134,3.3713,3.3043,3.2624,3.2276,3.2013,3.1837,3.1661,3.1661,3.1661,3.1661,3.1661,3.1661,3.1661,3.1661,3.1661,3.1661,3.1661,3.1661,3.1661,2.682,2.7227,2.768,2.768,2.8153,2.8587,2.8587,2.8587,2.8587,2.8587,2.9048,2.9659,3.0283,3.0753,3.1379,3.2535,3.2978,3.3287,3.3287,3.3287,3.3087,3.2528,3.2091,3.189,3.189,3.2637,3.3552,3.4733,3.4841,3.5099,3.5683,3.571,3.571,3.571,3.571,3.571,3.571,3.571,3.5386,3.4716,3.4716,3.4384,3.3713,3.3713,3.3713,3.3713,3.4384,3.3966,3.2711,3.3386,3.2859,3.1661,3.1661,3.1661,3.1589,3.106,3.0867,3.0783,3.0266,2.9737,2.9304,2.9292,2.8931,2.851,2.851,2.851,2.851,2.851,2.851,2.851,2.851,2.851,2.851,2.851,2.851,2.8657,2.9263,2.9841,3.0453,3.1059,3.2072,3.2867,3.2867,3.3341,3.3713,3.3713,3.4301,3.4716,3.4716,3.5304,3.571,3.571,3.5046,3.4384,3.3713,3.2426,3.2013,3.2624,3.2101,3.1661,3.1661,3.1661,3.1661,3.1661,3.1661,3.1661,3.1661,3.1661,3.1661,3.1661,3.1661,3.1661,2.6432,2.6736,2.7141,2.7281,2.7653,2.8085,2.8505,2.8587,2.8587,2.8587,2.9062,2.9659,3.0296,3.0823,3.1608,3.2786,3.3401,3.3702,3.3702,3.3702,3.3486,3.2769,3.2253,3.189,3.189,3.2637,3.3213,3.3593,3.438,3.4909,3.5099,3.5506,3.571,3.571,3.571,3.571,3.571,3.571,3.5548,3.5372,3.5372,3.5046,3.4384,3.4384,3.4134,3.3713,3.3882,3.3797,3.3386,3.3628,3.3458,3.3031,3.3031,3.2792,3.2416,3.1843,3.1617,3.1385,3.0044,2.9984,3.0386,2.9525,2.9481,2.9636,2.9173,2.8799,2.851,2.851,2.851,2.851,2.851,2.8775,2.9051,2.9051,2.9328,2.9898,3.0914,3.1373,3.1819,3.2866,3.3647,3.418,3.418,3.4659,3.5046,3.5046,3.5223,3.5372,3.5372,3.5548,3.571,3.571,3.5127,3.4634,3.4384,3.353,3.2957,3.2711,3.2537,3.2189,3.1749,3.1661,3.1661,3.1661,3.1661,3.1661,3.1661,3.1661,3.1661,3.1661,3.1661,3.1661,0.0,2.6442,2.6954,2.7047,2.7544,0.0,2.8505,2.8587,2.8587,2.8587,2.9252,2.9944,3.0337,3.1083,3.187,3.2616,3.3417,3.3869,3.3869,3.3869,3.3571,3.2685,3.2266,3.2036,3.2036,3.2434,3.282,3.3111,3.3742,3.4258,3.4489,3.4855,3.5045,3.5045,3.5479,3.571,3.571,3.571,3.571,3.571,3.571,3.5467,3.5046,3.5046,3.4881,3.4454,3.4232,3.3975,0.0,3.3493,3.3238,3.2989,3.2989,3.2759,3.2439,3.2041,3.1896,3.1716,3.0661,3.0641,3.1006,3.0226,3.009,3.0228,2.9816,2.9297,2.8879,2.9413,2.9481,2.9572,2.9788,3.0128,3.0375,3.0375,3.0634,3.1128,3.2169,3.2577,3.3053,3.4039,3.476,3.5167,3.5167,3.5465,3.571,3.571,3.571,3.571,3.571,3.571,3.571,3.571,3.5127,3.4799,3.5046,3.4217,3.3543,3.3129,3.2884,3.2537,3.2101,3.1837,3.1661,3.1661,3.1661,3.1661,3.1661,3.1661,3.1661,3.1661,3.1661,3.1661,0.0,2.6293,2.7143,2.6884,2.7718,2.8587,0.0,0.0,0.0,2.8655,2.9591,3.0418,3.0473,3.1409,3.2182,3.2182,3.3173,3.3869,3.3869,3.3869,3.3512,3.2318,3.2182,3.2182,3.2182,3.2182,3.2399,3.2955,3.3111,3.3308,3.3788,3.3842,3.3869,3.3869,3.5018,3.5588,3.5588,3.5588,3.5588,3.5588,3.5588,3.5588,3.5588,3.5588,3.5588,3.556,3.5004,3.4445,3.3753,3.3186,3.2633,3.1996,3.1996,3.197,3.1944,3.1932,3.1906,3.188,3.188,3.1534,3.1177,3.1177,3.0855,3.0444,3.0482,3.0002,2.9626,3.0785,3.1073,3.1167,3.1787,3.1986,3.2012,3.2012,3.2063,3.23,3.2962,3.3582,3.4153,3.4817,3.5423,3.579,3.571,3.5723,3.5723,3.5723,3.571,3.5696,3.5655,3.5655,3.5642,3.5601,3.5007,3.4926,3.5507,3.4511,3.3713,3.3713,3.3142,3.2711,3.2624,3.2013,3.1661,3.1661,3.1661,3.1661,3.1661,3.1661,3.1661,3.1661,3.1661,3.1661,2.5131,0.0,2.7143,2.6884,2.7718,2.8587,0.0,0.0,0.0,0.0,0.0,3.0554,3.1002,3.168,3.2182,3.2182,3.3173,3.3869,3.3869,3.3869,3.3512,3.2318,3.2182,3.2182,3.2182,3.2182,3.2236,3.2372,3.2806,3.3132,3.3268,3.3702,3.3869,3.3869,3.414,3.4289,3.4289,3.4289,3.4289,3.4289,3.4289,3.4289,3.4367,3.4662,3.4585,3.4353,3.4525,3.4303,3.3904,3.3756,3.3534,3.3456,3.3456,3.2866,3.2057,3.2429,3.2213,3.1827,3.1664,3.1734,3.1877,3.1877,3.1827,3.1872,3.2427,3.1447,3.0137,3.0445,3.0458,3.0482,3.0714,3.1035,3.1355,3.1355,3.2008,3.28,3.3487,3.4326,3.5211,3.5919,3.6425,3.6601,3.6312,3.6232,3.6138,3.571,3.571,3.5547,3.5099,3.5031,3.4855,3.4329,3.4197,3.4119,3.4289,3.4377,3.4217,3.3713,3.3543,3.3031,3.2013,3.1749,3.1661,3.1661,3.1661,3.1661,3.1661,3.1661,3.1661,3.1661,3.1661,3.1661,2.5061,2.5785,2.6622,2.6755,2.7515,2.8261,0.0,0.0,0.0,0.0,0.0,3.0581,3.1192,3.1775,3.2182,3.2182,3.3173,3.3869,3.3869,3.3869,3.3512,3.2318,3.2182,3.2182,3.2182,3.2182,3.2182,3.2182,3.2467,3.2657,3.2657,3.2955,3.3132,3.3132,3.3132,3.3403,3.3856,3.3869,3.3869,3.3869,3.3869,3.3869,3.3946,3.4327,3.4403,3.4162,3.4339,3.4214,3.3963,3.3526,3.3477,3.3638,3.3403,3.3036,3.2649,3.2869,3.2736,3.2461,3.2362,3.2461,3.2632,3.2632,3.2667,3.2773,3.3213,3.2533,3.1703,3.1997,3.204,3.2087,3.239,3.2707,3.2948,3.2948,3.3429,3.3976,3.4316,3.4794,3.5338,3.5703,3.6221,3.6396,3.5899,3.6017,3.6022,3.5485,3.5443,3.5333,3.5002,3.4961,3.4837,3.4506,3.4162,3.4085,3.4389,3.4424,3.4233,3.3844,3.326,3.2586,3.1843,3.1272,3.106,3.13,3.1541,3.1661,3.1661,3.1661,3.1661,3.1661,3.1661,3.1661,2.5174,2.5371,2.5928,2.6647,2.7271,2.7868,0.0,0.0,0.0,0.0,0.0,0.0,0.0,3.1843,3.2182,3.2182,3.3173,3.3869,3.3869,3.3869,3.3512,3.2318,3.2182,3.2182,3.2182,3.2182,3.2182,3.2182,3.2182,3.2182,3.2182,3.2182,3.2182,3.2182,3.2182,3.2657,3.3661,3.3675,3.3751,3.3751,3.3751,3.3826,3.3813,3.4189,3.4339,3.4311,3.4164,3.4084,3.397,3.3139,3.2988,3.3269,3.2917,3.2903,3.3199,3.3339,3.3339,3.3255,3.3255,3.3339,3.3479,3.3325,3.3339,3.3479,3.3479,3.3479,3.3592,3.4086,3.4071,3.4087,3.471,3.4797,3.4797,3.4797,3.4868,3.4938,3.4938,3.5082,3.5212,3.5212,3.5648,3.5831,3.531,3.5662,3.5742,3.5162,3.5078,3.505,3.4952,3.4938,3.4896,3.4797,3.4325,3.4237,3.4783,3.4311,3.3937,3.3826,3.2856,3.2303,3.2143,3.1046,3.0664,3.1186,3.1487,3.1753,3.1925,3.1837,3.1749,3.1837,3.1749,3.1661,2.5174,2.5073,2.5412,2.6538,2.7271,2.7868,0.0,0.0,0.0,0.0,0.0,0.0,0.0,3.2114,3.2182,3.2182,3.3173,3.3869,3.3869,3.3973,3.3539,3.2318,3.2182,3.2182,3.2182,3.2182,3.2182,3.2182,3.2182,3.2182,3.2182,3.2182,3.2182,3.2182,3.2182,3.2264,3.2453,3.2704,3.2908,3.2908,3.3195,3.3423,3.3409,3.3776,3.3776,3.348,3.3747,3.3704,3.341,3.3241,3.3269,3.3269,3.3199,3.296,3.2662,3.3409,3.3395,3.3017,3.3157,3.3673,3.4128,3.3451,3.3673,3.4196,3.4196,3.4196,3.4225,3.4326,3.3915,3.348,3.3564,3.3564,3.3564,3.3564,3.3986,3.4307,3.4307,3.4992,3.5638,3.5638,3.5942,3.6129,3.5652,3.5709,3.5605,3.5166,3.5078,3.4896,3.4363,3.4307,3.4169,3.3621,3.348,3.348,3.3564,3.348,3.3409,3.3409,3.3635,3.348,3.2895,3.2063,3.1858,3.2415,3.1868,3.1982,3.2785,3.2189,3.2201,3.2537,3.1925,3.1661,2.5715,2.5674,2.613,2.71,2.7256,2.7523,0.0,0.0,0.0,0.0,0.0,0.0,0.0,3.2182,3.2386,3.3023,3.3593,3.3869,3.3869,3.3959,3.3525,3.2318,3.2182,3.2182,3.2182,3.2182,3.2182,3.2182,3.2182,3.2182,3.2182,3.2182,3.2182,3.2182,3.2182,3.2182,3.2182,3.2717,3.2917,3.2704,3.3129,3.3269,3.3339,3.3632,3.3701,3.3563,3.3977,3.4059,3.3908,3.3632,3.3701,3.3839,3.3632,3.3548,3.3534,3.3977,3.3977,3.3742,3.3825,3.4113,3.4346,3.3962,3.4113,3.4414,3.4414,3.4414,3.4414,3.4414,3.4128,3.3908,3.3908,3.3908,3.3908,3.3908,3.4082,3.4296,3.4296,3.4651,3.4992,3.4992,3.5421,3.5621,3.5119,3.528,3.5381,3.4768,3.4725,3.4625,3.4325,3.4296,3.4182,3.3937,3.3908,3.3908,3.3908,3.3908,3.3618,3.2889,3.2616,3.2452,3.2186,3.1747,3.1808,3.2424,3.1983,3.2097,3.2819,3.2092,3.2006,3.2562,3.2686,3.2747,2.6336,2.6521,2.7131,2.8011,0.0,0.0,0.0,0.0,0.0,0.0,0.0,0.0,0.0,3.2182,3.2562,3.368,3.3869,3.3869,3.3869,3.3869,3.3512,3.2318,3.2182,3.2182,3.2182,3.2182,3.2182,3.2182,3.2182,3.2182,3.2182,3.2241,3.2314,3.2314,3.2386,3.2458,3.2458,3.3072,3.3199,3.2846,3.3339,3.3563,3.3563,3.3839,3.3908,3.3977,3.4264,3.4414,3.4414,3.4059,3.4128,3.4346,3.4059,3.4128,3.4414,3.4414,3.4414,3.4414,3.4414,3.4414,3.4414,3.4414,3.4414,3.4414,3.4414,3.4414,3.4414,3.4414,3.4414,3.4414,3.4414,3.4414,3.4414,3.4414,3.4414,3.4414,3.4414,3.4414,3.4414,3.4414,3.4806,3.498,3.4501,3.482,3.4965,3.4486,3.4414,3.4414,3.4414,3.4414,3.4414,3.4414,3.4414,3.4414,3.4414,3.4414,3.3977,3.2946,3.2304,3.2015,3.2205,3.1841,3.1893,3.2603,3.2318,3.2393,3.28,3.2072,3.1819,3.2252,3.2852,3.3145,2.6782,2.7142,2.789,2.9193,2.9015,0.0,2.9364,2.9442,0.0,3.0283,0.0,0.0,3.1965,3.2182,3.2562,3.368,3.3869,3.3869,3.3869,3.3869,3.3512,3.2318,3.2182,3.2182,3.2182,3.2182,3.2182,3.2182,3.2182,3.2182,3.2182,3.2503,3.2632,3.2632,3.3058,3.3199,3.3199,3.3563,3.3563,3.3269,3.3991,3.4346,3.4346,3.4346,3.4346,3.4346,3.4414,3.4414,3.4414,3.4346,3.4346,3.4414,3.4346,3.4346,3.4414,3.4414,3.4414,3.4414,3.4414,3.4414,3.4414,3.4414,3.4414,3.4414,3.4414,3.4414,3.4414,3.4414,3.4414,3.4414,3.4414,3.4414,3.4414,3.4414,3.4414,3.4414,3.4414,3.4414,3.4414,3.4414,3.4443,3.4472,3.4428,3.4443,3.4472,3.4428,3.4414,3.4414,3.4414,3.4414,3.4414,3.4414,3.4414,3.4414,3.4414,3.4414,3.4346,3.4264,3.4196,3.4196,3.4196,3.3493,3.3352,3.3938,3.3233,3.2943,3.3158,3.2514,3.1992,3.1744,3.1704,3.1686,2.7363,2.7965,2.8892,2.946,3.0033,0.0,0.0,3.0077,2.9793,3.0782,3.132,0.0,3.268,3.2503,3.2562,3.368,3.3869,3.3869,3.3869,3.3869,3.3512,3.2318,3.2372,3.2503,3.2503,3.2717,3.286,3.286,3.286,3.286,3.286,3.2988,3.3058,3.3058,3.3199,3.3269,3.3269,3.3632,3.377,3.3632,3.4128,3.4414,3.4414,3.4414,3.4414,3.4414,3.4414,3.4414,3.4414,3.4414,3.4414,3.4414,3.4414,3.4414,3.4414,3.4414,3.4414,3.4414,3.4414,3.4414,3.4414,3.4414,3.4414,3.4414,3.4414,3.4414,3.4414,3.4414,3.4414,3.4414,3.4414,3.4414,3.4414,3.4414,3.4414,3.4414,3.4414,3.4414,3.4414,3.4414,3.4414,3.4414,3.4414,3.4414,3.4414,3.4414,3.4414,3.4414,3.4414,3.4414,3.4414,3.4414,3.4414,3.4414,3.4414,3.4414,3.4414,3.4414,3.3962,3.3894,3.4414,3.3604,3.334,3.3508,3.3209,3.3065,3.3006,3.2778,3.272,3.2935,3.3447,3.3697,2.791,2.8761,2.972,2.9803,0.0,0.0,3.1709,3.1064,3.0656,3.1443,3.2168,3.279,3.3407,3.2846,3.2636,3.4046,3.4009,3.3937,3.4126,3.3991,3.358,3.2709,3.2684,3.2775,3.2917,3.3129,3.3269,3.3269,3.3452,3.355,3.355,3.3903,3.4087,3.4087,3.4214,3.4214,3.4214,3.4309,3.4278,3.4278,3.4365,3.4414,3.4414,3.4414,3.4414,3.4414,3.4414,3.4414,3.4414,3.4414,3.4414,3.4414,3.4414,3.4414,3.4414,3.4414,3.4414,3.4414,3.4414,3.4414,3.4414,3.4414,3.4414,3.4414,3.4414,3.4414,3.4414,3.4414,3.4414,3.4414,3.4414,3.4414,3.4414,3.4414,3.4414,3.4414,3.4414,3.4414,3.4414,3.4414,3.4414,3.4414,3.4414,3.4414,3.4414,3.4414,3.4414,3.4414,3.4414,3.4414,3.4414,3.4414,3.4414,3.4414,3.4414,3.4414,3.4414,3.4414,3.3894,3.3825,3.4414,3.3894,3.3589,3.3589,3.3589,3.3367,3.2978,3.2978,3.3036,3.3219,3.3996,3.4316,2.8411,2.9396,3.0428,0.0,0.0,0.0,3.2272,3.2467,3.2481,3.2421,3.283,3.3422,3.4177,3.3185,3.2841,3.4678,3.4376,3.4149,3.4746,3.4326,3.3867,3.3611,3.3076,3.286,3.3297,3.3368,3.3368,3.3368,3.3845,3.4197,3.4197,3.5252,3.5826,3.5826,3.6101,3.6301,3.6301,3.5677,3.5427,3.5343,3.4719,3.4414,3.4414,3.4414,3.4414,3.4414,3.4414,3.4414,3.4414,3.4414,3.4414,3.4414,3.4414,3.4414,3.4414,3.4414,3.4414,3.4414,3.4414,3.4414,3.4414,3.4414,3.4414,3.4414,3.4414,3.4414,3.4414,3.4414,3.4414,3.4414,3.4414,3.4414,3.4414,3.4414,3.4414,3.4414,3.4414,3.4414,3.4414,3.4414,3.4414,3.4414,3.4414,3.4414,3.4414,3.4414,3.4414,3.4414,3.4414,3.4414,3.4414,3.4414,3.4414,3.4414,3.4414,3.4414,3.4414,3.4414,3.4414,3.4414,3.4414,3.4414,3.4414,3.4414,3.4414,3.4031,3.3213,3.3213,3.2861,3.216,3.2684,3.2881,2.8411,2.9396,0.0,3.0428,0.0,0.0,0.0,3.245,0.0,0.0,3.4251,3.4177,3.4927,3.4312,3.4113,3.5583,3.5156,3.5022,3.6029,3.5516,3.4955,3.472,3.4848,3.4894,3.5039,3.5239,3.5382,3.5382,3.5554,3.5655,3.5655,3.5985,3.6172,3.6172,3.6244,3.6098,3.5648,3.5459,3.514,3.469,3.4501,3.4414,3.4414,3.4414,3.4414,3.4414,3.4414,3.4414,3.4414,3.4414,3.4414,3.4414,3.4414,3.4414,3.4414,3.4414,3.4414,3.4414,3.4414,3.4414,3.4414,3.4414,3.4414,3.4414,3.4414,3.4414,3.4414,3.4414,3.4414,3.4414,3.4414,3.4414,3.4414,3.4414,3.4414,3.4414,3.4414,3.4414,3.4414,3.4414,3.4414,3.4414,3.4414,3.4414,3.4414,3.4414,3.4414,3.4414,3.4414,3.4414,3.4414,3.4414,3.4414,3.4414,3.4414,3.4414,3.4414,3.4414,3.4414,3.4414,3.4414,3.4414,3.4113,3.3589,3.4113,3.4031,3.3213,3.3742,3.3894,3.3687,3.3872,3.3957,2.8334,2.9396,0.0,3.0428,3.1428,3.253,3.2863,0.0,0.0,3.5118,3.5076,3.4978,3.5785,3.5124,3.485,3.6217,3.604,3.5999,3.6953,3.6447,3.6109,3.6125,3.5969,3.5826,3.5971,3.6172,3.6301,3.6301,3.6562,3.6707,3.6707,3.6925,3.7056,3.7056,3.6823,3.6519,3.6141,3.5619,3.5169,3.4791,3.453,3.4414,3.4414,3.4414,3.4414,3.4414,3.4414,3.4414,3.4414,3.4414,3.4414,3.4414,3.4414,3.4414,3.4414,3.4414,3.4414,3.4414,3.4414,3.4414,3.4414,3.4414,3.4414,3.4414,3.4414,3.4414,3.4414,3.4414,3.4414,3.4414,3.4414,3.4414,3.4414,3.4414,3.4414,3.4414,3.4414,3.4414,3.4414,3.4414,3.4414,3.4414,3.4414,3.4414,3.4414,3.4414,3.4414,3.4414,3.4414,3.4414,3.4414,3.4414,3.4414,3.4414,3.4414,3.4414,3.4414,3.4414,3.4414,3.4414,3.4414,3.4414,3.4182,3.3673,3.4113,3.4182,3.3673,3.4182,3.4414,3.4414,3.4414,3.4414,2.8227,2.935,0.0,3.0397,3.1535,0.0,3.3439,3.4063,3.4627,3.5305,3.5398,3.5634,3.6477,3.5567,3.5192,3.6647,3.6866,3.7009,3.7689,3.7405,3.7244,3.7666,3.6751,3.6216,3.6561,3.6489,3.6475,3.6475,3.7041,3.7389,3.7389,3.7912,3.8173,3.813,3.7593,3.7244,3.7128,3.5952,3.5343,3.527,3.469,3.4414,3.4414,3.4414,3.4414,3.4414,3.4414,3.4414,3.4414,3.4414,3.4414,3.4414,3.4414,3.4414,3.4414,3.4414,3.4414,3.4414,3.4414,3.4414,3.4414,3.4414,3.4414,3.4414,3.4414,3.4414,3.4414,3.4414,3.4414,3.4414,3.4414,3.4414,3.4414,3.4414,3.4414,3.4414,3.4414,3.4414,3.4414,3.4414,3.4414,3.4414,3.4414,3.4414,3.4414,3.4414,3.4414,3.4414,3.4414,3.4414,3.4414,3.4414,3.4414,3.4414,3.4414,3.4414,3.4414,3.4414,3.4414,3.4414,3.4414,3.4414,3.4414,3.4414,3.4414,3.4414,3.4414,3.4414,3.4414,3.4414,3.4414,3.4414,2.8275,2.9046,0.0,0.0,3.171,3.2819,3.2834,3.3463,3.4162,3.4771,3.4842,3.5089,3.5929,3.5827,3.6107,3.7482,3.7643,3.7948,3.8964,3.8923,3.8952,3.9324,3.882,3.8384,3.8471,3.8091,3.7796,3.7796,3.7926,3.8014,3.8014,3.813,3.7984,3.752,3.7375,3.6823,3.5793,3.5572,3.5111,3.4617,3.4486,3.4414,3.4414,3.4414,3.4414,3.4414,3.4414,3.4414,3.4414,3.4414,3.4414,3.4414,3.4414,3.4414,3.4414,3.4414,3.4414,3.4414,3.4414,3.4414,3.4414,3.4414,3.4414,3.4414,3.4414,3.4414,3.4414,3.4414,3.4414,3.4414,3.4414,3.4414,3.4414,3.4414,3.4414,3.4414,3.4414,3.4414,3.4414,3.4414,3.4414,3.4414,3.4414,3.4414,3.4414,3.4414,3.4414,3.4414,3.4414,3.4414,3.4414,3.4414,3.4414,3.4414,3.4414,3.4414,3.4414,3.4414,3.4414,3.4414,3.4414,3.4414,3.4414,3.4414,3.4414,3.4414,3.4414,3.4414,3.4414,3.4414,3.4414,3.4414,2.8215,0.0,0.0,3.0887,0.0,3.2897,3.2881,3.3162,3.3536,3.388,3.44,3.4961,3.5419,3.554,3.579,3.6601,3.6955,3.7591,3.8854,3.9026,3.9329,4.0193,3.9849,3.9493,3.9493,3.9205,3.8914,3.8649,3.8649,3.8501,3.8202,3.7941,3.7622,3.7317,3.6707,3.6054,3.5441,3.5067,3.4588,3.3964,3.3964,3.3804,3.3529,3.4138,3.4414,3.4414,3.4414,3.4414,3.4414,3.4414,3.4414,3.4414,3.4414,3.4414,3.4414,3.4414,3.4414,3.4414,3.4414,3.4414,3.4414,3.4414,3.4414,3.4414,3.4414,3.4414,3.4414,3.4414,3.4414,3.4414,3.4414,3.4414,3.4414,3.4414,3.4414,3.4414,3.4414,3.4414,3.4414,3.4414,3.4414,3.4414,3.4414,3.4414,3.4414,3.4414,3.4414,3.4414,3.4414,3.4414,3.4414,3.4414,3.4414,3.4414,3.4414,3.4414,3.4414,3.4414,3.4414,3.4414,3.4414,3.4414,3.4414,3.4414,3.4414,3.4414,3.4414,3.4414,3.4414,3.4414,3.4414,3.4414,2.8109,0.0,2.9855,3.1285,3.2232,0.0,3.3081,3.3058,3.3005,3.3112,3.3881,3.4638,3.4917,3.4989,3.5037,3.5363,3.5963,3.6832,3.7986,3.8466,3.9178,4.0422,4.0163,3.9908,4.003,3.996,3.9647,3.9013,3.8822,3.8486,3.7709,3.7128,3.6751,3.6649,3.5604,3.5049,3.4878,3.4356,3.3819,3.3311,3.3311,3.3035,3.2556,3.3601,3.408,3.408,3.408,3.408,3.408,3.408,3.408,3.4095,3.4211,3.424,3.4269,3.437,3.4414,3.4414,3.4414,3.4414,3.4414,3.4414,3.4414,3.4414,3.4414,3.4414,3.4414,3.4414,3.4414,3.4414,3.4414,3.4414,3.4414,3.4414,3.4414,3.4414,3.4414,3.4414,3.4414,3.4414,3.4414,3.4414,3.4414,3.4414,3.4414,3.4414,3.4414,3.4414,3.4414,3.4414,3.4414,3.4414,3.4414,3.4414,3.4414,3.4414,3.4414,3.4414,3.4414,3.4414,3.4414,3.4414,3.4414,3.4414,3.4414,3.4414,3.4414,3.4414,3.4414,3.4414,3.4414,3.4414,2.764,0.0,3.0127,0.0,3.1769,3.2514,3.2971,3.315,3.3203,3.3096,3.3253,3.3552,3.4281,3.4431,3.4636,3.5284,3.5963,3.65,3.6674,3.7768,3.8794,3.9566,3.971,3.9967,4.0585,4.02,3.9451,3.8329,3.7723,3.6965,3.5834,3.514,3.4545,3.3993,3.3804,3.3456,3.2904,3.2817,3.273,3.2643,3.2643,3.26,3.2527,3.2701,3.2774,3.2774,3.2774,3.2774,3.2774,3.2774,3.2774,3.2817,3.3383,3.3601,3.3659,3.4211,3.4414,3.4414,3.4414,3.4414,3.4414,3.4414,3.4414,3.4414,3.4414,3.4414,3.4414,3.4414,3.4414,3.4414,3.4414,3.4414,3.4414,3.4414,3.4414,3.4414,3.4414,3.4414,3.4414,3.4414,3.4414,3.4414,3.4414,3.4414,3.4414,3.4414,3.4414,3.4414,3.4414,3.4414,3.4414,3.4414,3.4414,3.4414,3.4414,3.4414,3.4414,3.4414,3.4414,3.4414,3.4414,3.4414,3.4414,3.4414,3.4414,3.4414,3.4414,3.4414,3.4414,3.4414,3.4414,3.4414,2.803,2.9187,3.0163,0.0,3.136,3.2345,3.2609,3.2972,3.3309,3.3203,3.3203,3.335,3.3688,3.3735,3.3846,3.4162,3.4478,3.4952,3.5742,3.6374,3.7164,3.8239,3.8433,3.8623,3.8936,3.8698,3.8237,3.7329,3.699,3.6507,3.5695,3.4728,3.4112,3.3833,3.3237,3.2803,3.2513,3.2513,3.2324,3.1961,3.1598,3.1424,3.1424,3.1424,3.183,3.2513,3.2513,3.2513,3.2513,3.2513,3.2513,3.2542,3.2817,3.2933,3.3021,3.3645,3.3891,3.3935,3.4283,3.4414,3.4414,3.4414,3.4414,3.4414,3.4414,3.4414,3.4414,3.4414,3.4414,3.4414,3.4414,3.4414,3.4414,3.4414,3.4414,3.4414,3.4414,3.4414,3.4414,3.4414,3.4414,3.4414,3.4414,3.4414,3.4414,3.4414,3.4414,3.4414,3.4414,3.4414,3.4414,3.4414,3.4414,3.4414,3.4414,3.4414,3.4414,3.4414,3.4414,3.4414,3.4414,3.4414,3.4414,3.4414,3.4414,3.4414,3.4414,3.4414,3.4414,3.4414,3.4414,3.4414,0.0,0.0,2.9959,3.0053,3.0921,3.189,3.2238,3.2677,3.3087,3.3261,3.3309,3.3309,3.3309,3.3309,3.3309,3.3309,3.3309,3.3672,3.4715,3.4999,3.5568,3.6801,3.7101,3.7275,3.7464,3.748,3.7207,3.6399,3.6213,3.5799,3.5122,3.3991,3.3384,3.3384,3.2503,3.2019,3.2019,3.2019,3.1772,3.1279,3.08,3.0568,3.0568,3.0568,3.1105,3.2019,3.2019,3.2019,3.2019,3.2019,3.2019,3.2034,3.2208,3.2266,3.2338,3.2991,3.3224,3.3311,3.3949,3.4167,3.4196,3.4356,3.4414,3.4414,3.4414,3.4414,3.4414,3.4414,3.4414,3.4414,3.4414,3.4414,3.4414,3.4414,3.4414,3.4414,3.4414,3.4414,3.4414,3.4414,3.4414,3.4414,3.4414,3.4414,3.4414,3.4414,3.4414,3.4414,3.4414,3.4414,3.4414,3.4414,3.4414,3.4414,3.4414,3.4414,3.4414,3.4414,3.4414,3.4414,3.4414,3.4414,3.4414,3.4414,3.4414,3.4414,3.4414,3.4414,3.4414,3.4414,3.4414,3.4414,0.0,2.9107,0.0,3.0022,3.0243,3.0638,3.2016,3.2349,3.2503,3.3166,3.3309,3.3309,3.3309,3.3309,3.3309,3.3309,3.3309,3.3324,3.3403,3.3957,3.4636,3.541,3.6074,3.6738,3.7417,3.748,3.7018,3.5869,3.5127,3.4287,3.312,3.2018,3.1441,3.1441,3.0983,3.0669,3.0669,3.0669,3.0655,3.0626,3.0582,3.0568,3.0568,3.0568,3.0611,3.0669,3.0669,3.0669,3.0669,3.0669,3.0669,3.0742,3.1337,3.1569,3.1656,3.2324,3.2571,3.2658,3.3296,3.3514,3.3616,3.4211,3.4414,3.4414,3.4414,3.4414,3.4414,3.4414,3.4414,3.4414,3.4414,3.4414,3.4414,3.4414,3.4414,3.4414,3.4414,3.4414,3.4414,3.4414,3.4414,3.4414,3.4414,3.4414,3.4414,3.4414,3.4414,3.4414,3.4414,3.4414,3.4414,3.4414,3.4414,3.4414,3.4414,3.4414,3.4414,3.4414,3.4414,3.4414,3.4414,3.4414,3.4414,3.4414,3.4414,3.4414,3.4414,3.4414,3.4414,3.4414,3.4414,3.4414,0.0,0.0,0.0,2.9437,2.9848,3.0306,3.0812,3.1884,3.2736,3.2685,3.351,3.4168,3.3899,3.3555,3.3309,3.3309,3.3309,3.3309,3.3309,3.3514,3.3751,3.402,3.4273,3.4525,3.4778,3.4794,3.4644,3.4211,3.396,3.3638,3.317,3.2521,3.216,3.216,3.1709,3.1422,3.1422,3.1422,3.1422,3.1422,3.1422,3.1422,3.1422,3.1422,3.1422,3.1422,3.1422,3.1146,3.0568,3.0568,3.0568,3.0597,3.0829,3.0916,3.0988,3.1642,3.1874,3.1975,3.2629,3.2861,3.2962,3.3601,3.3804,3.3804,3.3804,3.3804,3.3717,3.3311,3.3195,3.3195,3.3195,3.3195,3.3296,3.3703,3.3804,3.392,3.4327,3.4414,3.4414,3.4414,3.4414,3.4414,3.4414,3.4414,3.4414,3.4414,3.4414,3.4414,3.4414,3.4414,3.4414,3.4414,3.4414,3.4414,3.4414,3.4051,3.3804,3.3804,3.3427,3.3195,3.3195,3.3195,3.3195,3.3195,3.3195,3.3601,3.4414,3.4008,3.3804,3.379,3.3383,3.3195,2.8521,0.0,0.0,2.9335,2.9685,3.0099,3.0338,3.1373,3.2273,3.2307,3.3339,3.4153,3.4102,3.3933,3.3729,3.3591,3.3555,3.3503,3.3361,3.3309,3.3309,3.3309,3.3309,3.3309,3.3309,3.3309,3.3309,3.3309,3.3309,3.3309,3.3309,3.2834,3.2532,3.2382,3.2033,3.1879,3.1879,3.1879,3.1879,3.1879,3.1879,3.1879,3.1879,3.1879,3.1879,3.1879,3.1879,3.1595,3.1029,3.1029,3.0984,3.0807,3.0807,3.0747,3.0626,3.1047,3.1329,3.1538,3.2196,3.2368,3.2533,3.3176,3.3267,3.3151,3.3151,3.3151,3.3064,3.2643,3.2513,3.2513,3.2513,3.2513,3.2629,3.305,3.3151,3.3267,3.3688,3.4109,3.4414,3.4414,3.4414,3.4414,3.4414,3.4414,3.4414,3.4414,3.4414,3.4341,3.4124,3.4095,3.4008,3.3804,3.3775,3.3775,3.3775,3.3383,3.3151,3.3151,3.2759,3.2513,3.2513,3.2513,3.2513,3.2513,3.2513,3.2933,3.3775,3.3354,3.3151,3.3137,3.2716,3.2513,0.0,0.0,0.0,2.9793,2.9793,2.9972,3.0623,3.08,3.1128,3.2069,3.2673,3.3226,3.3922,3.448,3.4673,3.4184,3.4151,3.3949,3.3398,3.3346,3.3346,3.3293,3.3293,3.3309,3.3309,3.3309,3.3309,3.3309,3.3309,3.3309,3.3309,3.2888,3.2422,3.1936,3.1936,3.1936,3.1936,3.1936,3.1936,3.1936,3.1936,3.1936,3.1936,3.1936,3.1936,3.1936,3.1936,3.1936,3.1936,3.1936,3.1667,3.1351,3.1351,3.1043,3.0628,3.0642,3.0925,3.1382,3.1946,3.2153,3.2257,3.2986,3.2897,3.2483,3.2483,3.2483,3.2483,3.2469,3.2454,3.2454,3.2454,3.2454,3.2469,3.2483,3.2483,3.2498,3.2513,3.3485,3.4356,3.4356,3.4356,3.4356,3.4356,3.4356,3.4356,3.4356,3.4356,3.4138,3.3514,3.3441,3.3209,3.2585,3.2513,3.2513,3.2513,3.2498,3.2483,3.2483,3.2469,3.2454,3.2454,3.2454,3.2454,3.2454,3.2454,3.2454,3.2454,3.2483,3.2483,3.2483,3.2469,3.2504,2.8803,0.0,0.0,0.0,0.0,0.0,3.0556,3.1274,3.1772,3.1288,3.2311,3.3339,3.3547,3.413,3.4662,3.4844,3.4816,3.4625,3.4234,3.4218,3.4068,3.3642,3.3607,3.3503,3.3309,3.3309,3.3309,3.3309,3.3309,3.3309,3.3309,3.3187,3.3065,3.2904,3.2904,3.2904,3.2904,3.2904,3.2904,3.2904,3.2904,3.2904,3.2904,3.2904,3.2904,3.2904,3.2904,3.2904,3.285,3.216,3.1823,3.1709,3.1709,3.1652,3.148,3.1219,3.1161,3.1249,3.1071,3.1249,3.1664,3.2242,3.2631,3.2796,3.2796,3.2796,3.2706,3.2227,3.2092,3.2092,3.2092,3.1871,3.1767,3.2178,3.2035,3.1932,3.2425,3.2803,3.305,3.305,3.305,3.305,3.305,3.305,3.305,3.305,3.305,3.2977,3.2803,3.2788,3.2716,3.2542,3.2513,3.2513,3.2513,3.2077,3.1801,3.1801,3.1366,3.1119,3.1119,3.1119,3.1119,3.1119,3.1119,3.1119,3.1119,3.1569,3.1864,3.1988,3.1657,3.1543,0.0,0.0,3.0747,3.0747,0.0,0.0,3.0845,3.1381,3.177,3.1238,3.2168,3.3102,3.3351,3.3981,3.4651,3.5214,3.5317,3.511,3.4577,3.4431,3.4267,3.3899,3.3848,3.3797,3.3658,3.3555,3.345,3.345,3.3346,3.3309,3.3309,3.3309,3.3435,3.3704,3.3451,3.3435,3.3704,3.3435,3.3309,3.3309,3.3309,3.3309,3.3309,3.3309,3.3309,3.3309,3.3309,3.3309,3.324,3.2726,3.2382,3.2201,3.2201,3.2104,3.1879,3.1667,3.1667,3.1766,3.1537,3.1595,3.1898,3.1987,3.2282,3.2455,3.2297,3.234,3.2379,3.1985,3.1879,3.1879,3.1879,3.1724,3.1642,3.1973,3.1886,3.1752,3.2151,3.2132,3.2108,3.2411,3.2513,3.2513,3.2513,3.2513,3.2513,3.2513,3.2513,3.2425,3.2135,3.2092,3.2004,3.1729,3.1714,3.1714,3.1714,3.1351,3.1119,3.1119,3.0771,3.0568,3.0568,3.0568,3.0568,3.0568,3.0568,3.0642,3.0702,3.1006,3.1316,3.1498,3.1294,3.1234,0.0,0.0,0.0,3.1201,3.1295,0.0,3.1372,3.1432,3.1509,3.1574,3.2029,3.2622,3.3192,3.3802,3.4449,3.5218,3.5436,3.5294,3.4797,3.4529,3.4333,3.4267,3.4234,3.4201,3.4151,3.3848,3.371,3.3658,3.345,3.3309,3.3309,3.3309,3.3577,3.4162,3.353,3.3467,3.4051,3.3403,3.3072,3.3072,3.3072,3.3072,3.3072,3.3072,3.3119,3.3182,3.3182,3.323,3.3309,3.3309,3.3065,3.2656,3.2656,3.2437,3.2048,3.1992,3.2256,3.2586,3.2532,3.2547,3.2532,3.2104,3.1992,3.1992,3.161,3.1781,3.2048,3.2048,3.2048,3.2048,3.2048,3.1992,3.1992,3.1992,3.1936,3.1936,3.1921,3.1652,3.1619,3.2313,3.2358,3.2309,3.2309,3.2309,3.2309,3.2309,3.2309,3.2092,3.1496,3.1409,3.1192,3.064,3.0568,3.0568,3.0568,3.0568,3.0568,3.0568,3.0568,3.0568,3.0568,3.0568,3.0628,3.0642,3.0642,3.0702,3.0881,3.0881,3.0955,3.1132,3.1234,3.1351,2.9626,3.0733,3.1912,3.1912,3.1912,0.0,3.1948,3.1948,3.1856,3.1509,3.1543,3.182,3.233,3.2741,3.3252,3.4145,3.4306,3.4708,3.5797,3.5985,3.5837,3.5295,3.5005,3.4642,3.4251,3.3882,3.3607,3.3398,3.3361,3.3309,3.3309,3.3309,3.3356,3.3482,3.2819,3.2586,3.2713,3.1966,3.1618,3.1618,3.1618,3.1618,3.1618,3.1618,3.1934,3.2471,3.2471,3.2787,3.3309,3.3309,3.324,3.3187,3.3187,3.3134,3.2958,3.2602,3.2532,3.2547,3.216,3.2256,3.2586,3.2477,3.2726,3.3011,3.2904,3.2958,3.3011,3.3011,3.3011,3.3011,3.3011,3.2726,3.2477,3.2477,3.2145,3.1977,3.2185,3.217,3.2094,3.201,3.1456,3.0959,3.0959,3.0959,3.0959,3.0959,3.0959,3.0901,3.0771,3.0756,3.0713,3.0582,3.0568,3.0568,3.0568,3.0568,3.0568,3.0568,3.0568,3.0568,3.0568,3.0568,3.0642,3.0762,3.0895,3.1073,3.1234,3.1234,3.1234,3.1292,3.1409,3.1467,2.981,3.0924,3.2108,3.2108,3.2108,0.0,0.0,3.2196,3.2144,3.1858,3.1858,3.1979,3.2156,3.2355,3.278,3.3619,3.3758,3.4158,3.5344,3.559,3.5522,3.5188,3.5334,3.5328,3.5052,3.448,3.3933,3.3346,3.3309,3.3309,3.3309,3.3309,3.3309,3.3309,3.2629,3.2317,3.2317,3.1571,3.1223,3.1223,3.1223,3.1223,3.1223,3.1223,3.1413,3.1744,3.1744,3.2139,3.2787,3.2787,3.2993,3.3309,3.3309,3.3309,3.324,3.3065,3.2942,3.2888,3.2672,3.2726,3.2888,3.2656,3.2888,3.324,3.3011,3.3118,3.3309,3.3309,3.3309,3.3309,3.3309,3.3134,3.2942,3.2942,3.278,3.2617,3.2765,3.2641,3.2351,3.1962,3.1364,3.0866,3.0702,3.0642,3.0568,3.0568,3.0568,3.0568,3.0568,3.0568,3.0568,3.0568,3.0568,3.0568,3.0568,3.0568,3.0568,3.0568,3.0568,3.0568,3.0568,3.0568,3.0642,3.0821,3.1058,3.1234,3.1278,3.1351,3.1409,3.1409,3.1467,3.1482,2.9843,3.0993,3.2161,3.2161,3.2196,3.2232,0.0,0.0,0.0,3.2267,3.2301,3.2354,3.2267,3.2319,3.2599,3.3213,3.3301,3.3529,3.4161,3.4424,3.4597,3.4775,3.5265,3.554,3.5428,3.486,3.4186,3.3487,3.345,3.345,3.3309,3.3309,3.3245,3.3103,3.2424,3.2013,3.1921,3.116,3.0812,3.0812,3.0812,3.0812,3.0812,3.0812,3.0891,3.1018,3.1018,3.1413,3.2076,3.2254,3.2649,3.3171,3.3245,3.3309,3.3309,3.3309,3.3309,3.3309,3.3309,3.3309,3.324,3.2834,3.3011,3.3346,3.298,3.3156,3.345,3.345,3.345,3.345,3.345,3.345,3.345,3.345,3.345,3.345,3.3503,3.3245,3.2857,3.2422,3.2033,3.1537,3.0881,3.0702,3.0568,3.0568,3.0568,3.0568,3.0568,3.0568,3.0568,3.0568,3.0568,3.0568,3.0568,3.0568,3.0568,3.0568,3.0568,3.0628,3.0642,3.0687,3.0821,3.0881,3.1176,3.1351,3.1351,3.1467,3.1482,3.1482,3.1482,3.1482,3.0074,3.1196,3.2371,3.2371,3.2354,3.2388,3.2388,0.0,3.2406,3.2388,0.0,3.2406,3.2388,0.0,0.0,3.2511,3.2529,3.2564,3.2651,3.323,3.3929,3.4629,3.4501,3.4318,3.4042,3.4054,3.4074,3.4002,3.4052,3.385,3.3346,3.3309,3.3024,3.2408,3.1713,3.1033,3.0417,2.9722,2.9312,2.9312,2.9312,2.9312,2.9312,2.9312,2.9706,3.0291,3.0291,3.0686,3.1381,3.2013,3.2466,3.278,3.316,3.3309,3.3309,3.3309,3.3309,3.3309,3.3309,3.3309,3.3309,3.324,3.3398,3.3694,3.3882,3.4,3.4,3.4,3.4,3.4,3.4,3.4,3.4,3.4,3.4,3.405,3.43,3.4333,3.4184,3.3933,3.3665,3.2886,3.0955,3.0628,3.0568,3.0568,3.0568,3.0568,3.0568,3.0568,3.0568,3.0568,3.0568,3.0568,3.0568,3.0568,3.0568,3.0568,3.0568,3.0642,3.0762,3.1043,3.1219,3.1219,3.1409,3.1467,3.1467,3.1482,3.1482,3.1482,3.1482,3.1482,3.0215,3.1326,3.2523,3.2523,3.2457,3.2422,3.2507,3.2523,3.2523,3.2523,0.0,0.0,0.0,0.0,0.0,0.0,3.2406,3.2406,3.2406,3.2669,3.3161,3.3915,3.4296,3.4181,3.3347,3.3567,3.3573,3.3088,3.3354,3.3482,3.333,3.3309,3.2803,3.1697,3.1365,3.0686,2.958,2.9279,2.9075,2.9075,2.9075,2.9075,2.9075,2.9075,2.9295,2.9564,2.9564,2.9959,3.0638,3.1069,3.182,3.2736,3.3008,3.3291,3.3555,3.3555,3.3555,3.3555,3.3555,3.3555,3.3503,3.3346,3.3607,3.3899,3.3899,3.4,3.4101,3.4101,3.4101,3.4101,3.4101,3.4101,3.4101,3.4101,3.4101,3.4151,3.425,3.425,3.4134,3.3799,3.3614,3.3219,3.2028,3.1819,3.1721,3.1291,3.1291,3.1175,3.0687,3.0702,3.0702,3.0628,3.0702,3.0702,3.0702,3.0702,3.0762,3.0895,3.0895,3.0895,3.0955,3.1176,3.1278,3.1278,3.1409,3.1482,3.1482,3.1482,3.1482,3.1482,3.1482,3.1482,3.0366,3.1469,3.2588,3.2672,3.2557,3.2507,3.2639,3.2672,3.2672,3.2672,3.2672,0.0,0.0,0.0,3.2137,3.1925,0.0,3.1857,3.1823,3.1823,3.2159,3.3108,3.3705,3.3796,3.309,3.3385,3.328,3.2515,3.2835,3.2967,3.276,3.2724,3.2171,3.097,3.0939,3.0354,2.9091,2.9075,2.9075,2.9075,2.9075,2.9075,2.9075,2.9075,2.9075,2.9075,2.9075,2.9422,2.9911,3.0259,3.1086,3.2159,3.2642,3.3108,3.354,3.3732,3.3797,3.3797,3.3797,3.3797,3.3797,3.3658,3.3899,3.4201,3.405,3.4151,3.43,3.43,3.43,3.43,3.43,3.43,3.43,3.43,3.43,3.43,3.43,3.43,3.4234,3.3885,3.3818,3.37,3.3375,3.2955,3.2509,3.2043,3.2043,3.1875,3.1291,3.1131,3.1087,3.0955,3.0925,3.0895,3.0895,3.0895,3.0955,3.1087,3.1132,3.1132,3.1132,3.1292,3.1351,3.1351,3.1467,3.1482,3.1482,3.1482,3.1482,3.1482,3.1482,3.1482,3.0481,3.1529,3.2639,3.2852,3.2737,3.2639,3.2852,3.2884,3.2884,3.2884,3.2884,3.2652,3.1872,3.1747,3.1466,3.0683,3.0558,0.0,0.0,3.038,3.0882,3.2282,3.2458,3.2687,3.3331,3.3439,3.3311,3.2817,3.285,3.2406,3.132,3.1286,3.0954,3.0227,3.0212,2.9864,2.9091,2.9075,2.9075,2.9075,2.9075,2.9075,2.9075,2.9075,2.9075,2.9075,2.9075,2.9091,2.917,2.9896,3.0386,3.0797,3.1879,3.267,3.321,3.3841,3.4101,3.4101,3.4101,3.4101,3.4151,3.4399,3.4448,3.4546,3.4804,3.4851,3.4899,3.4899,3.4899,3.4899,3.4899,3.4899,3.4899,3.4899,3.4899,3.4899,3.4899,3.4899,3.4899,3.4835,3.4835,3.4851,3.4835,3.3649,3.2671,3.2671,3.2671,3.2671,3.2633,3.2195,3.189,3.189,3.1379,3.1087,3.1087,3.1087,3.1087,3.1087,3.1234,3.1278,3.1278,3.1409,3.1482,3.1482,3.1482,3.1482,3.1482,3.1482,3.1482,3.1482,3.1482,3.1482,3.1446,3.2138,3.2961,3.3024,3.2898,3.2834,3.2993,3.3024,3.3024,3.3024,3.2611,3.2163,3.1894,3.1308,3.0838,3.0523,3.0487,3.0487,0.0,3.0353,3.0486,3.0953,3.1841,3.2336,3.2239,3.2474,3.2458,3.2033,3.2041,3.1907,3.1694,3.1339,3.0891,3.0196,3.018,2.9848,2.9091,2.9075,2.9075,2.9075,2.9075,2.9075,2.9075,2.9075,2.9075,2.9075,2.9075,2.9075,2.9137,2.9559,3.0156,3.0836,3.1399,3.2441,3.3609,3.399,3.4201,3.4349,3.4349,3.4349,3.4349,3.425,3.4497,3.4756,3.4643,3.4739,3.4899,3.4899,3.4899,3.4899,3.4899,3.4899,3.4899,3.4899,3.4899,3.4899,3.4899,3.4899,3.4899,3.4899,3.4899,3.4899,3.4899,3.4464,3.3969,3.3515,3.3563,3.3407,3.2779,3.2648,3.2594,3.247,3.2391,3.2351,3.2351,3.2461,3.2461,3.2351,3.216,3.2007,3.2007,3.1697,3.1482,3.1482,3.1482,3.1697,3.2079,3.2079,3.2272,3.2625,3.2625,3.2422,3.1675,3.2319,3.3117,3.3196,3.3104,3.2993,3.3165,3.3196,3.3196,3.3196,3.2565,3.1899,3.1611,3.0841,3.0173,2.9858,2.9822,2.9822,0.0,2.9822,2.9867,2.9867,3.0888,3.1567,3.1461,3.1673,3.1754,3.1554,3.1523,3.1508,3.141,3.0955,3.0481,3.0082,2.9895,2.9595,2.9075,2.9075,2.9075,2.9075,2.9213,2.9259,2.9259,2.9335,2.9335,2.9335,2.9335,2.9335,2.938,2.956,2.9951,3.0567,3.0994,3.1888,3.3007,3.3743,3.4284,3.4643,3.4643,3.4643,3.4594,3.4448,3.4594,3.4851,3.4691,3.4739,3.4949,3.5214,3.5098,3.4965,3.5214,3.5098,3.4899,3.4899,3.4899,3.4899,3.4899,3.4899,3.4899,3.4899,3.4899,3.4899,3.4899,3.4899,3.4739,3.4284,3.4317,3.4168,3.3547,3.3407,3.3319,3.3182,3.313,3.3093,3.3093,3.3145,3.3145,3.3093,3.2641,3.2398,3.2398,3.2023,3.1796,3.1796,3.2007,3.2327,3.2695,3.2695,3.2841,3.3182,3.3153,3.2954]},{"header":{"parameterUnit":"m.s-1","parameterCategory":1,"la1":30.6,"la2":29.2853,"lo1":-89.7004,"lo2":-87.6739,"dy":0.0162,"dx":0.0183,"nx":112,"ny":82,"refTime":"2023-05-19T12:00:00:Z","depth":0,"parameterNumber":3,"parameterNumberName":"V-component_of_WINDS"},"data":[0.0,0.0,0.0,0.0,0.0,0.0,0.0,0.0,0.0,0.0,0.0,0.0,0.0,0.0,0.0,0.0,0.0,0.0,0.0,0.0,0.0,0.0,0.0,0.0,0.0,0.0,0.0,0.0,0.0,0.0,0.0,0.0,0.0,0.0,0.0,0.0,0.0,0.0,0.0,0.0,0.0,0.0,0.0,0.0,0.0,0.0,0.0,0.0,0.0,0.0,0.0,0.0,0.0,0.0,0.0,0.0,0.0,0.0,0.0,0.0,0.0,0.0,0.0,0.0,0.0,0.0,0.0,0.0,0.0,0.0,0.0,0.0,0.0,0.0,0.0,0.0,0.0,0.0,0.0,0.0,0.0,0.0,0.0,0.0,0.0,0.0,0.0,0.0,0.0,0.0,2.5522,2.4332,2.4171,2.4112,2.4229,2.4229,2.4721,2.5851,0.0,0.0,0.0,0.0,0.0,0.0,0.0,0.0,0.0,0.0,0.0,0.0,0.0,0.0,0.0,0.0,0.0,0.0,0.0,0.0,0.0,0.0,0.0,0.0,0.0,0.0,0.0,0.0,0.0,0.0,0.0,0.0,0.0,0.0,0.0,0.0,0.0,0.0,0.0,0.0,0.0,0.0,0.0,0.0,0.0,0.0,0.0,0.0,0.0,0.0,0.0,0.0,0.0,0.0,0.0,0.0,0.0,0.0,0.0,0.0,0.0,0.0,0.0,0.0,0.0,0.0,0.0,0.0,0.0,0.0,0.0,0.0,0.0,0.0,0.0,0.0,0.0,0.0,0.0,0.0,0.0,0.0,0.0,0.0,0.0,0.0,0.0,0.0,0.0,0.0,0.0,0.0,0.0,0.0,0.0,0.0,0.0,0.0,0.0,0.0,0.0,0.0,0.0,0.0,2.6269,2.5005,2.439,2.4287,2.4835,2.4835,2.5328,2.651,0.0,0.0,0.0,0.0,0.0,0.0,0.0,0.0,0.0,0.0,0.0,0.0,0.0,0.0,0.0,0.0,0.0,0.0,0.0,0.0,0.0,0.0,0.0,0.0,0.0,0.0,0.0,0.0,0.0,0.0,0.0,0.0,0.0,0.0,0.0,0.0,0.0,0.0,0.0,0.0,0.0,0.0,0.0,0.0,0.0,0.0,0.0,0.0,0.0,0.0,0.0,0.0,0.0,0.0,0.0,0.0,0.0,0.0,0.0,0.0,0.0,0.0,0.0,0.0,0.0,0.0,0.0,0.0,0.0,0.0,0.0,0.0,0.0,0.0,0.0,0.0,0.0,0.0,0.0,0.0,0.0,0.0,0.0,0.0,0.0,0.0,0.0,0.0,0.0,0.0,0.0,0.0,0.0,0.0,0.0,0.0,0.0,0.0,0.0,0.0,0.0,0.0,0.0,2.6094,2.5384,2.4808,2.4332,2.4229,2.4505,2.4778,2.5328,2.6176,2.6068,0.0,0.0,0.0,0.0,0.0,0.0,0.0,0.0,0.0,0.0,0.0,0.0,0.0,0.0,0.0,0.0,0.0,0.0,0.0,0.0,0.0,0.0,0.0,0.0,0.0,0.0,0.0,0.0,0.0,0.0,0.0,0.0,0.0,0.0,0.0,0.0,0.0,0.0,0.0,0.0,0.0,0.0,0.0,0.0,0.0,0.0,0.0,0.0,0.0,0.0,0.0,0.0,0.0,0.0,0.0,0.0,0.0,0.0,0.0,0.0,0.0,0.0,0.0,0.0,0.0,0.0,0.0,0.0,0.0,0.0,0.0,0.0,0.0,0.0,0.0,0.0,0.0,0.0,0.0,0.0,0.0,0.0,0.0,0.0,0.0,0.0,0.0,0.0,0.0,0.0,0.0,0.0,0.0,0.0,0.0,0.0,0.0,0.0,0.0,0.0,0.0,0.0,2.5877,2.5161,2.5119,2.4794,2.465,2.4765,2.5034,2.5481,2.596,2.6336,0.0,0.0,0.0,0.0,0.0,0.0,0.0,0.0,0.0,0.0,0.0,0.0,0.0,0.0,0.0,0.0,0.0,0.0,0.0,0.0,0.0,0.0,0.0,0.0,0.0,0.0,0.0,0.0,0.0,0.0,0.0,0.0,0.0,0.0,0.0,0.0,0.0,0.0,0.0,0.0,0.0,0.0,0.0,0.0,0.0,0.0,0.0,0.0,0.0,0.0,0.0,0.0,0.0,0.0,0.0,0.0,0.0,0.0,0.0,0.0,0.0,0.0,0.0,0.0,0.0,0.0,0.0,0.0,0.0,0.0,0.0,0.0,0.0,0.0,0.0,0.0,0.0,0.0,0.0,0.0,0.0,0.0,0.0,0.0,0.0,0.0,0.0,0.0,0.0,0.0,0.0,0.0,0.0,0.0,0.0,0.0,0.0,0.0,0.0,0.0,0.0,0.0,2.753,2.7041,2.6953,2.64,2.624,2.6692,2.624,2.6147,2.6616,2.6563,0.0,0.0,0.0,0.0,0.0,0.0,0.0,0.0,0.0,0.0,0.0,0.0,0.0,0.0,0.0,0.0,0.0,0.0,0.0,0.0,0.0,0.0,0.0,0.0,0.0,0.0,0.0,0.0,0.0,0.0,0.0,0.0,0.0,0.0,0.0,0.0,0.0,0.0,0.0,0.0,0.0,0.0,0.0,0.0,0.0,0.0,0.0,0.0,0.0,0.0,0.0,0.0,0.0,0.0,0.0,0.0,0.0,0.0,0.0,0.0,0.0,0.0,0.0,0.0,0.0,0.0,0.0,0.0,0.0,0.0,0.0,0.0,0.0,0.0,0.0,0.0,0.0,0.0,0.0,0.0,0.0,0.0,0.0,0.0,0.0,0.0,0.0,0.0,0.0,0.0,0.0,0.0,0.0,0.0,0.0,0.0,0.0,0.0,0.0,0.0,0.0,0.0,2.7122,2.6534,2.6481,2.5837,2.5467,2.5384,2.5877,2.6162,2.6122,0.0,0.0,0.0,0.0,0.0,0.0,0.0,0.0,0.0,0.0,0.0,0.0,0.0,0.0,0.0,0.0,0.0,0.0,0.0,0.0,0.0,0.0,0.0,0.0,0.0,0.0,0.0,0.0,0.0,0.0,0.0,0.0,0.0,0.0,0.0,0.0,0.0,0.0,0.0,0.0,0.0,0.0,0.0,0.0,0.0,0.0,0.0,0.0,0.0,0.0,0.0,0.0,0.0,0.0,0.0,0.0,0.0,0.0,0.0,0.0,0.0,0.0,0.0,0.0,0.0,0.0,0.0,0.0,0.0,0.0,0.0,0.0,0.0,0.0,0.0,0.0,0.0,0.0,0.0,0.0,0.0,0.0,0.0,0.0,0.0,0.0,0.0,0.0,0.0,0.0,0.0,0.0,0.0,0.0,0.0,0.0,0.0,0.0,0.0,0.0,0.0,0.0,2.8073,2.7342,2.6811,2.6811,2.639,2.5946,2.57,2.604,2.6215,2.6162,0.0,0.0,0.0,0.0,0.0,0.0,0.0,0.0,0.0,0.0,0.0,0.0,0.0,0.0,0.0,0.0,0.0,0.0,0.0,0.0,0.0,0.0,0.0,0.0,0.0,0.0,0.0,0.0,0.0,0.0,0.0,0.0,0.0,0.0,0.0,0.0,0.0,0.0,0.0,0.0,0.0,0.0,0.0,0.0,0.0,0.0,0.0,0.0,0.0,0.0,0.0,0.0,0.0,0.0,0.0,0.0,0.0,0.0,0.0,0.0,0.0,0.0,0.0,0.0,0.0,0.0,0.0,0.0,0.0,0.0,0.0,0.0,0.0,0.0,0.0,0.0,0.0,0.0,0.0,0.0,0.0,0.0,0.0,0.0,0.0,0.0,0.0,0.0,0.0,0.0,0.0,0.0,0.0,0.0,0.0,0.0,0.0,0.0,0.0,0.0,0.0,0.0,2.87,2.8541,2.8411,2.8411,2.8411,2.8348,2.8186,2.699,2.64,0.0,0.0,0.0,0.0,0.0,0.0,0.0,0.0,0.0,0.0,0.0,0.0,0.0,0.0,0.0,0.0,0.0,0.0,0.0,0.0,0.0,0.0,0.0,0.0,0.0,0.0,0.0,0.0,0.0,0.0,0.0,0.0,0.0,0.0,0.0,0.0,0.0,0.0,0.0,0.0,0.0,0.0,0.0,0.0,0.0,0.0,0.0,0.0,0.0,0.0,0.0,0.0,0.0,0.0,0.0,0.0,0.0,0.0,0.0,0.0,0.0,0.0,0.0,0.0,0.0,0.0,0.0,0.0,0.0,0.0,0.0,0.0,0.0,0.0,0.0,0.0,0.0,0.0,0.0,0.0,0.0,0.0,0.0,0.0,0.0,0.0,0.0,0.0,0.0,0.0,0.0,0.0,0.0,0.0,0.0,0.0,0.0,0.0,0.0,0.0,0.0,0.0,0.0,2.9514,2.874,2.8107,2.7989,2.766,2.7378,2.7159,2.7174,2.7122,2.7071,0.0,0.0,0.0,0.0,0.0,0.0,0.0,0.0,0.0,0.0,0.0,0.0,0.0,0.0,0.0,0.0,0.0,0.0,0.0,0.0,0.0,0.0,0.0,0.0,0.0,0.0,0.0,0.0,0.0,0.0,0.0,0.0,0.0,0.0,0.0,0.0,0.0,0.0,0.0,0.0,0.0,0.0,0.0,0.0,0.0,0.0,0.0,0.0,0.0,0.0,0.0,0.0,0.0,0.0,0.0,0.0,0.0,0.0,0.0,0.0,0.0,0.0,0.0,0.0,0.0,0.0,0.0,0.0,0.0,0.0,0.0,0.0,0.0,0.0,0.0,0.0,0.0,0.0,0.0,0.0,0.0,0.0,0.0,0.0,0.0,0.0,0.0,0.0,0.0,0.0,0.0,0.0,0.0,0.0,0.0,0.0,0.0,0.0,0.0,0.0,0.0,0.0,3.0527,2.9842,2.9234,2.9016,2.8733,2.8357,2.7846,2.7831,2.7763,2.756,0.0,0.0,0.0,0.0,0.0,0.0,0.0,0.0,0.0,0.0,0.0,0.0,0.0,0.0,0.0,0.0,0.0,0.0,0.0,0.0,0.0,0.0,0.0,0.0,0.0,0.0,0.0,0.0,0.0,0.0,0.0,0.0,0.0,0.0,0.0,0.0,0.0,0.0,0.0,0.0,0.0,0.0,0.0,0.0,0.0,0.0,0.0,0.0,0.0,0.0,0.0,0.0,0.0,0.0,0.0,0.0,0.0,0.0,0.0,0.0,0.0,0.0,0.0,0.0,0.0,0.0,0.0,0.0,0.0,0.0,0.0,0.0,0.0,0.0,0.0,0.0,0.0,0.0,0.0,0.0,0.0,0.0,0.0,0.0,0.0,0.0,0.0,0.0,0.0,0.0,0.0,0.0,0.0,0.0,0.0,0.0,0.0,0.0,0.0,0.0,0.0,0.0,3.1726,3.142,3.1094,3.0763,3.076,3.0425,2.9524,2.8837,2.8441,2.8415,0.0,0.0,0.0,0.0,0.0,0.0,0.0,0.0,0.0,0.0,0.0,0.0,0.0,0.0,0.0,0.0,0.0,0.0,0.0,0.0,0.0,0.0,0.0,0.0,0.0,0.0,0.0,0.0,0.0,0.0,0.0,0.0,0.0,0.0,0.0,0.0,0.0,0.0,0.0,0.0,0.0,0.0,0.0,0.0,0.0,0.0,0.0,0.0,0.0,0.0,0.0,0.0,0.0,0.0,0.0,0.0,0.0,0.0,0.0,0.0,3.1476,3.1033,0.0,0.0,0.0,0.0,0.0,0.0,0.0,0.0,0.0,0.0,0.0,0.0,0.0,0.0,0.0,0.0,0.0,0.0,0.0,0.0,0.0,0.0,0.0,0.0,0.0,0.0,0.0,0.0,0.0,0.0,0.0,0.0,0.0,0.0,0.0,0.0,0.0,0.0,0.0,0.0,3.266,3.1967,3.123,3.04,3.0629,3.0526,2.9772,2.9889,2.9965,2.9945,2.9709,0.0,0.0,0.0,0.0,0.0,0.0,0.0,0.0,0.0,0.0,0.0,0.0,0.0,0.0,0.0,0.0,0.0,0.0,0.0,0.0,0.0,0.0,0.0,0.0,0.0,0.0,0.0,0.0,0.0,0.0,0.0,0.0,0.0,0.0,0.0,0.0,0.0,0.0,0.0,0.0,0.0,0.0,0.0,0.0,0.0,0.0,0.0,0.0,0.0,0.0,0.0,0.0,0.0,0.0,0.0,0.0,0.0,0.0,0.0,3.2144,3.1787,0.0,0.0,0.0,0.0,0.0,0.0,0.0,0.0,0.0,0.0,0.0,0.0,0.0,0.0,0.0,0.0,0.0,0.0,0.0,0.0,0.0,0.0,0.0,0.0,0.0,0.0,0.0,0.0,0.0,0.0,0.0,0.0,0.0,0.0,0.0,0.0,0.0,0.0,0.0,0.0,3.3599,3.2837,3.2063,3.1404,3.1142,3.0817,3.0323,3.0366,3.0428,3.0428,3.0136,0.0,0.0,0.0,0.0,0.0,0.0,0.0,0.0,0.0,0.0,0.0,0.0,0.0,0.0,0.0,0.0,0.0,0.0,0.0,0.0,0.0,0.0,0.0,0.0,0.0,0.0,0.0,0.0,0.0,0.0,0.0,0.0,0.0,0.0,0.0,0.0,0.0,0.0,0.0,0.0,0.0,0.0,0.0,0.0,0.0,0.0,0.0,0.0,0.0,0.0,0.0,0.0,0.0,3.1842,3.2091,3.2386,3.2386,3.2606,3.2884,3.2555,3.2283,3.2144,3.2109,0.0,0.0,0.0,0.0,0.0,0.0,0.0,0.0,0.0,0.0,0.0,0.0,0.0,0.0,0.0,0.0,0.0,0.0,0.0,0.0,0.0,0.0,3.1312,3.1213,3.1331,3.1376,3.1257,0.0,0.0,0.0,0.0,0.0,0.0,0.0,0.0,0.0,0.0,0.0,3.417,3.3519,3.2886,3.2351,3.1625,3.1108,3.0892,3.066,3.0643,3.0766,3.038,3.0266,0.0,0.0,0.0,0.0,0.0,0.0,0.0,0.0,0.0,0.0,0.0,0.0,0.0,0.0,0.0,0.0,0.0,0.0,0.0,0.0,0.0,0.0,0.0,0.0,0.0,0.0,0.0,0.0,0.0,0.0,0.0,0.0,2.9556,2.9641,0.0,0.0,0.0,0.0,0.0,0.0,0.0,0.0,0.0,0.0,0.0,0.0,0.0,3.1334,3.1896,3.1932,3.2214,3.2719,3.2719,3.277,3.2802,3.2802,3.2852,3.2884,3.2834,0.0,3.2266,3.2162,0.0,0.0,0.0,0.0,0.0,0.0,0.0,0.0,0.0,0.0,0.0,0.0,0.0,0.0,0.0,0.0,0.0,0.0,0.0,0.0,0.0,0.0,3.1295,3.1295,3.1726,3.2138,3.2138,3.273,3.3432,3.4028,3.4667,3.5128,0.0,0.0,0.0,0.0,0.0,0.0,3.3581,3.3258,3.2611,3.1255,3.115,3.1142,3.1061,3.1218,3.1505,3.209,3.2081,3.1805,3.1274,3.1205,0.0,0.0,0.0,0.0,0.0,0.0,0.0,0.0,0.0,0.0,0.0,0.0,0.0,0.0,0.0,0.0,0.0,0.0,0.0,0.0,0.0,0.0,0.0,0.0,0.0,0.0,0.0,0.0,0.0,3.0064,3.0192,3.0031,3.0133,3.0005,0.0,0.0,0.0,0.0,0.0,0.0,0.0,0.0,0.0,3.0942,3.147,3.1877,3.2162,3.2266,3.2521,3.2916,3.3348,3.3496,3.343,3.3957,3.4052,3.3846,3.3967,3.3634,3.295,3.2664,3.2385,3.2127,0.0,0.0,0.0,0.0,3.202,3.1932,3.2056,3.2073,3.2002,3.1948,0.0,0.0,0.0,0.0,0.0,0.0,0.0,3.1538,3.1517,3.1483,3.1568,3.1913,3.219,3.2625,3.338,3.3778,3.4117,3.4378,3.4891,3.5291,3.5198,3.5041,0.0,0.0,0.0,3.4331,3.3498,3.2947,3.2171,3.104,3.0509,3.0482,3.1031,3.1107,3.1433,3.2321,3.2176,3.1982,3.1967,3.1677,3.1719,0.0,0.0,0.0,0.0,0.0,0.0,0.0,0.0,0.0,0.0,0.0,0.0,0.0,0.0,0.0,0.0,0.0,0.0,0.0,0.0,0.0,0.0,0.0,0.0,0.0,0.0,0.0,0.0,3.0567,3.0747,3.051,3.0747,3.0666,0.0,0.0,0.0,0.0,0.0,0.0,3.0925,3.1317,3.1572,3.1567,3.2135,3.2564,3.2791,3.2984,3.3122,3.3341,3.393,3.4145,3.4023,3.4712,3.4889,3.4616,3.4745,3.4428,3.3757,3.3243,3.2849,3.2521,3.2521,3.2454,3.2386,3.2386,3.2386,3.2386,3.2386,3.2352,3.2283,3.2249,3.2144,3.2001,3.1912,0.0,0.0,0.0,0.0,3.1909,3.1867,3.2025,3.2278,3.2719,3.2927,3.3328,3.4312,3.4641,3.4776,3.4776,3.5071,3.5291,3.5291,3.5088,0.0,3.4899,3.4638,3.41,3.3236,3.2439,3.1583,3.0733,2.9942,2.9938,3.1033,3.0927,3.128,3.2305,3.2064,3.2064,3.2398,3.2135,3.2318,3.3005,0.0,0.0,0.0,0.0,0.0,0.0,0.0,0.0,0.0,0.0,0.0,0.0,0.0,0.0,0.0,0.0,0.0,0.0,0.0,0.0,0.0,0.0,0.0,0.0,0.0,0.0,0.0,0.0,0.0,3.1504,3.1329,0.0,0.0,0.0,0.0,3.1218,3.1078,3.1038,3.1257,3.1406,3.1769,3.2315,3.2681,3.3294,3.4178,3.4196,3.4327,3.4493,3.4582,3.4563,3.4563,3.4598,3.4616,3.4616,3.4616,3.4598,3.4493,3.3775,3.3003,3.2318,3.2318,3.242,3.2588,3.2588,3.2588,3.2588,3.2588,3.2454,3.2283,3.2144,3.1965,3.18,3.18,3.18,0.0,0.0,3.23,3.2852,3.2852,3.3309,3.3757,3.3652,3.4133,3.455,3.4515,3.5064,3.5554,3.5554,3.5424,3.5291,3.5291,0.0,3.4899,3.4899,3.4192,3.336,3.2561,3.1704,3.0851,3.0048,2.9697,2.9938,3.1033,3.0927,3.128,3.2305,3.2398,3.2398,3.2398,3.2648,3.3005,3.3256,3.3555,0.0,0.0,0.0,0.0,0.0,0.0,0.0,0.0,0.0,0.0,0.0,0.0,0.0,0.0,0.0,0.0,0.0,0.0,0.0,0.0,0.0,0.0,0.0,0.0,0.0,0.0,0.0,0.0,3.1709,3.1634,0.0,3.1334,3.1201,3.1365,3.1958,3.193,3.223,3.3076,3.3149,3.3269,3.3488,3.3623,3.3883,3.4318,3.4318,3.4394,3.4616,3.5124,3.5294,3.5213,3.5857,3.599,3.5694,3.5889,3.5571,3.4966,3.4688,3.4269,3.3774,3.3774,3.381,3.3899,3.3899,3.3899,3.3899,3.3899,3.3846,3.3738,3.3591,3.348,3.3405,3.3304,3.3266,3.3266,3.3266,3.3455,3.3662,3.3662,3.379,3.3979,3.4394,3.4593,3.4788,3.5115,3.5419,3.5577,3.5566,3.5429,3.5291,3.5291,3.5088,3.4899,3.4899,3.4223,3.3551,3.3118,3.2387,3.1577,3.0619,3.0448,3.0698,3.1373,3.1191,3.1471,3.2625,3.2523,3.2398,3.2398,3.2718,3.3005,3.3309,3.3555,3.3848,0.0,0.0,0.0,0.0,0.0,0.0,0.0,0.0,0.0,0.0,0.0,0.0,0.0,0.0,0.0,0.0,0.0,0.0,0.0,0.0,0.0,0.0,0.0,0.0,0.0,3.1542,3.1617,3.1709,3.197,3.2087,3.188,3.2081,3.2439,3.2957,3.2952,3.3311,3.4059,3.4093,3.4197,3.4456,3.4697,3.5019,3.5382,3.5625,3.5804,3.5901,3.6406,3.6585,3.6454,3.7106,3.7247,3.693,3.7137,3.6818,3.6208,3.6208,3.6067,3.57,3.4791,3.4466,3.4486,3.4486,3.4524,3.4616,3.4616,3.4579,3.4486,3.4356,3.4279,3.4237,3.4116,3.4093,3.4093,3.4093,3.4266,3.4398,3.4398,3.4507,3.4709,3.5096,3.5129,3.5179,3.552,3.5577,3.5549,3.5492,3.54,3.5291,3.5245,3.5041,3.4899,3.4899,3.4223,3.365,3.3399,3.2763,3.205,3.1348,3.1207,3.1309,3.1771,3.1318,3.1471,3.268,3.2307,3.2151,3.2382,3.2812,3.3096,3.3309,3.371,3.405,3.4349,0.0,0.0,0.0,0.0,0.0,0.0,0.0,0.0,0.0,0.0,0.0,0.0,0.0,0.0,0.0,0.0,0.0,0.0,0.0,0.0,0.0,0.0,0.0,3.1295,3.1483,3.1614,3.1614,3.2397,3.2938,3.2938,3.3628,3.4093,3.4111,3.4145,3.4162,3.4197,3.4214,3.4559,3.5283,3.6008,3.6732,3.7508,3.8232,3.8504,3.8368,3.8368,3.8322,3.8213,3.8213,3.8213,3.8213,3.8213,3.8213,3.8213,3.8213,3.8213,3.7923,3.5287,3.4298,3.4384,3.4384,3.4498,3.4649,3.4649,3.4519,3.4332,3.4332,3.4268,3.4162,3.4162,3.4162,3.4162,3.4162,3.4582,3.5032,3.5032,3.5497,3.5975,3.5817,3.5817,3.5773,3.5622,3.5566,3.5492,3.5492,3.54,3.5245,3.5105,3.4994,3.4899,3.4899,3.4176,0.0,3.3432,3.2749,3.2185,3.2044,3.1806,3.1787,3.2187,3.1365,3.1296,3.2376,3.1782,3.1705,3.2367,3.2958,3.3309,3.3293,3.3949,3.4349,3.4497,0.0,0.0,0.0,0.0,0.0,0.0,0.0,0.0,0.0,0.0,0.0,0.0,0.0,0.0,0.0,0.0,0.0,0.0,0.0,0.0,0.0,3.1334,3.1334,3.1504,3.1983,3.2342,3.2342,3.2992,3.3477,3.3477,3.3682,3.4042,3.4665,3.5172,3.572,3.6251,3.6781,3.7175,3.7381,3.7569,3.7775,3.7997,3.8203,3.8305,3.8259,3.8259,3.8213,3.8213,3.8213,3.8213,3.8213,3.8213,3.8213,3.8213,3.8213,3.8213,3.8128,3.7353,3.6791,3.6337,3.6337,3.6036,3.5597,3.5597,3.5597,3.5555,3.5555,3.553,3.5505,3.5505,3.5505,3.5505,3.5505,3.56,3.5754,3.5754,3.5778,3.5861,3.5817,3.5728,3.5622,3.5566,3.5537,3.5446,3.5245,3.5198,3.5152,3.5105,3.4994,3.4851,3.4756,3.4129,3.3691,3.4023,3.3372,3.2901,3.2789,3.2741,3.261,3.2522,3.206,3.2087,3.2711,3.2353,3.2198,3.2382,3.2958,3.3503,3.3848,3.4151,3.4349,0.0,0.0,0.0,0.0,0.0,0.0,0.0,0.0,0.0,0.0,0.0,0.0,0.0,0.0,0.0,0.0,0.0,0.0,0.0,0.0,0.0,0.0,3.1584,3.1788,3.1961,3.2315,3.2667,3.2974,3.3714,3.4199,3.4199,3.4763,3.5326,3.5788,3.6505,3.712,3.7547,3.7974,3.8213,3.8213,3.8538,3.8692,3.8692,3.9016,3.9122,3.9075,3.9075,3.9075,3.9027,3.9027,3.9027,3.9027,3.9027,3.9027,3.9027,3.9027,3.9027,3.8942,0.0,0.0,0.0,0.0,3.6625,3.6019,3.6019,3.6019,3.6019,3.6019,3.6019,3.6019,3.6019,3.6019,3.6019,3.6019,3.5975,3.5905,3.5905,3.5773,3.5656,3.5656,3.5549,3.5458,3.5429,3.5383,3.5291,3.5135,3.5041,0.0,3.4947,3.4851,3.4804,3.4691,3.4233,3.3973,3.4235,3.3876,3.3583,3.3501,3.3319,3.3102,3.2934,3.2253,0.0,0.0,0.0,3.2214,3.278,3.3134,0.0,0.0,0.0,3.4349,3.4497,3.4691,0.0,0.0,3.5291,3.5383,0.0,0.0,0.0,0.0,0.0,0.0,0.0,0.0,0.0,0.0,0.0,0.0,0.0,0.0,0.0,0.0,3.2055,3.2483,3.27,3.2717,3.2995,3.3641,3.4542,3.5138,3.5138,3.6376,3.7194,3.7194,3.7877,3.8303,3.8303,3.8372,0.0,0.0,0.0,3.9416,3.9416,4.0095,4.0337,4.0238,4.0238,4.0188,4.007,4.007,4.007,4.007,4.007,4.007,4.007,4.007,4.007,3.9935,3.8755,3.8303,3.8201,3.7382,3.6648,3.6095,3.601,0.0,0.0,3.5932,3.5932,3.5932,3.5932,3.5932,3.5932,3.5949,3.5861,3.5773,3.5728,3.5611,3.5492,3.5492,3.54,3.5308,3.5291,3.5182,3.5105,3.5088,3.4947,3.4851,3.4691,3.4691,3.4691,3.4643,3.4448,3.43,3.43,3.4151,3.4101,3.4101,3.3642,0.0,3.3309,3.2289,3.1859,3.2351,3.1898,3.2104,3.3277,3.3361,3.3607,3.4101,3.4201,3.4382,3.4611,3.4726,3.4952,3.5291,3.5282,3.5388,0.0,0.0,0.0,0.0,0.0,0.0,0.0,0.0,0.0,0.0,0.0,0.0,0.0,0.0,0.0,3.2281,3.2795,3.3389,3.4041,3.4109,3.4176,3.4312,3.5593,3.6441,3.6441,3.7254,3.7733,3.7733,3.8458,3.8865,3.8865,3.9294,3.9564,3.9564,3.9598,3.9614,3.9614,3.98,3.9833,3.9833,3.9833,0.0,3.9781,3.9781,3.9781,3.9781,3.9781,3.9781,3.9781,3.9781,3.9781,3.9749,3.9106,3.8865,3.8696,3.7356,3.678,3.6559,3.5887,3.5667,3.5667,3.5667,3.5667,3.5667,3.5667,3.5667,0.0,3.5611,3.5583,3.552,3.5429,3.5383,3.5337,3.5337,3.5291,3.5291,3.5152,3.5105,3.5041,3.4947,3.4851,3.4739,3.4691,3.4691,3.4643,3.4399,3.4349,3.425,3.4151,3.4101,3.4101,3.4101,3.4,3.3745,3.3346,3.3061,3.2763,3.2437,3.2524,3.2795,3.3293,3.3503,3.3745,3.4101,3.4151,3.4493,3.523,3.5381,3.5793,3.6555,3.5607,3.5609,0.0,0.0,0.0,0.0,0.0,0.0,0.0,0.0,0.0,0.0,0.0,3.1331,3.1726,0.0,3.2449,3.2897,3.3516,3.4083,3.4438,3.5148,3.5639,3.5639,3.6315,3.6924,3.7313,3.7976,3.8366,3.8366,3.8975,3.9345,3.9345,3.9648,3.9781,3.9781,3.9729,3.9677,3.9677,3.9677,3.9677,3.9677,3.9677,3.9677,3.9677,3.9677,3.9677,3.9677,3.9677,3.9677,3.9677,3.9677,3.9677,3.9696,3.9429,3.911,3.8706,3.7965,3.7225,3.6535,3.6148,3.5778,3.5458,3.5458,3.5458,3.5458,3.5458,3.5458,3.5458,3.5383,3.54,3.5383,3.5291,3.5245,3.5198,3.5198,3.5152,3.5088,3.4994,3.4994,3.4994,3.4899,3.4787,3.4691,3.4594,3.4546,3.4448,3.43,3.425,3.4201,3.4101,3.4101,3.4101,3.4101,3.3848,3.3607,3.3309,3.3011,3.2742,3.2398,3.2578,3.2866,3.3293,3.345,3.371,3.4101,3.4457,3.4915,3.5493,3.5955,3.6434,3.6984,3.639,3.6404,0.0,0.0,0.0,0.0,0.0,0.0,0.0,3.1309,3.141,3.141,3.1529,3.1799,3.2391,3.2611,3.2916,3.3525,3.4235,3.4732,3.4868,3.5949,3.6844,3.7131,3.7165,3.7401,3.7961,3.8588,3.8925,3.879,3.9343,3.9661,3.9487,3.9487,3.9504,3.9677,3.9504,3.9504,3.9625,3.9625,3.9625,3.9625,3.9625,3.9625,3.9625,3.9625,3.9625,3.9625,3.9625,3.9625,3.9625,3.9625,3.9625,3.9625,3.9625,3.9274,3.8739,3.8656,3.7769,3.6597,3.6463,3.5927,3.5291,3.5291,3.5291,3.5291,3.5291,3.5291,3.5291,3.5245,3.5245,3.5245,3.5245,3.5152,3.5041,3.5041,3.4994,3.4899,3.4899,3.4899,3.4899,3.4851,3.4739,3.4594,3.4497,3.4349,3.425,3.425,3.4151,3.4101,3.4101,3.4101,3.4101,3.4101,3.3658,3.3361,3.3256,3.2742,3.2398,3.2398,3.2508,3.2796,3.3293,3.3398,3.3658,3.4101,3.4813,3.5354,3.5756,3.6476,3.7058,3.7413,3.7465,3.7501,3.041,3.0733,3.0975,3.1015,3.1112,3.119,0.0,3.1698,3.2195,3.2195,3.2696,3.3186,3.3271,3.3812,3.4269,3.4353,3.4941,3.5576,3.6198,3.6374,3.6947,3.8254,3.8505,3.8555,3.8522,3.9193,3.9354,3.8755,3.9315,3.9435,3.8854,3.8723,3.8936,3.9484,3.8827,3.8756,3.9325,3.9325,3.9325,3.9325,3.9325,3.9325,3.9325,3.9325,3.9325,3.9325,3.9325,3.9325,3.9325,3.9325,3.9325,3.9325,3.9325,3.9276,3.9179,3.8738,3.807,3.7267,3.663,3.5927,3.5291,3.5291,3.5291,3.5291,3.5291,3.5291,3.5291,3.5152,3.5105,3.5088,3.4994,3.4947,3.4899,3.4899,3.4899,3.4899,3.4899,3.4899,3.4835,3.4756,3.4594,3.4497,3.4349,3.4201,3.4101,3.4101,3.4101,3.4101,3.4101,3.4101,3.4101,3.4101,3.3848,3.345,3.3005,3.2578,3.2398,3.2398,3.2904,3.324,3.3309,3.3745,3.405,3.4101,3.4813,3.5561,3.6226,3.6999,3.7812,3.8614,3.8722,3.8606,3.0401,3.0609,3.0733,3.0895,3.1328,3.1688,3.1688,3.2202,3.2706,3.2706,3.2959,3.3311,3.3782,3.4118,3.4454,3.4875,3.5551,3.6092,3.6393,3.7133,3.787,3.8421,3.8923,3.9191,3.9225,3.9458,3.9468,3.9169,3.8974,3.8739,3.8486,3.8351,3.8383,3.8694,3.8606,3.893,3.961,3.9237,3.9237,3.9666,3.9183,3.904,3.904,3.904,3.904,3.904,3.904,3.904,3.904,3.904,3.904,3.904,3.904,3.904,3.9007,3.903,3.8517,3.7785,3.7053,3.6305,3.5623,3.5191,3.5041,3.5041,3.5041,3.5041,3.5058,3.4994,3.4994,3.4994,3.4899,3.4899,3.4899,3.4804,3.4787,3.4739,3.4691,3.4643,3.4643,3.4594,3.4497,3.4349,3.43,3.4201,3.4101,3.4101,3.4101,3.4101,3.4101,3.4101,3.4,3.3658,3.3555,3.324,3.2648,3.2453,3.2398,3.2398,3.2617,3.2904,3.3309,3.3503,3.3797,3.4101,3.525,3.6032,3.6446,3.7552,3.8345,3.8805,3.886,3.8859,3.0274,3.0426,3.0618,3.0983,3.1533,3.2043,3.2227,3.283,3.3322,3.3322,3.3472,3.3835,3.4421,3.4688,3.499,3.5525,3.6181,3.6733,3.6933,3.7836,3.852,3.8617,3.9116,3.9484,3.9573,3.9432,3.9202,3.8843,3.8606,3.8294,3.7937,3.7969,3.8042,3.8026,3.8521,3.9105,3.9642,3.9462,3.9575,3.9886,3.9362,3.9001,3.8805,3.8805,3.8805,3.8805,3.8805,3.8805,3.8805,3.8805,3.8805,3.8805,3.8805,3.8805,3.8805,3.9094,3.8702,3.8008,3.7548,3.6737,3.586,3.5331,3.5017,3.4851,3.4804,3.4804,3.4851,3.4804,3.4804,3.4851,3.4804,3.4804,3.4756,3.4643,3.4643,3.4594,3.4497,3.4497,3.4497,3.4448,3.4349,3.43,3.425,3.4151,3.4101,3.4101,3.4101,3.4101,3.4101,3.405,3.3797,3.3256,3.3203,3.2973,3.2453,3.2398,3.2398,3.2398,3.2563,3.285,3.3293,3.345,3.379,3.4392,3.5655,3.6437,3.6722,3.7958,3.8714,3.9061,3.9061,3.9214,2.9973,3.0274,3.0692,3.1421,3.1791,3.216,3.2804,3.3573,3.4141,3.4141,3.4739,3.5241,3.5258,3.586,3.6346,3.6379,3.6852,3.7536,3.8219,3.8282,3.8477,3.9209,3.9309,3.9325,3.9325,3.9148,3.8495,3.7235,3.8197,3.827,3.7011,3.7578,3.787,3.7822,3.8494,3.8921,3.8937,4.0284,4.0607,3.9902,3.987,3.9493,3.8805,3.8805,3.8805,3.8805,3.8805,3.8805,3.8805,3.8805,3.8805,3.8805,3.8805,3.8805,3.8805,3.8805,3.8346,3.7761,3.8058,3.7116,3.5795,3.5762,3.5284,3.4691,3.4546,3.4594,3.4691,3.4546,3.4594,3.4707,3.4546,3.4497,3.4497,3.4497,3.4497,3.4497,3.4497,3.4497,3.4448,3.4349,3.43,3.425,3.4151,3.4101,3.4101,3.4101,3.4101,3.4101,3.4101,3.3848,3.3503,3.2951,3.2897,3.2773,3.2453,3.2398,3.2398,3.2398,3.2958,3.3293,3.3309,3.3797,3.4424,3.5137,3.5914,3.6627,3.729,3.8035,3.8821,3.9675,3.9675,4.0107,2.9377,3.0105,3.0975,3.1309,3.2171,3.2991,3.3205,3.3848,3.4393,3.4393,3.4686,3.4899,3.4899,3.5608,3.6155,3.6155,3.7153,3.7982,3.8214,3.8662,3.899,3.9061,3.9094,3.8898,3.8367,3.8367,3.8238,3.7764,3.7605,3.7191,3.6275,3.6784,3.7291,3.7714,3.8302,3.9313,4.07,4.0686,4.0804,4.1032,4.0089,3.9503,3.9259,3.8772,3.8544,3.8544,3.8544,3.8544,3.8544,3.8544,3.8544,3.8544,3.8544,3.8544,3.856,3.86,3.8453,3.8121,3.7958,3.7518,3.6891,3.5956,3.5481,3.5185,3.4644,3.4546,3.4546,3.4497,3.4546,3.4546,3.4497,3.4497,3.4497,3.4399,3.4349,3.4349,3.425,3.425,3.4201,3.4201,3.4151,3.4151,3.4101,3.4505,3.4991,3.5493,3.5137,3.4762,3.4555,3.4867,3.4886,3.4279,3.4238,3.411,3.3825,3.3767,3.3767,3.3767,3.4012,3.4182,3.4319,3.5205,3.5831,3.622,3.7665,3.8521,3.8748,3.946,3.9914,4.0215,4.0215,4.0463,2.9467,3.025,3.1115,3.1818,3.2681,3.3465,3.3727,3.4153,3.4497,3.4497,3.4546,3.4643,3.4643,3.5515,3.624,3.624,3.7461,3.8418,3.8418,3.8813,3.9094,3.8914,3.8733,3.8479,3.8181,3.7822,3.7573,3.7573,3.7488,3.7027,3.615,3.6817,3.739,3.7653,3.867,3.9879,4.1225,4.097,4.0954,4.1179,4.0264,3.9719,3.946,3.9007,3.8651,3.8391,3.8391,3.8391,3.8391,3.8391,3.8391,3.8391,3.8391,3.8391,3.8391,3.8504,3.8448,3.8383,3.8155,3.7883,3.742,3.6313,3.5756,3.5397,3.4627,3.4399,3.4399,3.4349,3.4399,3.4399,3.4349,3.4349,3.4349,3.425,3.425,3.4201,3.4101,3.4101,3.4101,3.4101,3.4311,3.4489,3.4489,3.5037,3.5605,3.622,3.614,3.5764,3.5036,3.5244,3.5307,3.4794,3.462,3.4503,3.4475,3.4342,3.4283,3.4475,3.4809,3.505,3.5268,3.62,3.6965,3.7566,3.8669,3.9457,3.9849,4.0286,4.0626,4.0869,4.0869,4.1075,3.0038,3.0574,3.1128,3.2707,3.3289,3.3597,3.4284,3.4448,3.4497,3.4497,3.4497,3.4497,3.4497,3.5693,3.6692,3.6692,3.7871,3.8733,3.8805,3.875,3.875,3.8733,3.8197,3.8067,3.8623,3.7456,3.6676,3.6676,3.7695,3.7727,3.643,3.753,3.7997,3.7554,3.9452,4.0481,4.0626,4.1128,4.1144,4.0513,4.0505,4.0146,3.9531,3.9541,3.9136,3.84,3.84,3.844,3.8391,3.8351,3.8391,3.8391,3.8391,3.8391,3.8391,3.8391,3.8391,3.8448,3.8694,3.8253,3.7422,3.6759,3.6059,3.5307,3.4443,3.4249,3.4299,3.4167,3.4201,3.425,3.4151,3.4101,3.4101,3.4101,3.4101,3.4101,3.4101,3.4133,3.4165,3.4165,3.4781,3.5315,3.5328,3.5696,3.6095,3.6395,3.7074,3.701,3.5726,3.5269,3.5012,3.4734,3.4227,3.4107,3.4616,3.4167,3.4107,3.4616,3.5499,3.602,3.602,3.6958,3.7935,3.8962,3.901,3.9542,4.061,4.061,4.0966,4.163,4.163,4.1986,2.8463,2.979,3.1193,3.1762,3.2803,3.3673,3.3866,3.405,3.4201,3.4201,3.43,3.4349,3.4349,3.5642,3.6692,3.6692,3.7459,3.8238,3.8733,3.8367,3.801,3.7895,3.823,3.8042,3.7115,3.7562,3.7695,3.7207,3.7011,3.6552,3.5733,3.643,3.7304,3.8152,3.918,3.9998,4.0442,4.0446,4.0597,4.0876,4.0141,4.0007,4.026,4.0014,3.9313,3.8448,3.8702,3.8531,3.8017,3.777,3.7976,3.8391,3.8148,3.8205,3.8391,3.8391,3.8391,3.8391,3.8504,3.839,3.8059,3.7345,3.6972,3.6599,3.5283,3.4961,3.4848,3.4246,3.4151,3.4151,3.4101,3.4101,3.4101,3.4101,3.4101,3.4101,3.4101,3.4522,3.491,3.491,3.5701,3.667,3.7435,3.7855,3.8264,3.8634,3.8809,3.8542,3.7433,3.7639,3.7841,3.754,3.693,3.6652,3.6784,3.6652,3.6652,3.6784,3.7487,3.7867,3.7867,3.8838,3.9596,4.0135,4.0896,4.1516,4.2083,4.2083,4.218,4.2359,4.2359,4.2456,2.8636,2.9946,3.1228,3.1613,3.2453,3.3208,3.3208,3.323,3.3266,3.3491,3.3507,3.3559,3.3748,3.5094,3.6238,3.6482,3.7381,3.8157,3.86,3.8042,3.7738,3.7927,3.7754,3.7562,3.7326,3.746,3.7468,3.7404,3.7281,3.6921,3.632,3.6903,3.7614,3.8387,3.9367,4.0047,4.0416,4.0124,4.0054,4.0224,3.9879,3.991,4.0271,3.9991,3.9566,3.9118,3.9317,3.9097,3.8557,3.8248,3.8131,3.8148,3.7828,3.7786,3.796,3.796,3.796,3.796,3.796,3.796,3.7905,3.7439,3.7323,3.7112,3.6011,3.5671,3.559,3.5185,3.5072,3.5072,3.5072,3.5072,3.5072,3.5072,3.4952,3.4832,3.4832,3.5048,3.546,3.603,3.6669,3.7424,3.845,3.8794,3.9093,3.9435,3.9237,3.8994,3.8749,3.8534,3.8198,3.7729,3.7237,3.7099,3.7579,3.7375,3.7443,3.7946,3.857,3.8954,3.8954,3.9818,4.0442,4.0808,4.1383,4.1851,4.2174,4.2302,4.2365,4.2365,4.2508,4.2634,2.9364,3.0349,3.1071,3.1554,3.2074,3.2422,3.2422,3.2226,3.221,3.2625,3.2532,3.2532,3.3093,3.4288,3.5506,3.6292,3.7397,3.8197,3.8521,3.7908,3.7594,3.8221,3.7266,3.6951,3.8017,3.7165,3.6769,3.732,3.7934,3.798,3.7449,3.7886,3.8266,3.8467,3.9501,4.0069,4.0209,3.9703,3.9361,3.9175,3.9505,3.971,3.9818,3.9838,3.9794,3.9848,3.9927,3.9774,3.943,3.9074,3.8567,3.7956,3.7619,3.7436,3.7417,3.7417,3.7417,3.7417,3.7417,3.7417,3.7381,3.7311,3.7342,3.7268,3.6589,3.6395,3.6416,3.6265,3.6249,3.6233,3.6196,3.6196,3.6196,3.6196,3.5947,3.5751,3.5751,3.5554,3.5906,3.7329,3.7613,3.7932,3.9043,3.9212,3.9349,3.9622,3.9207,3.9128,3.9606,3.8587,3.756,3.7057,3.659,3.6748,3.7713,3.7421,3.7644,3.857,3.9256,3.9647,3.9647,4.0216,4.0662,4.107,4.1138,4.1256,4.1588,4.1916,4.2045,4.2045,4.2302,4.2445,2.8026,2.9159,3.026,3.0498,3.1102,3.1607,3.1607,3.1762,3.1931,3.2059,3.2099,3.2321,3.2933,3.384,3.5077,3.6841,3.6846,3.7275,3.9062,3.8227,3.7417,3.7535,3.7342,3.7087,3.6768,3.7033,3.7149,3.7097,3.7699,3.7808,3.73,3.739,3.793,3.8894,3.8399,3.8383,3.9015,3.8159,3.7947,3.8412,3.8767,3.9,3.9041,4.0309,4.0142,3.8872,3.9738,3.9689,3.9078,3.8712,3.8482,3.827,3.798,3.7681,3.7417,3.7417,3.7417,3.7417,3.7417,3.7417,3.7401,3.7393,3.7594,3.7639,3.6918,3.6892,3.6961,3.6091,3.5876,3.5822,3.5546,3.549,3.549,3.549,3.5435,3.5379,3.5379,3.5837,3.6699,3.8404,3.8716,3.9025,4.0075,4.051,4.0608,4.0339,4.0545,4.0439,3.9809,3.9026,3.8588,3.8443,3.837,3.837,3.8588,3.8964,3.9264,3.9476,4.0017,4.0355,4.0355,4.0462,4.0662,4.107,4.1138,4.1256,4.1588,4.1654,4.172,4.172,4.172,4.1785,2.8025,2.9131,3.0116,2.995,3.0358,3.0822,3.0822,0.0,0.0,3.1175,3.1175,3.1276,3.1946,3.2997,3.443,3.6469,3.6832,3.7377,3.8754,3.8039,3.7417,3.7417,3.7087,3.689,3.6906,3.6776,3.6788,3.697,3.7164,3.739,3.7535,3.7519,3.8031,3.9305,3.8397,3.8472,3.9606,3.862,3.8337,3.8855,3.8782,3.887,3.8943,3.9636,3.9526,3.8998,3.9504,3.9533,3.9284,3.9,3.8797,3.8654,3.7997,3.7592,3.7374,3.7093,3.6952,3.6952,3.6952,3.6952,3.6952,3.6952,3.7238,3.7573,3.7239,3.7202,3.7269,3.6762,3.661,3.661,3.6437,3.6379,3.6379,3.6379,3.6279,3.6119,3.5926,3.6191,3.6814,3.7963,3.8521,3.9013,3.9831,4.043,4.073,4.0524,4.0455,4.0246,3.9753,3.9162,3.8782,3.8782,3.8486,3.856,3.9235,3.9235,3.9451,4.0106,4.0385,4.0524,4.0524,4.0524,4.0593,4.0799,4.0799,4.0867,4.1055,4.1256,4.1323,4.1323,4.1522,4.1588,2.7996,2.9011,2.9836,2.9637,2.9898,3.0144,3.0144,2.996,2.9884,3.0326,3.0219,3.0309,3.1117,3.2258,3.3758,0.0,3.6896,3.7461,3.8355,3.7883,3.7335,3.7178,3.6585,3.6322,3.6845,3.6381,3.6207,3.6652,3.672,3.7003,3.7624,3.7627,3.8037,3.9045,3.8337,3.8546,3.9748,3.8841,3.8634,3.9075,3.8855,3.887,3.9031,3.9147,3.9277,3.9406,3.9406,3.9516,3.9766,3.9405,3.9241,3.9054,3.8268,3.7846,3.7631,3.6953,3.6707,3.6676,3.6538,3.6492,3.6492,3.6492,3.6846,3.7314,3.7314,3.7358,3.7417,3.7298,3.7314,3.7314,3.7254,3.7178,3.7178,3.7178,3.7029,3.6816,3.6554,3.6492,3.6692,3.7369,3.8046,3.8723,3.94,4.0078,4.0524,4.0524,4.0036,3.9681,3.9681,3.9162,3.8782,3.8782,3.8486,3.8634,3.9466,3.9307,3.9508,4.0246,4.0455,4.0524,4.0524,4.0524,4.0524,4.0524,4.0524,4.0524,4.0524,4.0799,4.1003,4.1003,4.1256,4.139,2.7156,2.7913,2.8566,2.94,2.9602,2.9665,2.9665,0.0,2.9602,2.9665,2.9761,3.0225,3.1416,3.2032,0.0,0.0,3.6706,3.6861,3.8203,3.7818,3.717,3.6585,3.574,3.524,3.5305,3.5583,3.5639,3.5579,3.6462,3.7141,3.7601,3.7429,3.7366,3.7519,3.7211,3.7211,3.7352,3.7211,3.7429,3.8037,3.856,3.8782,3.8855,3.9879,4.0091,3.9681,3.9681,3.992,4.0363,3.9874,3.9549,3.9416,3.9354,3.8954,3.8338,3.7661,3.7415,3.7323,3.6707,3.6492,3.6492,3.6492,3.6739,3.706,3.706,3.721,3.7358,3.7121,3.706,3.6999,3.6677,3.66,3.66,3.66,3.6554,3.6554,3.6492,3.6492,3.6692,3.7369,3.8046,3.8723,3.94,4.0078,4.0524,4.0524,4.0036,3.9681,3.9681,3.9162,3.8782,3.8782,3.9235,3.9379,3.8943,3.9809,4.0176,3.9824,4.0246,4.0524,4.0524,4.0524,4.0524,4.0524,4.0524,4.0524,4.0524,4.0524,4.0524,4.0524,4.0593,4.0593,2.6349,2.7033,2.782,2.8552,2.8918,2.9153,2.9532,0.0,2.9602,2.9602,2.9665,2.9959,3.096,3.1565,3.2902,3.5881,3.6148,3.6349,3.7316,3.7228,3.6691,3.5703,3.5305,3.5109,3.5109,3.5099,3.5337,3.5794,3.6578,3.707,3.7226,3.7148,3.7303,3.7672,3.7582,3.7734,3.8113,3.8113,3.8188,3.8412,3.8708,3.8782,3.8782,3.9292,3.9364,3.9162,3.9162,3.9451,3.9965,3.9753,3.9884,4.0078,3.9677,3.9354,3.9031,3.8354,3.8108,3.8015,3.7338,3.7092,3.703,3.6615,3.6616,3.6693,3.6693,3.6785,3.6846,3.6739,3.6693,3.6693,3.6554,3.6492,3.6492,3.6492,3.6492,3.6429,3.6085,3.6022,3.6034,3.5954,3.679,3.7533,3.7856,3.8802,3.9508,3.9508,3.9307,3.9162,3.9162,3.8929,3.8782,3.8782,3.9002,3.9235,3.9307,3.9753,4.0036,4.0176,4.0385,4.0524,4.0524,4.0524,4.0524,4.0524,4.0524,4.0524,4.0524,4.0524,4.0524,4.0524,4.0524,4.0524,2.5788,2.6512,2.7354,2.8144,2.868,2.9083,2.9504,0.0,2.9602,2.9602,2.9757,3.0066,3.0892,3.1579,3.273,3.5092,3.5667,3.5945,3.6438,3.6433,3.6119,3.5096,3.4794,3.4677,3.4677,3.462,3.505,3.6057,3.6473,3.6796,3.6978,3.6978,3.7211,3.7582,3.7658,3.781,3.8263,3.8263,3.8337,3.856,3.856,3.8634,3.8782,3.8782,3.8782,3.8782,3.8634,3.9017,3.9696,3.9538,3.9895,4.0478,4.0001,3.9816,3.9739,3.9046,3.8816,3.8708,3.8031,3.7677,3.7415,3.6953,3.6661,3.6492,3.6492,3.6492,3.6492,3.6492,3.6492,3.6492,3.6492,3.6492,3.6492,3.6492,3.6492,3.6352,3.5816,3.5838,3.5844,3.5304,3.6217,3.7116,3.7116,3.803,3.8782,3.8782,3.8634,3.856,3.856,3.8412,3.8263,3.8263,3.8412,3.8782,3.9379,3.9753,4.0036,4.0246,4.0385,4.0524,4.0524,4.0524,4.0524,4.0524,4.0524,4.0524,4.0524,4.0524,4.0524,4.0524,4.0524,4.0524,2.5563,2.6408,2.7201,2.8414,2.9153,2.9602,2.9602,2.9602,2.9602,2.9602,3.008,3.0712,3.1359,3.2125,3.3067,3.4285,3.521,3.5696,3.5696,3.5696,3.5482,3.4882,3.4114,3.3605,3.3605,3.3945,3.4745,3.5967,3.6079,3.6346,3.695,3.6978,3.6978,3.6978,3.6978,3.6978,3.6978,3.6978,3.7289,3.7886,3.7886,3.8188,3.8782,3.8782,3.8782,3.8782,3.8188,3.856,3.9681,3.909,3.9508,4.0524,4.0524,4.0524,4.0432,3.9754,3.9508,3.94,3.8739,3.8061,3.7507,3.7492,3.703,3.6492,3.6492,3.6492,3.6492,3.6492,3.6492,3.6492,3.6492,3.6492,3.6492,3.6492,3.6492,3.6352,3.5816,3.62,3.6454,3.5887,3.6895,3.7809,3.7809,3.8354,3.8782,3.8782,3.8263,3.7886,3.7886,3.7366,3.6978,3.6978,3.7582,3.8188,3.8782,3.9864,4.0246,3.9753,4.0176,4.0524,4.0524,4.0524,4.0524,4.0524,4.0524,4.0524,4.0524,4.0524,4.0524,4.0524,4.0524,4.0524,2.4865,2.5594,2.644,2.752,2.8386,2.9083,2.9518,2.9602,2.9602,2.9602,3.0094,3.0712,3.1373,3.2058,3.2875,3.41,3.4891,3.5359,3.5359,3.5359,3.5133,3.4683,3.3988,3.3605,3.3605,3.3945,3.4393,3.4787,3.5602,3.615,3.6346,3.6768,3.6978,3.6978,3.6978,3.6978,3.6978,3.6978,3.7134,3.7275,3.7275,3.7582,3.8188,3.8188,3.8412,3.8782,3.8634,3.8708,3.909,3.8855,3.9002,3.9364,3.9364,3.908,3.8631,3.8801,3.8355,3.7736,3.777,3.7192,3.6535,3.7284,3.6569,3.5634,3.684,3.6861,3.6492,3.6492,3.6492,3.6492,3.6492,3.683,3.7184,3.7184,3.7538,3.7587,3.6679,3.6571,3.6443,3.5554,3.6082,3.6653,3.6653,3.7168,3.7582,3.7582,3.7443,3.7275,3.7275,3.7134,3.6978,3.6978,3.7505,3.7962,3.8188,3.8914,3.9451,3.9681,3.9824,4.0106,4.0455,4.0524,4.0524,4.0524,4.0524,4.0524,4.0524,4.0524,4.0524,4.0524,4.0524,4.0524,0.0,2.5646,2.6603,2.7284,2.8274,0.0,2.9518,2.9602,2.9602,2.9602,3.0291,3.1007,3.1415,3.2188,3.3002,3.3775,3.4604,3.5226,3.5226,3.5226,3.4916,3.4143,3.3706,3.3466,3.3466,3.3734,3.3986,3.4139,3.4941,3.5475,3.5714,3.6093,3.629,3.629,3.674,3.6978,3.6978,3.6978,3.6978,3.6978,3.6978,3.7211,3.7582,3.7582,3.7734,3.8098,3.7852,3.7899,0.0,3.7857,3.79,3.8117,3.8117,3.7851,3.7482,3.7848,3.7511,3.6971,3.7195,3.6678,3.5984,3.6667,3.6019,3.5082,3.617,3.6667,3.6798,3.6322,3.6569,3.6846,3.6622,3.6874,3.7177,3.7177,3.7494,3.7594,3.6681,3.666,3.6548,3.5713,3.5995,3.6416,3.6416,3.6726,3.6978,3.6978,3.6978,3.6978,3.6978,3.6978,3.6978,3.6978,3.7505,3.781,3.7582,3.8337,3.8929,3.9307,3.9538,3.9824,4.0176,4.0385,4.0524,4.0524,4.0524,4.0524,4.0524,4.0524,4.0524,4.0524,4.0524,4.0524,0.0,2.6408,2.7381,2.7717,2.8703,2.9602,0.0,0.0,0.0,2.9673,3.0642,3.1499,3.1555,3.2525,3.3326,3.3326,3.4351,3.5226,3.5226,3.5226,3.4702,3.3466,3.3326,3.3326,3.3326,3.3326,3.355,3.4126,3.4139,3.4492,3.5142,3.5198,3.5226,3.5226,3.6262,3.6852,3.6852,3.6852,3.6852,3.6852,3.6852,3.6852,3.6852,3.6852,3.6852,3.6824,3.6248,3.6297,3.6835,3.6216,3.6243,3.6807,3.6807,3.6777,3.6748,3.6733,3.6704,3.6674,3.6674,3.6276,3.5707,3.5707,3.5339,3.4868,3.4758,3.5914,3.7079,3.6045,3.6544,3.7308,3.6729,3.6634,3.6663,3.6663,3.6722,3.667,3.6129,3.6488,3.6785,3.6212,3.6522,3.69,3.6978,3.6993,3.6993,3.6993,3.6978,3.6964,3.6922,3.6922,3.6908,3.6866,3.7377,3.7453,3.693,3.7994,3.8782,3.8782,3.9322,3.9681,3.9753,4.0246,4.0524,4.0524,4.0524,4.0524,4.0524,4.0524,4.0524,4.0524,4.0524,4.0524,2.5798,0.0,2.7381,2.7717,2.8703,2.9602,0.0,0.0,0.0,0.0,0.0,3.164,3.2103,3.2806,3.3326,3.3326,3.4351,3.5226,3.5226,3.5226,3.4702,3.3466,3.3326,3.3326,3.3326,3.3326,3.3382,3.3522,3.3972,3.4309,3.445,3.4899,3.5226,3.5226,3.5508,3.5662,3.5662,3.5662,3.5662,3.5662,3.5662,3.5662,3.5588,3.5272,3.5348,3.5574,3.5133,3.5213,3.5571,3.5416,3.5492,3.5565,3.5565,3.5554,3.5447,3.5081,3.4695,3.428,3.4404,3.418,3.3886,3.3886,3.428,3.4479,3.3142,3.402,3.5442,3.5178,3.5348,3.5533,3.5333,3.5701,3.607,3.607,3.6821,3.7401,3.6866,3.6971,3.6943,3.6392,3.6108,3.6125,3.647,3.6549,3.6615,3.6978,3.6978,3.681,3.6346,3.6276,3.6093,3.5705,3.5723,3.5798,3.5662,3.7189,3.8337,3.8782,3.8929,3.9364,4.0246,4.0455,4.0524,4.0524,4.0524,4.0524,4.0524,4.0524,4.0524,4.0524,4.0524,4.0524,2.5839,2.647,2.7209,2.7706,2.8493,2.9265,0.0,0.0,0.0,0.0,0.0,3.1668,3.23,3.2904,3.3326,3.3326,3.4351,3.5226,3.5226,3.5226,3.4702,3.3466,3.3326,3.3326,3.3326,3.3326,3.3326,3.3326,3.3621,3.3817,3.3817,3.4126,3.4309,3.4309,3.4309,3.459,3.5212,3.5226,3.5226,3.5226,3.5226,3.5226,3.5152,3.478,3.4705,3.4915,3.4189,3.4065,3.4261,3.4116,3.3918,3.3785,3.3991,3.3912,3.3662,3.3447,3.3167,3.2889,3.2932,3.2889,3.2775,3.2775,3.3098,3.335,3.2355,3.2818,3.3701,3.4014,3.4509,3.4864,3.4583,3.4768,3.5024,3.5024,3.5536,3.596,3.5691,3.5717,3.5648,3.5393,3.5285,3.5301,3.5278,3.5548,3.5709,3.564,3.5598,3.5488,3.5155,3.5114,3.4989,3.4657,3.4915,3.499,3.4691,3.5803,3.671,3.7096,3.7594,3.8154,3.8801,3.9314,3.9754,4.0062,4.037,4.0524,4.0524,4.0524,4.0524,4.0524,4.0524,4.0524,2.5729,2.6273,2.6849,2.7593,2.824,2.8858,0.0,0.0,0.0,0.0,0.0,0.0,0.0,3.2974,3.3326,3.3326,3.4351,3.5226,3.5226,3.5226,3.4702,3.3466,3.3326,3.3326,3.3326,3.3326,3.3326,3.3326,3.3326,3.3326,3.3326,3.3326,3.3326,3.3326,3.3326,3.3817,3.4857,3.4871,3.4797,3.4797,3.4797,3.4724,3.471,3.4339,3.4189,3.4162,3.3281,3.2915,3.2948,3.2708,3.2417,3.2128,3.2489,3.2475,3.22,3.2055,3.2055,3.2114,3.2114,3.2055,3.1909,3.2042,3.2055,3.1909,3.1909,3.1909,3.2017,3.2631,3.3628,3.4386,3.3813,3.3751,3.3751,3.3751,3.3819,3.3887,3.3887,3.3878,3.3856,3.3856,3.4275,3.4451,3.395,3.4289,3.4516,3.4104,3.4023,3.3995,3.39,3.3887,3.3846,3.3751,3.4176,3.4237,3.3737,3.4162,3.4534,3.4724,3.5856,3.6512,3.6652,3.7662,3.8549,3.9207,3.9941,4.0278,4.0316,4.0385,4.0455,4.0385,4.0455,4.0524,2.5729,2.5964,2.6315,2.7481,2.824,2.8858,0.0,0.0,0.0,0.0,0.0,0.0,0.0,3.3255,3.3326,3.3326,3.4351,3.5226,3.5226,3.518,3.4731,3.3466,3.3326,3.3326,3.3326,3.3326,3.3326,3.3326,3.3326,3.3326,3.3326,3.3326,3.3326,3.3326,3.3326,3.341,3.3607,3.328,3.3052,3.3052,3.2763,3.2559,3.2545,3.2192,3.2192,3.2472,3.2025,3.1984,3.2264,3.2241,3.2128,3.2128,3.22,3.239,3.2662,3.1982,3.1969,3.2304,3.216,3.1676,3.1272,3.1882,3.1676,3.1198,3.1198,3.1198,3.1224,3.1316,3.1904,3.2472,3.2413,3.2413,3.2413,3.2413,3.282,3.3275,3.3275,3.3351,3.3378,3.3378,3.3224,3.3106,3.3392,3.3445,3.3641,3.3959,3.4023,3.3846,3.3329,3.3275,3.2996,3.2467,3.2472,3.2472,3.2413,3.2472,3.2545,3.2545,3.4228,3.5435,3.5899,3.6722,3.7466,3.8121,3.8832,3.9319,3.9595,4.0106,4.0121,3.9824,4.0316,4.0524,2.516,2.5674,2.613,2.6982,2.7736,2.8376,0.0,0.0,0.0,0.0,0.0,0.0,0.0,3.3326,3.3536,3.4197,3.4787,3.5226,3.5226,3.5166,3.4716,3.3466,3.3326,3.3326,3.3326,3.3326,3.3326,3.3326,3.3326,3.3326,3.3326,3.3326,3.3326,3.3326,3.3326,3.3326,3.3326,3.2717,3.2489,3.2704,3.2273,3.2128,3.2055,3.1776,3.1703,3.185,3.1408,3.1347,3.1482,3.1776,3.1703,3.1556,3.1776,3.1836,3.1823,3.1408,3.1408,3.1603,3.1542,3.1259,3.1061,3.1394,3.1259,3.0986,3.0986,3.0986,3.0986,3.0986,3.1272,3.1482,3.1482,3.1482,3.1482,3.1482,3.1782,3.1982,3.1982,3.2031,3.2064,3.2064,3.2174,3.2214,3.204,3.2328,3.242,3.2421,3.2382,3.2288,3.2009,3.1982,3.1875,3.1508,3.1482,3.1482,3.1482,3.1482,3.1763,3.2461,3.3775,3.4498,3.4667,3.5726,3.627,3.6168,3.7282,3.8083,3.8597,3.9279,3.9701,3.9854,3.9651,3.955,2.4452,2.5168,2.5746,2.6121,0.0,0.0,0.0,0.0,0.0,0.0,0.0,0.0,0.0,3.3326,3.3719,3.5029,3.5226,3.5226,3.5226,3.5226,3.4702,3.3466,3.3326,3.3326,3.3326,3.3326,3.3326,3.3326,3.3326,3.3326,3.3326,3.3241,3.3171,3.3171,3.31,3.303,3.303,3.2359,3.22,3.2561,3.2055,3.185,3.185,3.1556,3.1482,3.1408,3.1123,3.0986,3.0986,3.1347,3.1272,3.1061,3.1347,3.1272,3.0986,3.0986,3.0986,3.0986,3.0986,3.0986,3.0986,3.0986,3.0986,3.0986,3.0986,3.0986,3.0986,3.0986,3.0986,3.0986,3.0986,3.0986,3.0986,3.0986,3.0986,3.0986,3.0986,3.0986,3.0986,3.0986,3.1339,3.1496,3.1065,3.1352,3.1483,3.1052,3.0986,3.0986,3.0986,3.0986,3.0986,3.0986,3.0986,3.0986,3.0986,3.0986,3.1408,3.2376,3.3017,3.3297,3.3059,3.4295,3.4805,3.4356,3.558,3.6614,3.7401,3.8053,3.8771,3.93,3.8979,3.8807,2.3904,2.4439,2.4892,2.4823,2.624,0.0,2.8356,2.8556,0.0,3.1086,0.0,0.0,3.3101,3.3326,3.3719,3.5029,3.5226,3.5226,3.5226,3.5226,3.4702,3.3466,3.3326,3.3326,3.3326,3.3326,3.3326,3.3326,3.3326,3.3326,3.3326,3.2931,3.2775,3.2775,3.2345,3.22,3.22,3.185,3.185,3.2128,3.1421,3.1061,3.1061,3.1061,3.1061,3.1061,3.0986,3.0986,3.0986,3.1061,3.1061,3.0986,3.1061,3.1061,3.0986,3.0986,3.0986,3.0986,3.0986,3.0986,3.0986,3.0986,3.0986,3.0986,3.0986,3.0986,3.0986,3.0986,3.0986,3.0986,3.0986,3.0986,3.0986,3.0986,3.0986,3.0986,3.0986,3.0986,3.0986,3.0986,3.1013,3.1039,3.0999,3.1013,3.1039,3.0999,3.0986,3.0986,3.0986,3.0986,3.0986,3.0986,3.0986,3.0986,3.0986,3.0986,3.1061,3.1123,3.1198,3.1198,3.1198,3.1923,3.2632,3.3205,3.3966,3.4867,3.587,3.6428,3.6965,3.7332,3.8461,3.8955,2.3267,2.4096,2.4785,2.472,2.5764,0.0,0.0,2.8542,2.9924,3.0648,3.1048,0.0,3.2396,3.2931,3.3719,3.5029,3.5226,3.5226,3.5226,3.5226,3.4702,3.3466,3.3086,3.2931,3.2931,3.2717,3.2574,3.2574,3.2574,3.2574,3.2574,3.2417,3.2345,3.2345,3.22,3.2128,3.2128,3.1776,3.1629,3.1776,3.1272,3.0986,3.0986,3.0986,3.0986,3.0986,3.0986,3.0986,3.0986,3.0986,3.0986,3.0986,3.0986,3.0986,3.0986,3.0986,3.0986,3.0986,3.0986,3.0986,3.0986,3.0986,3.0986,3.0986,3.0986,3.0986,3.0986,3.0986,3.0986,3.0986,3.0986,3.0986,3.0986,3.0986,3.0986,3.0986,3.0986,3.0986,3.0986,3.0986,3.0986,3.0986,3.0986,3.0986,3.0986,3.0986,3.0986,3.0986,3.0986,3.0986,3.0986,3.0986,3.0986,3.0986,3.0986,3.0986,3.0986,3.0986,3.1394,3.1468,3.0986,3.175,3.2196,3.25,3.2777,3.3501,3.4781,3.4996,3.5397,3.5942,3.5868,3.5821,2.2702,2.3604,2.4499,2.4459,0.0,0.0,2.6139,2.7848,2.9604,2.9969,3.0794,3.1527,3.1702,3.2561,3.3648,3.4646,3.5064,3.5296,3.5494,3.5353,3.4773,3.3577,3.2971,3.2632,3.2489,3.2273,3.2128,3.2128,3.2304,3.2399,3.2399,3.2455,3.2489,3.2489,3.2326,3.2326,3.2326,3.1854,3.1686,3.1686,3.1215,3.0986,3.0986,3.0986,3.0986,3.0986,3.0986,3.0986,3.0986,3.0986,3.0986,3.0986,3.0986,3.0986,3.0986,3.0986,3.0986,3.0986,3.0986,3.0986,3.0986,3.0986,3.0986,3.0986,3.0986,3.0986,3.0986,3.0986,3.0986,3.0986,3.0986,3.0986,3.0986,3.0986,3.0986,3.0986,3.0986,3.0986,3.0986,3.0986,3.0986,3.0986,3.0986,3.0986,3.0986,3.0986,3.0986,3.0986,3.0986,3.0986,3.0986,3.0986,3.0986,3.0986,3.0986,3.0986,3.0986,3.0986,3.1468,3.1542,3.0986,3.1468,3.1736,3.1736,3.1736,3.2364,3.3559,3.3559,3.3912,3.455,3.4145,3.4018,2.2197,2.2967,2.3773,0.0,0.0,0.0,2.5441,2.6291,2.7619,2.8937,3.0748,3.1856,3.1044,3.2187,3.342,3.3929,3.4677,3.5363,3.5981,3.5545,3.4766,3.3758,3.3076,3.2574,3.2155,3.2082,3.2082,3.2082,3.2684,3.3023,3.3023,3.3162,3.3263,3.3263,3.2935,3.2685,3.2685,3.2123,3.1759,3.1823,3.1261,3.0986,3.0986,3.0986,3.0986,3.0986,3.0986,3.0986,3.0986,3.0986,3.0986,3.0986,3.0986,3.0986,3.0986,3.0986,3.0986,3.0986,3.0986,3.0986,3.0986,3.0986,3.0986,3.0986,3.0986,3.0986,3.0986,3.0986,3.0986,3.0986,3.0986,3.0986,3.0986,3.0986,3.0986,3.0986,3.0986,3.0986,3.0986,3.0986,3.0986,3.0986,3.0986,3.0986,3.0986,3.0986,3.0986,3.0986,3.0986,3.0986,3.0986,3.0986,3.0986,3.0986,3.0986,3.0986,3.0986,3.0986,3.0986,3.0986,3.0986,3.0986,3.0986,3.0986,3.0986,3.132,3.2074,3.2074,3.2434,3.3157,3.3845,3.4198,2.2197,2.2967,0.0,2.3773,0.0,0.0,0.0,2.6989,0.0,0.0,3.0436,3.1044,3.0228,3.0895,3.195,3.2893,3.3801,3.4416,3.4641,3.5055,3.4955,3.397,3.336,3.3114,3.2961,3.2718,3.2564,3.2564,3.2722,3.2815,3.2815,3.283,3.2857,3.2857,3.2778,3.2502,3.2097,3.1927,3.164,3.1235,3.1065,3.0986,3.0986,3.0986,3.0986,3.0986,3.0986,3.0986,3.0986,3.0986,3.0986,3.0986,3.0986,3.0986,3.0986,3.0986,3.0986,3.0986,3.0986,3.0986,3.0986,3.0986,3.0986,3.0986,3.0986,3.0986,3.0986,3.0986,3.0986,3.0986,3.0986,3.0986,3.0986,3.0986,3.0986,3.0986,3.0986,3.0986,3.0986,3.0986,3.0986,3.0986,3.0986,3.0986,3.0986,3.0986,3.0986,3.0986,3.0986,3.0986,3.0986,3.0986,3.0986,3.0986,3.0986,3.0986,3.0986,3.0986,3.0986,3.0986,3.0986,3.0986,3.1259,3.1736,3.1259,3.132,3.2074,3.1603,3.1468,3.169,3.1864,3.1944,2.2137,2.2967,0.0,2.3773,2.4554,2.5301,2.5445,0.0,0.0,2.882,2.9694,3.0139,2.9238,2.9999,3.0968,3.1483,3.245,3.3277,3.3566,3.4286,3.4416,3.3687,3.3395,3.3263,3.3106,3.2857,3.2685,3.2685,3.2921,3.3051,3.3051,3.3247,3.3365,3.3365,3.3156,3.2881,3.2542,3.2071,3.1666,3.1326,3.1091,3.0986,3.0986,3.0986,3.0986,3.0986,3.0986,3.0986,3.0986,3.0986,3.0986,3.0986,3.0986,3.0986,3.0986,3.0986,3.0986,3.0986,3.0986,3.0986,3.0986,3.0986,3.0986,3.0986,3.0986,3.0986,3.0986,3.0986,3.0986,3.0986,3.0986,3.0986,3.0986,3.0986,3.0986,3.0986,3.0986,3.0986,3.0986,3.0986,3.0986,3.0986,3.0986,3.0986,3.0986,3.0986,3.0986,3.0986,3.0986,3.0986,3.0986,3.0986,3.0986,3.0986,3.0986,3.0986,3.0986,3.0986,3.0986,3.0986,3.0986,3.0986,3.1185,3.1676,3.1259,3.1185,3.1676,3.1185,3.0986,3.0986,3.0986,3.0986,2.2053,2.2931,0.0,2.3749,2.4417,0.0,2.5658,2.6256,2.6932,2.7459,2.8537,2.9114,2.8243,2.9319,3.019,2.9942,3.0934,3.203,3.2618,3.3238,3.3535,3.3178,3.3236,3.3186,3.2776,3.2855,3.2842,3.2842,3.3352,3.3666,3.3666,3.4136,3.4371,3.4332,3.3849,3.3535,3.343,3.2372,3.1823,3.1757,3.1235,3.0986,3.0986,3.0986,3.0986,3.0986,3.0986,3.0986,3.0986,3.0986,3.0986,3.0986,3.0986,3.0986,3.0986,3.0986,3.0986,3.0986,3.0986,3.0986,3.0986,3.0986,3.0986,3.0986,3.0986,3.0986,3.0986,3.0986,3.0986,3.0986,3.0986,3.0986,3.0986,3.0986,3.0986,3.0986,3.0986,3.0986,3.0986,3.0986,3.0986,3.0986,3.0986,3.0986,3.0986,3.0986,3.0986,3.0986,3.0986,3.0986,3.0986,3.0986,3.0986,3.0986,3.0986,3.0986,3.0986,3.0986,3.0986,3.0986,3.0986,3.0986,3.0986,3.0986,3.0986,3.0986,3.0986,3.0986,3.0986,3.0986,3.0986,3.0986,2.1992,2.2591,0.0,0.0,2.4222,2.4956,2.5195,2.5562,2.6095,2.6681,2.71,2.7292,2.7321,2.7615,2.8083,2.8891,3.0077,3.1005,3.1272,3.2372,3.2975,3.2561,3.3009,3.3367,3.3296,3.37,3.4031,3.4031,3.4149,3.4228,3.4228,3.4332,3.4201,3.3783,3.3652,3.3156,3.2228,3.1889,3.1614,3.1169,3.1052,3.0986,3.0986,3.0986,3.0986,3.0986,3.0986,3.0986,3.0986,3.0986,3.0986,3.0986,3.0986,3.0986,3.0986,3.0986,3.0986,3.0986,3.0986,3.0986,3.0986,3.0986,3.0986,3.0986,3.0986,3.0986,3.0986,3.0986,3.0986,3.0986,3.0986,3.0986,3.0986,3.0986,3.0986,3.0986,3.0986,3.0986,3.0986,3.0986,3.0986,3.0986,3.0986,3.0986,3.0986,3.0986,3.0986,3.0986,3.0986,3.0986,3.0986,3.0986,3.0986,3.0986,3.0986,3.0986,3.0986,3.0986,3.0986,3.0986,3.0986,3.0986,3.0986,3.0986,3.0986,3.0986,3.0986,3.0986,3.0986,3.0986,3.0986,3.0986,2.1846,0.0,0.0,2.3593,0.0,2.479,2.4778,2.4989,2.5271,2.553,2.604,2.6464,2.6569,2.6539,2.6726,2.7207,2.8101,2.8845,2.9411,3.0628,3.1565,3.1828,3.2413,3.2846,3.2846,3.3189,3.353,3.3894,3.3894,3.4063,3.4397,3.4162,3.3875,3.36,3.3051,3.2463,3.1772,3.1575,3.1143,3.0581,3.0581,3.0438,3.0189,3.0738,3.0986,3.0986,3.0986,3.0986,3.0986,3.0986,3.0986,3.0986,3.0986,3.0986,3.0986,3.0986,3.0986,3.0986,3.0986,3.0986,3.0986,3.0986,3.0986,3.0986,3.0986,3.0986,3.0986,3.0986,3.0986,3.0986,3.0986,3.0986,3.0986,3.0986,3.0986,3.0986,3.0986,3.0986,3.0986,3.0986,3.0986,3.0986,3.0986,3.0986,3.0986,3.0986,3.0986,3.0986,3.0986,3.0986,3.0986,3.0986,3.0986,3.0986,3.0986,3.0986,3.0986,3.0986,3.0986,3.0986,3.0986,3.0986,3.0986,3.0986,3.0986,3.0986,3.0986,3.0986,3.0986,3.0986,3.0986,3.0986,2.1471,0.0,2.3013,2.3682,2.4179,0.0,2.4478,2.4574,2.4646,2.4502,2.53,2.5983,2.5838,2.5773,2.5808,2.5693,2.6129,2.676,2.7598,2.8724,2.9792,3.0738,3.152,3.203,3.2127,3.2215,3.2537,3.3174,3.3157,3.3308,3.3953,3.343,3.3091,3.2999,3.2058,3.142,3.1405,3.0934,3.0451,2.9993,2.9993,2.9745,2.9314,3.0255,3.0686,3.0686,3.0686,3.0686,3.0686,3.0686,3.0686,3.0699,3.0803,3.083,3.0856,3.0947,3.0986,3.0986,3.0986,3.0986,3.0986,3.0986,3.0986,3.0986,3.0986,3.0986,3.0986,3.0986,3.0986,3.0986,3.0986,3.0986,3.0986,3.0986,3.0986,3.0986,3.0986,3.0986,3.0986,3.0986,3.0986,3.0986,3.0986,3.0986,3.0986,3.0986,3.0986,3.0986,3.0986,3.0986,3.0986,3.0986,3.0986,3.0986,3.0986,3.0986,3.0986,3.0986,3.0986,3.0986,3.0986,3.0986,3.0986,3.0986,3.0986,3.0986,3.0986,3.0986,3.0986,3.0986,3.0986,3.0986,2.0828,0.0,2.2395,0.0,2.3294,2.3732,2.4397,2.4418,2.4345,2.449,2.4606,2.4827,2.5021,2.5015,2.5164,2.5635,2.6129,2.6519,2.6645,2.7566,2.8445,2.9011,3.006,3.0946,3.1424,3.1977,3.2376,3.2592,3.2219,3.1992,3.2124,3.164,3.1104,3.0607,3.0438,3.0124,2.9627,2.9549,2.947,2.9392,2.9392,2.9353,2.9287,2.9444,2.951,2.951,2.951,2.951,2.951,2.951,2.951,2.9549,3.0059,3.0255,3.0307,3.0803,3.0986,3.0986,3.0986,3.0986,3.0986,3.0986,3.0986,3.0986,3.0986,3.0986,3.0986,3.0986,3.0986,3.0986,3.0986,3.0986,3.0986,3.0986,3.0986,3.0986,3.0986,3.0986,3.0986,3.0986,3.0986,3.0986,3.0986,3.0986,3.0986,3.0986,3.0986,3.0986,3.0986,3.0986,3.0986,3.0986,3.0986,3.0986,3.0986,3.0986,3.0986,3.0986,3.0986,3.0986,3.0986,3.0986,3.0986,3.0986,3.0986,3.0986,3.0986,3.0986,3.0986,3.0986,3.0986,3.0986,2.1122,2.1696,2.2116,0.0,2.2994,2.35,2.3801,2.4066,2.42,2.4345,2.4345,2.4342,2.4476,2.451,2.459,2.482,2.505,2.5394,2.5968,2.6427,2.7001,2.7782,2.831,2.871,2.8943,2.9294,2.9606,3.0094,2.9954,2.996,3.0352,3.0189,2.9915,2.967,2.9665,2.9536,2.9274,2.9274,2.9104,2.8778,2.8451,2.8294,2.8294,2.8294,2.866,2.9274,2.9274,2.9274,2.9274,2.9274,2.9274,2.9301,2.9549,2.9653,2.9732,3.0294,3.0516,3.0555,3.0869,3.0986,3.0986,3.0986,3.0986,3.0986,3.0986,3.0986,3.0986,3.0986,3.0986,3.0986,3.0986,3.0986,3.0986,3.0986,3.0986,3.0986,3.0986,3.0986,3.0986,3.0986,3.0986,3.0986,3.0986,3.0986,3.0986,3.0986,3.0986,3.0986,3.0986,3.0986,3.0986,3.0986,3.0986,3.0986,3.0986,3.0986,3.0986,3.0986,3.0986,3.0986,3.0986,3.0986,3.0986,3.0986,3.0986,3.0986,3.0986,3.0986,3.0986,3.0986,3.0986,3.0986,0.0,0.0,2.1766,2.2035,2.2569,2.3063,2.3315,2.3741,2.4039,2.4166,2.42,2.42,2.42,2.42,2.42,2.42,2.42,2.4464,2.5222,2.5429,2.5842,2.6737,2.6955,2.7082,2.7219,2.7231,2.7406,2.8056,2.7913,2.8096,2.8568,2.8648,2.8638,2.8638,2.8757,2.883,2.883,2.883,2.8608,2.8164,2.7732,2.7523,2.7523,2.7523,2.8007,2.883,2.883,2.883,2.883,2.883,2.883,2.8843,2.9,2.9052,2.9118,2.9706,2.9915,2.9993,3.0568,3.0764,3.079,3.0934,3.0986,3.0986,3.0986,3.0986,3.0986,3.0986,3.0986,3.0986,3.0986,3.0986,3.0986,3.0986,3.0986,3.0986,3.0986,3.0986,3.0986,3.0986,3.0986,3.0986,3.0986,3.0986,3.0986,3.0986,3.0986,3.0986,3.0986,3.0986,3.0986,3.0986,3.0986,3.0986,3.0986,3.0986,3.0986,3.0986,3.0986,3.0986,3.0986,3.0986,3.0986,3.0986,3.0986,3.0986,3.0986,3.0986,3.0986,3.0986,3.0986,3.0986,0.0,2.1244,0.0,2.1812,2.1973,2.226,2.3155,2.3395,2.3615,2.4097,2.42,2.42,2.42,2.42,2.42,2.42,2.42,2.4212,2.4269,2.4671,2.5164,2.5727,2.6209,2.6691,2.7185,2.7231,2.7267,2.7399,2.6954,2.6668,2.682,2.6866,2.6853,2.6853,2.7291,2.7615,2.7615,2.7615,2.7602,2.7575,2.7536,2.7523,2.7523,2.7523,2.7562,2.7615,2.7615,2.7615,2.7615,2.7615,2.7615,2.768,2.8216,2.8425,2.8503,2.9104,2.9327,2.9405,2.998,3.0176,3.0268,3.0803,3.0986,3.0986,3.0986,3.0986,3.0986,3.0986,3.0986,3.0986,3.0986,3.0986,3.0986,3.0986,3.0986,3.0986,3.0986,3.0986,3.0986,3.0986,3.0986,3.0986,3.0986,3.0986,3.0986,3.0986,3.0986,3.0986,3.0986,3.0986,3.0986,3.0986,3.0986,3.0986,3.0986,3.0986,3.0986,3.0986,3.0986,3.0986,3.0986,3.0986,3.0986,3.0986,3.0986,3.0986,3.0986,3.0986,3.0986,3.0986,3.0986,3.0986,0.0,0.0,0.0,2.1388,2.1686,2.2019,2.2386,2.2533,2.2816,2.353,2.3139,2.283,2.3298,2.3824,2.42,2.42,2.42,2.42,2.42,2.4349,2.4522,2.4717,2.49,2.5084,2.5268,2.5279,2.5286,2.5315,2.5129,2.5005,2.5109,2.5408,2.5581,2.5581,2.6139,2.6483,2.6483,2.6483,2.6483,2.6483,2.6483,2.6483,2.6483,2.6483,2.6483,2.6483,2.6483,2.6837,2.7523,2.7523,2.7523,2.7549,2.7758,2.7837,2.7902,2.849,2.8699,2.8791,2.9379,2.9588,2.968,3.0255,3.0438,3.0438,3.0438,3.0438,3.0359,2.9993,2.9889,2.9889,2.9889,2.9889,2.998,3.0346,3.0438,3.0542,3.0908,3.0986,3.0986,3.0986,3.0986,3.0986,3.0986,3.0986,3.0986,3.0986,3.0986,3.0986,3.0986,3.0986,3.0986,3.0986,3.0986,3.0986,3.0986,3.066,3.0438,3.0438,3.0098,2.9889,2.9889,2.9889,2.9889,2.9889,2.9889,3.0255,3.0986,3.062,3.0438,3.0424,3.0059,2.9889,1.9328,0.0,0.0,2.0828,2.1076,2.137,2.154,2.1663,2.2077,2.3151,2.2593,2.2179,2.2894,2.3213,2.3508,2.374,2.3824,2.3897,2.4127,2.42,2.42,2.42,2.42,2.42,2.42,2.42,2.42,2.42,2.42,2.42,2.42,2.4743,2.5075,2.53,2.5709,2.5931,2.5931,2.5931,2.5931,2.5931,2.5931,2.5931,2.5931,2.5931,2.5931,2.5931,2.5931,2.6277,2.6973,2.6973,2.7053,2.7255,2.7255,2.7323,2.7575,2.7954,2.7962,2.7902,2.8485,2.8763,2.8782,2.9352,2.9691,2.9849,2.9849,2.9849,2.9771,2.9392,2.9274,2.9274,2.9274,2.9274,2.9379,2.9758,2.9849,2.9954,3.0333,3.0712,3.0986,3.0986,3.0986,3.0986,3.0986,3.0986,3.0986,3.0986,3.0986,3.0921,3.0725,3.0699,3.062,3.0438,3.0411,3.0411,3.0411,3.0059,2.9849,2.9849,2.9497,2.9274,2.9274,2.9274,2.9274,2.9274,2.9274,2.9653,3.0411,3.0032,2.9849,2.9836,2.9457,2.9274,0.0,0.0,0.0,2.0096,2.0096,2.0216,2.0753,2.0873,2.1294,2.2981,2.2666,2.2306,2.2881,2.2285,2.1983,2.2841,2.2927,2.3224,2.4043,2.4116,2.4116,2.4189,2.4189,2.42,2.42,2.42,2.42,2.42,2.42,2.42,2.42,2.4671,2.5217,2.5861,2.5861,2.5861,2.5861,2.5861,2.5861,2.5861,2.5861,2.5861,2.5861,2.5861,2.5861,2.5861,2.5861,2.5861,2.5861,2.5861,2.622,2.6658,2.6658,2.6985,2.7456,2.7469,2.7121,2.6802,2.7405,2.7583,2.7672,2.8172,2.8723,2.9248,2.9248,2.9248,2.9248,2.9235,2.9222,2.9222,2.9222,2.9222,2.9235,2.9248,2.9248,2.9261,2.9274,3.015,3.0934,3.0934,3.0934,3.0934,3.0934,3.0934,3.0934,3.0934,3.0934,3.0738,3.0176,3.0111,2.9902,2.934,2.9274,2.9274,2.9274,2.9261,2.9248,2.9248,2.9235,2.9222,2.9222,2.9222,2.9222,2.9222,2.9222,2.9222,2.9222,2.9248,2.9248,2.9248,2.9235,2.9138,1.7478,0.0,0.0,0.0,0.0,0.0,1.9467,1.9353,1.9661,2.1303,2.0783,2.043,2.1786,2.112,2.0621,2.1562,2.1756,2.2059,2.2767,2.2756,2.2979,2.3666,2.3751,2.3897,2.42,2.42,2.42,2.42,2.42,2.42,2.42,2.4334,2.4467,2.4683,2.4683,2.4683,2.4683,2.4683,2.4683,2.4683,2.4683,2.4683,2.4683,2.4683,2.4683,2.4683,2.4683,2.4683,2.4754,2.5581,2.6,2.6139,2.6139,2.6208,2.6414,2.6782,2.685,2.6807,2.7369,2.7284,2.7043,2.7659,2.7624,2.7398,2.7398,2.7398,2.7322,2.6922,2.6809,2.6809,2.6809,2.7101,2.7493,2.7972,2.8342,2.8752,2.9196,2.9536,2.9758,2.9758,2.9758,2.9758,2.9758,2.9758,2.9758,2.9758,2.9758,2.9693,2.9536,2.9523,2.9457,2.9301,2.9274,2.9274,2.9274,2.8882,2.8634,2.8634,2.8242,2.802,2.802,2.802,2.802,2.802,2.802,2.802,2.802,2.8425,2.8565,2.8425,2.7885,2.7541,0.0,0.0,1.8566,1.8566,0.0,0.0,1.8442,1.8301,1.8527,1.9997,1.9424,1.9111,2.0337,1.9619,1.9108,1.9822,1.988,2.0476,2.2134,2.2467,2.2681,2.3298,2.3372,2.3446,2.3677,2.3824,2.397,2.397,2.4116,2.42,2.42,2.42,2.4292,2.4487,2.4303,2.4292,2.4487,2.4292,2.42,2.42,2.42,2.42,2.42,2.42,2.42,2.42,2.42,2.42,2.4261,2.4886,2.53,2.5499,2.5499,2.5652,2.5931,2.622,2.622,2.607,2.6346,2.6277,2.6062,2.6721,2.6611,2.6399,2.6623,2.654,2.6337,2.6017,2.5931,2.5931,2.5931,2.6151,2.6433,2.6829,2.7113,2.748,2.7825,2.8055,2.8407,2.9183,2.9274,2.9274,2.9274,2.9274,2.9274,2.9274,2.9274,2.9196,2.8935,2.8895,2.8817,2.8569,2.8556,2.8556,2.8556,2.8229,2.802,2.802,2.7706,2.7523,2.7523,2.7523,2.7523,2.7523,2.7523,2.7469,2.7403,2.7795,2.7828,2.7623,2.7084,2.6794,0.0,0.0,0.0,1.7833,1.7706,0.0,1.7569,1.7423,1.7646,1.8972,1.8586,1.8176,1.8875,1.8258,1.7743,1.8041,1.7958,1.8865,2.1638,2.2317,2.2617,2.2681,2.2767,2.2852,2.2927,2.3372,2.3604,2.3677,2.397,2.42,2.42,2.42,2.4395,2.482,2.4361,2.4315,2.474,2.4269,2.4028,2.4028,2.4028,2.4028,2.4028,2.4028,2.4062,2.4108,2.4108,2.4143,2.42,2.42,2.4467,2.4945,2.4945,2.5229,2.5721,2.5791,2.5429,2.5004,2.5075,2.5087,2.5075,2.5652,2.5791,2.5791,2.6289,2.6082,2.5721,2.5721,2.5721,2.5721,2.5721,2.5791,2.5791,2.5791,2.5861,2.5861,2.5849,2.6208,2.7005,2.8588,2.9008,2.9091,2.9091,2.9091,2.9091,2.9091,2.9091,2.8895,2.836,2.8281,2.8085,2.7589,2.7523,2.7523,2.7523,2.7523,2.7523,2.7523,2.7523,2.7523,2.7523,2.7523,2.7456,2.7469,2.7469,2.7403,2.7201,2.7201,2.7146,2.6943,2.6794,2.6658,1.5504,1.6084,1.6612,1.6612,1.6612,0.0,1.6542,1.6542,1.676,1.7646,1.7665,1.7729,1.8572,1.8242,1.7961,1.8155,1.8145,1.8552,1.974,1.9844,2.007,2.0894,2.1451,2.2069,2.267,2.3287,2.3751,2.4043,2.4127,2.42,2.42,2.42,2.4235,2.4326,2.3844,2.3567,2.3658,2.3224,2.2972,2.2972,2.2972,2.2972,2.2972,2.2972,2.3201,2.3592,2.3592,2.3821,2.42,2.42,2.4261,2.4334,2.4334,2.4406,2.4611,2.5016,2.5075,2.5087,2.5581,2.5429,2.5004,2.5146,2.4886,2.4539,2.4683,2.4611,2.4539,2.4539,2.4539,2.4539,2.4539,2.4886,2.5146,2.5146,2.5569,2.5779,2.5487,2.5475,2.5758,2.6387,2.7224,2.7876,2.7876,2.7876,2.7876,2.7876,2.7876,2.7824,2.7706,2.7693,2.7654,2.7536,2.7523,2.7523,2.7523,2.7523,2.7523,2.7523,2.7523,2.7523,2.7523,2.7523,2.7469,2.7335,2.7214,2.7011,2.6794,2.6794,2.6794,2.6726,2.6589,2.6521,1.5189,1.5757,1.6272,1.6272,1.6272,0.0,0.0,1.614,1.6202,1.6673,1.6673,1.6736,1.7278,1.7113,1.6974,1.7222,1.7293,1.7498,1.8009,1.8725,1.9388,1.9908,2.04,2.0914,2.1375,2.2285,2.3213,2.4116,2.42,2.42,2.42,2.42,2.42,2.42,2.3707,2.3372,2.3372,2.2937,2.2685,2.2685,2.2685,2.2685,2.2685,2.2685,2.2823,2.3064,2.3064,2.3351,2.3821,2.3821,2.3971,2.42,2.42,2.42,2.4261,2.4467,2.4599,2.4671,2.4957,2.4886,2.4671,2.4945,2.4671,2.4261,2.4539,2.4394,2.42,2.42,2.42,2.42,2.42,2.4406,2.4599,2.4599,2.4814,2.5028,2.4802,2.4933,2.5276,2.5767,2.6552,2.7188,2.7403,2.7469,2.7523,2.7523,2.7523,2.7523,2.7523,2.7523,2.7523,2.7523,2.7523,2.7523,2.7523,2.7523,2.7523,2.7523,2.7523,2.7523,2.7523,2.7523,2.7469,2.7268,2.6998,2.6794,2.6714,2.6658,2.6589,2.6589,2.6521,2.6533,1.5124,1.5622,1.6211,1.6211,1.614,1.607,0.0,0.0,0.0,1.6,1.5929,1.5867,1.6,1.5938,1.5899,1.6199,1.6242,1.6353,1.6661,1.792,1.8882,1.8881,1.9247,1.9599,1.9841,2.105,2.2414,2.3886,2.397,2.397,2.42,2.42,2.4154,2.4051,2.3557,2.3259,2.3086,2.2639,2.2386,2.2386,2.2386,2.2386,2.2386,2.2386,2.2444,2.2536,2.2536,2.2823,2.3305,2.3326,2.3612,2.399,2.4154,2.42,2.42,2.42,2.42,2.42,2.42,2.42,2.4261,2.4743,2.4539,2.4116,2.4515,2.4311,2.397,2.397,2.397,2.397,2.397,2.397,2.397,2.397,2.397,2.397,2.3897,2.4154,2.4647,2.5217,2.5709,2.6346,2.7201,2.7403,2.7523,2.7523,2.7523,2.7523,2.7523,2.7523,2.7523,2.7523,2.7523,2.7523,2.7523,2.7523,2.7523,2.7523,2.7523,2.7456,2.7469,2.739,2.7268,2.7201,2.6863,2.6658,2.6658,2.6521,2.6533,2.6533,2.6533,2.6533,1.4749,1.53,1.5876,1.5876,1.5867,1.5797,1.5797,0.0,1.5805,1.5797,0.0,1.5805,1.5797,0.0,0.0,1.5857,1.5865,1.5882,1.5925,1.6387,1.6824,1.7171,1.7769,1.8247,1.8676,1.996,2.1395,2.3043,2.2968,2.3265,2.4116,2.42,2.3994,2.3546,2.3041,2.2547,2.2099,2.1594,2.1394,2.1394,2.1394,2.1394,2.1394,2.1394,2.1583,2.2007,2.2007,2.2294,2.28,2.3259,2.3265,2.3059,2.3872,2.42,2.42,2.42,2.42,2.42,2.42,2.42,2.42,2.4261,2.4043,2.3593,2.3287,2.315,2.315,2.315,2.315,2.315,2.315,2.315,2.315,2.315,2.315,2.3075,2.2703,2.2617,2.2841,2.3213,2.3463,2.4446,2.7027,2.7456,2.7523,2.7523,2.7523,2.7523,2.7523,2.7523,2.7523,2.7523,2.7523,2.7523,2.7523,2.7523,2.7523,2.7523,2.7523,2.7469,2.7335,2.6985,2.6782,2.6782,2.6589,2.6521,2.6521,2.6533,2.6533,2.6533,2.6533,2.6533,1.4412,1.4942,1.5426,1.5426,1.5655,1.5726,1.5505,1.5426,1.5426,1.5426,0.0,0.0,0.0,0.0,0.0,0.0,1.5805,1.5805,1.5805,1.5934,1.6173,1.6542,1.7006,1.7794,1.9156,1.9478,2.0573,2.3061,2.271,2.2904,2.4105,2.42,2.3833,2.3029,2.2788,2.2294,2.1491,2.1273,2.1221,2.1221,2.1221,2.1221,2.1221,2.1221,2.1284,2.1479,2.1479,2.1766,2.226,2.2264,2.2488,2.2816,2.3005,2.3419,2.3824,2.3824,2.3824,2.3824,2.3824,2.3824,2.3897,2.4116,2.3751,2.3298,2.3298,2.315,2.3001,2.3001,2.3001,2.3001,2.3001,2.3001,2.3001,2.3001,2.3001,2.2927,2.2777,2.2777,2.2916,2.3338,2.3537,2.4024,2.5591,2.5881,2.6032,2.6607,2.6607,2.6744,2.739,2.7403,2.7403,2.7456,2.7403,2.7403,2.7403,2.7403,2.7335,2.7214,2.7214,2.7214,2.7146,2.6863,2.6714,2.6714,2.6589,2.6533,2.6533,2.6533,2.6533,2.6533,2.6533,2.6533,1.3999,1.4591,1.5196,1.5062,1.5355,1.5505,1.5133,1.5062,1.5062,1.5062,1.5062,0.0,0.0,0.0,1.5329,1.5228,0.0,1.528,1.535,1.535,1.5598,1.6148,1.6439,1.722,1.8817,1.8411,1.9311,2.2242,2.1836,2.2132,2.3693,2.3775,2.3374,2.2501,2.2478,2.2053,2.1233,2.1221,2.1221,2.1221,2.1221,2.1221,2.1221,2.1221,2.1221,2.1221,2.1221,2.1376,2.1732,2.1583,2.1868,2.2414,2.2539,2.2861,2.3267,2.3401,2.3446,2.3446,2.3446,2.3446,2.3446,2.3677,2.3298,2.2852,2.3075,2.2927,2.2703,2.2703,2.2703,2.2703,2.2703,2.2703,2.2703,2.2703,2.2703,2.2703,2.2703,2.2703,2.2767,2.318,2.3243,2.3379,2.3806,2.4385,2.4945,2.5603,2.5603,2.5812,2.6607,2.6824,2.6905,2.7027,2.7121,2.7214,2.7214,2.7214,2.7146,2.7024,2.6943,2.6943,2.6943,2.6726,2.6658,2.6658,2.6521,2.6533,2.6533,2.6533,2.6533,2.6533,2.6533,2.6533,1.3651,1.4368,1.5133,1.4713,1.4919,1.5133,1.4713,1.4641,1.4641,1.4641,1.4641,1.4538,1.4274,1.4218,1.4175,1.3822,1.3765,0.0,0.0,1.4247,1.4647,1.5658,1.5831,1.6119,1.6709,1.6581,1.7433,2.0012,2.0032,2.0744,2.2651,2.2731,2.249,2.1962,2.195,2.1697,2.1233,2.1221,2.1221,2.1221,2.1221,2.1221,2.1221,2.1221,2.1221,2.1221,2.1221,2.1233,2.129,2.172,2.1674,2.1464,2.2844,2.2876,2.2295,2.2826,2.3001,2.3001,2.3001,2.3001,2.2927,2.2553,2.2478,2.2327,2.1959,2.1883,2.1807,2.1807,2.1807,2.1807,2.1807,2.1807,2.1807,2.1807,2.1807,2.1807,2.1807,2.1807,2.1807,2.1873,2.1873,2.1883,2.1873,2.3452,2.4732,2.4732,2.4732,2.4732,2.4815,2.538,2.5824,2.5824,2.6564,2.7024,2.7024,2.7024,2.7024,2.7024,2.6794,2.6714,2.6714,2.6589,2.6533,2.6533,2.6533,2.6533,2.6533,2.6533,2.6533,2.6533,2.6533,2.6533,1.3592,1.4057,1.4418,1.4274,1.4561,1.4705,1.4346,1.4274,1.4274,1.4274,1.4095,1.3902,1.3785,1.3858,1.3811,1.3749,1.3733,1.3733,0.0,1.4073,1.4297,1.4681,1.5358,1.6122,1.6872,1.6457,1.7168,1.9534,1.9634,2.0327,2.1885,2.2457,2.2444,2.1939,2.1927,2.1686,2.1233,2.1221,2.1221,2.1221,2.1221,2.1221,2.1221,2.1221,2.1221,2.1221,2.1221,2.1221,2.1169,2.1084,2.1018,2.0995,2.1279,2.1371,2.1618,2.2604,2.2852,2.2628,2.2628,2.2628,2.2628,2.2777,2.2402,2.2035,2.2176,2.2025,2.1807,2.1807,2.1807,2.1807,2.1807,2.1807,2.1807,2.1807,2.1807,2.1807,2.1807,2.1807,2.1807,2.1807,2.1807,2.1807,2.1807,2.2381,2.3021,2.3576,2.361,2.3829,2.4589,2.4826,2.4898,2.5028,2.5193,2.5276,2.5276,2.5134,2.5134,2.5276,2.5581,2.5804,2.5804,2.6245,2.6533,2.6533,2.6533,2.6245,2.5746,2.5746,2.5441,2.4921,2.4921,2.5217,1.3201,1.3636,1.4057,1.392,1.4137,1.4346,1.3992,1.392,1.392,1.392,1.3656,1.3376,1.3255,1.3171,1.3041,1.2983,1.2967,1.2967,0.0,1.3591,1.4007,1.4007,1.4816,1.5653,1.6378,1.6051,1.6618,1.8587,1.8754,1.9308,2.0593,2.1374,2.1642,2.126,2.1521,2.1502,2.1221,2.1221,2.1221,2.1221,2.1031,2.0967,2.0967,2.0828,2.0828,2.0828,2.0828,2.0828,2.0764,2.0506,2.0489,2.0521,2.0514,2.061,2.0927,2.1913,2.2264,2.2176,2.2176,2.2176,2.2252,2.2478,2.2252,2.1883,2.2101,2.2025,2.1838,2.2004,2.1932,2.1849,2.2004,2.1932,2.1807,2.1807,2.1807,2.1807,2.1807,2.1807,2.1807,2.1807,2.1807,2.1807,2.1807,2.1807,2.2025,2.2585,2.2606,2.283,2.3599,2.3829,2.3986,2.4108,2.4181,2.4264,2.4264,2.4192,2.4192,2.4264,2.4933,2.5312,2.5312,2.5816,2.6094,2.6094,2.5804,2.537,2.4862,2.4862,2.4636,2.4108,2.3648,2.3724]}]]